<?xml version="1.0" encoding="UTF-8" standalone="no" ?>
<gpx xmlns="http://www.topografix.com/GPX/1/1" xmlns:xsi="http://www.w3.org/2001/XMLSchema-instance" xsi:schemaLocation="http://www.topografix.com/GPX/1/1 http://www.topografix.com/GPX/1/1/gpx.xsd" version="1.1" creator="VisuGPX - https://www.visugpx.com">
  <metadata>
    <name>Pas des Griffes - Valloire</name>
    <desc><![CDATA[Départ Valmeinier en direction de Notre dame de la vie. Piste en forêt. 
Puis chemin en balcon avec de belles vues au dessus de Valloire jusqu'à Geneuil puis les Diseurs. 
Prendre la longue piste que monte jusqu'au Crey du Quart. De la piste (de ski) qui monte fort à la fin. 
Suivre les crêtes du grand plateau jusqu'au pas des Griffes. Sentier pas toujours roulant. 
Super single (épingles) qui descend jusqu'aux Arendiers, puis chemin qui rejoint le parking des traverses. Tous deux avec des passages bien techniques. 
Rejoindre Valmeiner 180 d'abors par un sentier, puis une piste. 
A la sortie prendre une piste jusqu'aux jeux, puis sentier jusqu'à Méraloup. 
Là vous attend une deuxième super descente. Single au début et piste à la fin.
]]></desc>
  </metadata>
  <trk>
    <name><![CDATA[2016-08-13 10:51]]></name>
    <desc><![CDATA[<p>Heure de départ: 08/13/2016 10:51</p><p>Heure d'arrivée: 08/13/2016 16:18</p><p>Distance: 37,8 km (05:26)</p><p>Temps déplacement: 04:06</p><p>Vitesse moyenne: 6,93 km/h</p><p>Vitesse moyenne mouv.: 9,19 km/h</p><p>Vitesse Max.: 42km/h</p><p>Altitude minimale: 1404 m</p><p>Altitude maximale: 2457 m</p><p>Vitesse de montée: 533 m/h</p><p>Vitesse de descente: -922,2 m/h</p><p>Gain d'altitude: 1809 m</p><p>Perte d'altitude: -1791 m</p><p>Temps de montée: 03:23</p><p>Temps de descente: 01:56</p><hr align="center" width="480" style="height: 2px; width: 517px"/>]]></desc>
    <trkseg>
      <trkpt lat="45.182" lon="6.48023">
        <ele>1404.31</ele>
        <time>2016-08-13T08:51:23Z</time>
      </trkpt>
      <trkpt lat="45.18181" lon="6.48023">
        <ele>1405.71</ele>
        <time>2016-08-13T08:54:03Z</time>
      </trkpt>
      <trkpt lat="45.1817" lon="6.47999">
        <ele>1405.51</ele>
        <time>2016-08-13T08:54:09Z</time>
      </trkpt>
      <trkpt lat="45.1817" lon="6.47968">
        <ele>1404.95</ele>
        <time>2016-08-13T08:54:14Z</time>
      </trkpt>
      <trkpt lat="45.18177" lon="6.47945">
        <ele>1404.76</ele>
        <time>2016-08-13T08:54:18Z</time>
      </trkpt>
      <trkpt lat="45.18189" lon="6.47922">
        <ele>1405.67</ele>
        <time>2016-08-13T08:54:23Z</time>
      </trkpt>
      <trkpt lat="45.18202" lon="6.47898">
        <ele>1406.96</ele>
        <time>2016-08-13T08:54:29Z</time>
      </trkpt>
      <trkpt lat="45.18214" lon="6.47875">
        <ele>1408.77</ele>
        <time>2016-08-13T08:54:36Z</time>
      </trkpt>
      <trkpt lat="45.18228" lon="6.47851">
        <ele>1410.21</ele>
        <time>2016-08-13T08:54:42Z</time>
      </trkpt>
      <trkpt lat="45.18243" lon="6.47832">
        <ele>1411.53</ele>
        <time>2016-08-13T08:54:48Z</time>
      </trkpt>
      <trkpt lat="45.18255" lon="6.47812">
        <ele>1412.76</ele>
        <time>2016-08-13T08:54:54Z</time>
      </trkpt>
      <trkpt lat="45.18261" lon="6.47787">
        <ele>1413.98</ele>
        <time>2016-08-13T08:55:00Z</time>
      </trkpt>
      <trkpt lat="45.18265" lon="6.47761">
        <ele>1415.06</ele>
        <time>2016-08-13T08:55:06Z</time>
      </trkpt>
      <trkpt lat="45.18272" lon="6.47734">
        <ele>1416.27</ele>
        <time>2016-08-13T08:55:12Z</time>
      </trkpt>
      <trkpt lat="45.1828" lon="6.4771">
        <ele>1417.79</ele>
        <time>2016-08-13T08:55:18Z</time>
      </trkpt>
      <trkpt lat="45.18296" lon="6.47692">
        <ele>1419.55</ele>
        <time>2016-08-13T08:55:25Z</time>
      </trkpt>
      <trkpt lat="45.18307" lon="6.4767">
        <ele>1420.19</ele>
        <time>2016-08-13T08:55:30Z</time>
      </trkpt>
      <trkpt lat="45.18308" lon="6.47642">
        <ele>1419.51</ele>
        <time>2016-08-13T08:55:34Z</time>
      </trkpt>
      <trkpt lat="45.18307" lon="6.47609">
        <ele>1418.56</ele>
        <time>2016-08-13T08:55:38Z</time>
      </trkpt>
      <trkpt lat="45.18311" lon="6.47584">
        <ele>1417.8</ele>
        <time>2016-08-13T08:55:41Z</time>
      </trkpt>
      <trkpt lat="45.18331" lon="6.47571">
        <ele>1416.08</ele>
        <time>2016-08-13T08:55:45Z</time>
      </trkpt>
      <trkpt lat="45.18349" lon="6.47571">
        <ele>1415.06</ele>
        <time>2016-08-13T08:55:47Z</time>
      </trkpt>
      <trkpt lat="45.18367" lon="6.4757">
        <ele>1414.03</ele>
        <time>2016-08-13T08:55:49Z</time>
      </trkpt>
      <trkpt lat="45.18389" lon="6.4755">
        <ele>1412.63</ele>
        <time>2016-08-13T08:55:52Z</time>
      </trkpt>
      <trkpt lat="45.18396" lon="6.47526">
        <ele>1411.38</ele>
        <time>2016-08-13T08:55:54Z</time>
      </trkpt>
      <trkpt lat="45.18401" lon="6.47501">
        <ele>1410.45</ele>
        <time>2016-08-13T08:55:56Z</time>
      </trkpt>
      <trkpt lat="45.18408" lon="6.47477">
        <ele>1409.96</ele>
        <time>2016-08-13T08:55:58Z</time>
      </trkpt>
      <trkpt lat="45.18422" lon="6.47452">
        <ele>1409.36</ele>
        <time>2016-08-13T08:56:01Z</time>
      </trkpt>
      <trkpt lat="45.1844" lon="6.47436">
        <ele>1408.73</ele>
        <time>2016-08-13T08:56:05Z</time>
      </trkpt>
      <trkpt lat="45.18445" lon="6.47408">
        <ele>1408.12</ele>
        <time>2016-08-13T08:56:11Z</time>
      </trkpt>
      <trkpt lat="45.18451" lon="6.47381">
        <ele>1409.58</ele>
        <time>2016-08-13T08:56:16Z</time>
      </trkpt>
      <trkpt lat="45.18463" lon="6.4736">
        <ele>1411.22</ele>
        <time>2016-08-13T08:56:21Z</time>
      </trkpt>
      <trkpt lat="45.18468" lon="6.47335">
        <ele>1412.64</ele>
        <time>2016-08-13T08:56:27Z</time>
      </trkpt>
      <trkpt lat="45.18462" lon="6.47311">
        <ele>1414.51</ele>
        <time>2016-08-13T08:56:35Z</time>
      </trkpt>
      <trkpt lat="45.1845" lon="6.47335">
        <ele>1416.06</ele>
        <time>2016-08-13T08:56:41Z</time>
      </trkpt>
      <trkpt lat="45.18436" lon="6.47354">
        <ele>1417.42</ele>
        <time>2016-08-13T08:56:47Z</time>
      </trkpt>
      <trkpt lat="45.18422" lon="6.47372">
        <ele>1419.06</ele>
        <time>2016-08-13T08:56:53Z</time>
      </trkpt>
      <trkpt lat="45.18408" lon="6.47389">
        <ele>1420.85</ele>
        <time>2016-08-13T08:56:59Z</time>
      </trkpt>
      <trkpt lat="45.18394" lon="6.47408">
        <ele>1422.86</ele>
        <time>2016-08-13T08:57:06Z</time>
      </trkpt>
      <trkpt lat="45.18381" lon="6.47426">
        <ele>1424.75</ele>
        <time>2016-08-13T08:57:13Z</time>
      </trkpt>
      <trkpt lat="45.18368" lon="6.47447">
        <ele>1426.5</ele>
        <time>2016-08-13T08:57:20Z</time>
      </trkpt>
      <trkpt lat="45.18358" lon="6.47471">
        <ele>1428.02</ele>
        <time>2016-08-13T08:57:27Z</time>
      </trkpt>
      <trkpt lat="45.18351" lon="6.47499">
        <ele>1429.62</ele>
        <time>2016-08-13T08:57:34Z</time>
      </trkpt>
      <trkpt lat="45.18344" lon="6.47523">
        <ele>1431.06</ele>
        <time>2016-08-13T08:57:40Z</time>
      </trkpt>
      <trkpt lat="45.18338" lon="6.47499">
        <ele>1433.17</ele>
        <time>2016-08-13T08:57:50Z</time>
      </trkpt>
      <trkpt lat="45.18341" lon="6.4747">
        <ele>1434.41</ele>
        <time>2016-08-13T08:57:56Z</time>
      </trkpt>
      <trkpt lat="45.18347" lon="6.47443">
        <ele>1435.74</ele>
        <time>2016-08-13T08:58:02Z</time>
      </trkpt>
      <trkpt lat="45.18349" lon="6.47417">
        <ele>1436.91</ele>
        <time>2016-08-13T08:58:08Z</time>
      </trkpt>
      <trkpt lat="45.18355" lon="6.47391">
        <ele>1438.44</ele>
        <time>2016-08-13T08:58:14Z</time>
      </trkpt>
      <trkpt lat="45.18366" lon="6.47368">
        <ele>1439.41</ele>
        <time>2016-08-13T08:58:20Z</time>
      </trkpt>
      <trkpt lat="45.18377" lon="6.47347">
        <ele>1440.34</ele>
        <time>2016-08-13T08:58:26Z</time>
      </trkpt>
      <trkpt lat="45.18389" lon="6.47324">
        <ele>1440.77</ele>
        <time>2016-08-13T08:58:33Z</time>
      </trkpt>
      <trkpt lat="45.18399" lon="6.47297">
        <ele>1441.29</ele>
        <time>2016-08-13T08:58:39Z</time>
      </trkpt>
      <trkpt lat="45.18411" lon="6.47277">
        <ele>1442.18</ele>
        <time>2016-08-13T08:58:45Z</time>
      </trkpt>
      <trkpt lat="45.18427" lon="6.47259">
        <ele>1444.11</ele>
        <time>2016-08-13T08:58:53Z</time>
      </trkpt>
      <trkpt lat="45.18441" lon="6.4724">
        <ele>1445.82</ele>
        <time>2016-08-13T08:59:00Z</time>
      </trkpt>
      <trkpt lat="45.18457" lon="6.47221">
        <ele>1447.87</ele>
        <time>2016-08-13T08:59:07Z</time>
      </trkpt>
      <trkpt lat="45.1847" lon="6.47199">
        <ele>1450.22</ele>
        <time>2016-08-13T08:59:15Z</time>
      </trkpt>
      <trkpt lat="45.1848" lon="6.47177">
        <ele>1451.84</ele>
        <time>2016-08-13T08:59:22Z</time>
      </trkpt>
      <trkpt lat="45.18492" lon="6.47154">
        <ele>1452.59</ele>
        <time>2016-08-13T08:59:28Z</time>
      </trkpt>
      <trkpt lat="45.18505" lon="6.47135">
        <ele>1453.03</ele>
        <time>2016-08-13T08:59:34Z</time>
      </trkpt>
      <trkpt lat="45.18513" lon="6.47108">
        <ele>1453.68</ele>
        <time>2016-08-13T08:59:40Z</time>
      </trkpt>
      <trkpt lat="45.18517" lon="6.47081">
        <ele>1452.79</ele>
        <time>2016-08-13T08:59:44Z</time>
      </trkpt>
      <trkpt lat="45.18531" lon="6.47056">
        <ele>1452.28</ele>
        <time>2016-08-13T08:59:48Z</time>
      </trkpt>
      <trkpt lat="45.18547" lon="6.47039">
        <ele>1451.54</ele>
        <time>2016-08-13T08:59:51Z</time>
      </trkpt>
      <trkpt lat="45.18561" lon="6.47021">
        <ele>1450.86</ele>
        <time>2016-08-13T08:59:54Z</time>
      </trkpt>
      <trkpt lat="45.18577" lon="6.47003">
        <ele>1449.47</ele>
        <time>2016-08-13T09:00:30Z</time>
      </trkpt>
      <trkpt lat="45.18593" lon="6.4699">
        <ele>1448.7</ele>
        <time>2016-08-13T09:00:34Z</time>
      </trkpt>
      <trkpt lat="45.1861" lon="6.46978">
        <ele>1446.44</ele>
        <time>2016-08-13T09:00:38Z</time>
      </trkpt>
      <trkpt lat="45.18632" lon="6.4696">
        <ele>1444.01</ele>
        <time>2016-08-13T09:00:42Z</time>
      </trkpt>
      <trkpt lat="45.18651" lon="6.46946">
        <ele>1441.46</ele>
        <time>2016-08-13T09:00:45Z</time>
      </trkpt>
      <trkpt lat="45.18671" lon="6.46928">
        <ele>1439.89</ele>
        <time>2016-08-13T09:00:48Z</time>
      </trkpt>
      <trkpt lat="45.1869" lon="6.46921">
        <ele>1440.9</ele>
        <time>2016-08-13T09:00:52Z</time>
      </trkpt>
      <trkpt lat="45.18706" lon="6.46909">
        <ele>1442.29</ele>
        <time>2016-08-13T09:00:57Z</time>
      </trkpt>
      <trkpt lat="45.18689" lon="6.46919">
        <ele>1442.14</ele>
        <time>2016-08-13T09:01:23Z</time>
      </trkpt>
      <trkpt lat="45.18668" lon="6.46927">
        <ele>1441.16</ele>
        <time>2016-08-13T09:01:27Z</time>
      </trkpt>
      <trkpt lat="45.18649" lon="6.46943">
        <ele>1439.93</ele>
        <time>2016-08-13T09:01:31Z</time>
      </trkpt>
      <trkpt lat="45.18631" lon="6.46957">
        <ele>1441.95</ele>
        <time>2016-08-13T09:01:36Z</time>
      </trkpt>
      <trkpt lat="45.18613" lon="6.46973">
        <ele>1444.38</ele>
        <time>2016-08-13T09:01:42Z</time>
      </trkpt>
      <trkpt lat="45.18596" lon="6.46988">
        <ele>1447.29</ele>
        <time>2016-08-13T09:01:50Z</time>
      </trkpt>
      <trkpt lat="45.1858" lon="6.47002">
        <ele>1449.34</ele>
        <time>2016-08-13T09:01:57Z</time>
      </trkpt>
      <trkpt lat="45.18564" lon="6.4702">
        <ele>1450.29</ele>
        <time>2016-08-13T09:02:03Z</time>
      </trkpt>
      <trkpt lat="45.18547" lon="6.47034">
        <ele>1450.63</ele>
        <time>2016-08-13T09:02:09Z</time>
      </trkpt>
      <trkpt lat="45.18534" lon="6.47052">
        <ele>1451.26</ele>
        <time>2016-08-13T09:02:14Z</time>
      </trkpt>
      <trkpt lat="45.1852" lon="6.47071">
        <ele>1452.55</ele>
        <time>2016-08-13T09:02:21Z</time>
      </trkpt>
      <trkpt lat="45.18516" lon="6.47099">
        <ele>1452.66</ele>
        <time>2016-08-13T09:02:53Z</time>
      </trkpt>
      <trkpt lat="45.18513" lon="6.47127">
        <ele>1453.46</ele>
        <time>2016-08-13T09:02:58Z</time>
      </trkpt>
      <trkpt lat="45.18504" lon="6.47148">
        <ele>1453.62</ele>
        <time>2016-08-13T09:03:03Z</time>
      </trkpt>
      <trkpt lat="45.18492" lon="6.4717">
        <ele>1452.7</ele>
        <time>2016-08-13T09:03:09Z</time>
      </trkpt>
      <trkpt lat="45.18475" lon="6.4718">
        <ele>1452.82</ele>
        <time>2016-08-13T09:03:25Z</time>
      </trkpt>
      <trkpt lat="45.18461" lon="6.47201">
        <ele>1454.42</ele>
        <time>2016-08-13T09:03:31Z</time>
      </trkpt>
      <trkpt lat="45.1846" lon="6.47175">
        <ele>1458.53</ele>
        <time>2016-08-13T09:03:48Z</time>
      </trkpt>
      <trkpt lat="45.1847" lon="6.47153">
        <ele>1461.77</ele>
        <time>2016-08-13T09:03:56Z</time>
      </trkpt>
      <trkpt lat="45.18482" lon="6.47132">
        <ele>1462.75</ele>
        <time>2016-08-13T09:04:08Z</time>
      </trkpt>
      <trkpt lat="45.18493" lon="6.4711">
        <ele>1462.5</ele>
        <time>2016-08-13T09:04:13Z</time>
      </trkpt>
      <trkpt lat="45.18496" lon="6.47081">
        <ele>1463.59</ele>
        <time>2016-08-13T09:04:19Z</time>
      </trkpt>
      <trkpt lat="45.18497" lon="6.47053">
        <ele>1465.65</ele>
        <time>2016-08-13T09:04:26Z</time>
      </trkpt>
      <trkpt lat="45.18507" lon="6.47029">
        <ele>1467.97</ele>
        <time>2016-08-13T09:04:33Z</time>
      </trkpt>
      <trkpt lat="45.18516" lon="6.47007">
        <ele>1470.98</ele>
        <time>2016-08-13T09:04:41Z</time>
      </trkpt>
      <trkpt lat="45.1853" lon="6.46987">
        <ele>1472.98</ele>
        <time>2016-08-13T09:04:49Z</time>
      </trkpt>
      <trkpt lat="45.18544" lon="6.46968">
        <ele>1473.88</ele>
        <time>2016-08-13T09:04:55Z</time>
      </trkpt>
      <trkpt lat="45.18562" lon="6.4695">
        <ele>1474.45</ele>
        <time>2016-08-13T09:05:01Z</time>
      </trkpt>
      <trkpt lat="45.18578" lon="6.46938">
        <ele>1474.99</ele>
        <time>2016-08-13T09:05:06Z</time>
      </trkpt>
      <trkpt lat="45.18592" lon="6.46921">
        <ele>1476.86</ele>
        <time>2016-08-13T09:05:12Z</time>
      </trkpt>
      <trkpt lat="45.18603" lon="6.46898">
        <ele>1480.25</ele>
        <time>2016-08-13T09:05:21Z</time>
      </trkpt>
      <trkpt lat="45.1862" lon="6.46881">
        <ele>1482.66</ele>
        <time>2016-08-13T09:05:29Z</time>
      </trkpt>
      <trkpt lat="45.18634" lon="6.46866">
        <ele>1483.73</ele>
        <time>2016-08-13T09:05:36Z</time>
      </trkpt>
      <trkpt lat="45.1865" lon="6.46846">
        <ele>1485.12</ele>
        <time>2016-08-13T09:05:45Z</time>
      </trkpt>
      <trkpt lat="45.18662" lon="6.46826">
        <ele>1486.83</ele>
        <time>2016-08-13T09:05:53Z</time>
      </trkpt>
      <trkpt lat="45.18678" lon="6.46812">
        <ele>1488.87</ele>
        <time>2016-08-13T09:05:59Z</time>
      </trkpt>
      <trkpt lat="45.18696" lon="6.46798">
        <ele>1491.78</ele>
        <time>2016-08-13T09:06:07Z</time>
      </trkpt>
      <trkpt lat="45.18716" lon="6.46789">
        <ele>1493.05</ele>
        <time>2016-08-13T09:06:14Z</time>
      </trkpt>
      <trkpt lat="45.18729" lon="6.4677">
        <ele>1494.06</ele>
        <time>2016-08-13T09:06:20Z</time>
      </trkpt>
      <trkpt lat="45.18738" lon="6.46747">
        <ele>1496.83</ele>
        <time>2016-08-13T09:06:28Z</time>
      </trkpt>
      <trkpt lat="45.18745" lon="6.46722">
        <ele>1499.97</ele>
        <time>2016-08-13T09:06:38Z</time>
      </trkpt>
      <trkpt lat="45.18752" lon="6.46697">
        <ele>1501.48</ele>
        <time>2016-08-13T09:06:46Z</time>
      </trkpt>
      <trkpt lat="45.18763" lon="6.46675">
        <ele>1502.63</ele>
        <time>2016-08-13T09:06:53Z</time>
      </trkpt>
      <trkpt lat="45.18772" lon="6.46652">
        <ele>1503.3</ele>
        <time>2016-08-13T09:06:59Z</time>
      </trkpt>
      <trkpt lat="45.18781" lon="6.46627">
        <ele>1503.16</ele>
        <time>2016-08-13T09:07:05Z</time>
      </trkpt>
      <trkpt lat="45.18785" lon="6.46601">
        <ele>1502.96</ele>
        <time>2016-08-13T09:07:10Z</time>
      </trkpt>
      <trkpt lat="45.18793" lon="6.46577">
        <ele>1503.42</ele>
        <time>2016-08-13T09:07:15Z</time>
      </trkpt>
      <trkpt lat="45.18798" lon="6.4655">
        <ele>1505.46</ele>
        <time>2016-08-13T09:07:22Z</time>
      </trkpt>
      <trkpt lat="45.18783" lon="6.46564">
        <ele>1509.31</ele>
        <time>2016-08-13T09:07:42Z</time>
      </trkpt>
      <trkpt lat="45.18771" lon="6.46589">
        <ele>1509</ele>
        <time>2016-08-13T09:07:48Z</time>
      </trkpt>
      <trkpt lat="45.18757" lon="6.46606">
        <ele>1509.72</ele>
        <time>2016-08-13T09:07:53Z</time>
      </trkpt>
      <trkpt lat="45.18741" lon="6.46626">
        <ele>1511.87</ele>
        <time>2016-08-13T09:08:00Z</time>
      </trkpt>
      <trkpt lat="45.18724" lon="6.46636">
        <ele>1514.14</ele>
        <time>2016-08-13T09:08:07Z</time>
      </trkpt>
      <trkpt lat="45.18712" lon="6.46656">
        <ele>1515.81</ele>
        <time>2016-08-13T09:08:14Z</time>
      </trkpt>
      <trkpt lat="45.18699" lon="6.4668">
        <ele>1516.77</ele>
        <time>2016-08-13T09:08:21Z</time>
      </trkpt>
      <trkpt lat="45.18688" lon="6.46703">
        <ele>1518.11</ele>
        <time>2016-08-13T09:08:28Z</time>
      </trkpt>
      <trkpt lat="45.18681" lon="6.46726">
        <ele>1519.73</ele>
        <time>2016-08-13T09:08:35Z</time>
      </trkpt>
      <trkpt lat="45.18665" lon="6.46741">
        <ele>1522.82</ele>
        <time>2016-08-13T09:08:45Z</time>
      </trkpt>
      <trkpt lat="45.18646" lon="6.46741">
        <ele>1525.23</ele>
        <time>2016-08-13T09:08:54Z</time>
      </trkpt>
      <trkpt lat="45.18627" lon="6.46746">
        <ele>1527.31</ele>
        <time>2016-08-13T09:09:01Z</time>
      </trkpt>
      <trkpt lat="45.1861" lon="6.46756">
        <ele>1530.52</ele>
        <time>2016-08-13T09:09:10Z</time>
      </trkpt>
      <trkpt lat="45.18616" lon="6.46732">
        <ele>1534.99</ele>
        <time>2016-08-13T09:10:00Z</time>
      </trkpt>
      <trkpt lat="45.18633" lon="6.46716">
        <ele>1535.48</ele>
        <time>2016-08-13T09:10:07Z</time>
      </trkpt>
      <trkpt lat="45.18639" lon="6.46692">
        <ele>1535.48</ele>
        <time>2016-08-13T09:10:13Z</time>
      </trkpt>
      <trkpt lat="45.18641" lon="6.46665">
        <ele>1536.59</ele>
        <time>2016-08-13T09:10:20Z</time>
      </trkpt>
      <trkpt lat="45.18645" lon="6.46639">
        <ele>1537.86</ele>
        <time>2016-08-13T09:10:27Z</time>
      </trkpt>
      <trkpt lat="45.18651" lon="6.46611">
        <ele>1539.03</ele>
        <time>2016-08-13T09:10:34Z</time>
      </trkpt>
      <trkpt lat="45.1865" lon="6.46582">
        <ele>1540.67</ele>
        <time>2016-08-13T09:10:42Z</time>
      </trkpt>
      <trkpt lat="45.18656" lon="6.46555">
        <ele>1542.52</ele>
        <time>2016-08-13T09:10:50Z</time>
      </trkpt>
      <trkpt lat="45.18661" lon="6.4653">
        <ele>1545.08</ele>
        <time>2016-08-13T09:10:59Z</time>
      </trkpt>
      <trkpt lat="45.18665" lon="6.46502">
        <ele>1547.92</ele>
        <time>2016-08-13T09:11:08Z</time>
      </trkpt>
      <trkpt lat="45.18667" lon="6.46477">
        <ele>1551.64</ele>
        <time>2016-08-13T09:11:18Z</time>
      </trkpt>
      <trkpt lat="45.18667" lon="6.46448">
        <ele>1555.59</ele>
        <time>2016-08-13T09:11:27Z</time>
      </trkpt>
      <trkpt lat="45.18672" lon="6.46421">
        <ele>1558.98</ele>
        <time>2016-08-13T09:11:36Z</time>
      </trkpt>
      <trkpt lat="45.18684" lon="6.464">
        <ele>1562.43</ele>
        <time>2016-08-13T09:11:47Z</time>
      </trkpt>
      <trkpt lat="45.18702" lon="6.46387">
        <ele>1565.52</ele>
        <time>2016-08-13T09:11:57Z</time>
      </trkpt>
      <trkpt lat="45.18718" lon="6.46375">
        <ele>1567.9</ele>
        <time>2016-08-13T09:12:06Z</time>
      </trkpt>
      <trkpt lat="45.18729" lon="6.46354">
        <ele>1569.92</ele>
        <time>2016-08-13T09:12:14Z</time>
      </trkpt>
      <trkpt lat="45.18742" lon="6.46334">
        <ele>1572.17</ele>
        <time>2016-08-13T09:12:23Z</time>
      </trkpt>
      <trkpt lat="45.18757" lon="6.46315">
        <ele>1574.02</ele>
        <time>2016-08-13T09:12:32Z</time>
      </trkpt>
      <trkpt lat="45.18775" lon="6.46301">
        <ele>1575.62</ele>
        <time>2016-08-13T09:12:40Z</time>
      </trkpt>
      <trkpt lat="45.18793" lon="6.46292">
        <ele>1576.61</ele>
        <time>2016-08-13T09:12:47Z</time>
      </trkpt>
      <trkpt lat="45.1881" lon="6.46287">
        <ele>1577.69</ele>
        <time>2016-08-13T09:12:54Z</time>
      </trkpt>
      <trkpt lat="45.18829" lon="6.46275">
        <ele>1578.43</ele>
        <time>2016-08-13T09:13:00Z</time>
      </trkpt>
      <trkpt lat="45.18847" lon="6.46257">
        <ele>1578.91</ele>
        <time>2016-08-13T09:13:07Z</time>
      </trkpt>
      <trkpt lat="45.18867" lon="6.4625">
        <ele>1579.1</ele>
        <time>2016-08-13T09:13:11Z</time>
      </trkpt>
      <trkpt lat="45.18885" lon="6.4624">
        <ele>1579.14</ele>
        <time>2016-08-13T09:13:15Z</time>
      </trkpt>
      <trkpt lat="45.18899" lon="6.46222">
        <ele>1579.4</ele>
        <time>2016-08-13T09:13:19Z</time>
      </trkpt>
      <trkpt lat="45.18912" lon="6.46203">
        <ele>1580.54</ele>
        <time>2016-08-13T09:13:24Z</time>
      </trkpt>
      <trkpt lat="45.18924" lon="6.4618">
        <ele>1582.28</ele>
        <time>2016-08-13T09:13:31Z</time>
      </trkpt>
      <trkpt lat="45.18925" lon="6.46151">
        <ele>1583.47</ele>
        <time>2016-08-13T09:13:38Z</time>
      </trkpt>
      <trkpt lat="45.18926" lon="6.46125">
        <ele>1583.73</ele>
        <time>2016-08-13T09:13:43Z</time>
      </trkpt>
      <trkpt lat="45.18934" lon="6.46098">
        <ele>1584.37</ele>
        <time>2016-08-13T09:13:49Z</time>
      </trkpt>
      <trkpt lat="45.18949" lon="6.4608">
        <ele>1585.56</ele>
        <time>2016-08-13T09:13:55Z</time>
      </trkpt>
      <trkpt lat="45.18964" lon="6.46066">
        <ele>1587.47</ele>
        <time>2016-08-13T09:14:01Z</time>
      </trkpt>
      <trkpt lat="45.18978" lon="6.4605">
        <ele>1589.74</ele>
        <time>2016-08-13T09:14:08Z</time>
      </trkpt>
      <trkpt lat="45.18991" lon="6.46028">
        <ele>1594.09</ele>
        <time>2016-08-13T09:14:18Z</time>
      </trkpt>
      <trkpt lat="45.18998" lon="6.46002">
        <ele>1597.41</ele>
        <time>2016-08-13T09:14:28Z</time>
      </trkpt>
      <trkpt lat="45.18994" lon="6.45974">
        <ele>1599.72</ele>
        <time>2016-08-13T09:14:37Z</time>
      </trkpt>
      <trkpt lat="45.18986" lon="6.45949">
        <ele>1601.65</ele>
        <time>2016-08-13T09:14:45Z</time>
      </trkpt>
      <trkpt lat="45.18978" lon="6.45923">
        <ele>1604.27</ele>
        <time>2016-08-13T09:14:54Z</time>
      </trkpt>
      <trkpt lat="45.18971" lon="6.45898">
        <ele>1606.56</ele>
        <time>2016-08-13T09:15:03Z</time>
      </trkpt>
      <trkpt lat="45.18968" lon="6.45872">
        <ele>1608</ele>
        <time>2016-08-13T09:15:11Z</time>
      </trkpt>
      <trkpt lat="45.18969" lon="6.45845">
        <ele>1609.78</ele>
        <time>2016-08-13T09:15:19Z</time>
      </trkpt>
      <trkpt lat="45.18975" lon="6.4582">
        <ele>1612.39</ele>
        <time>2016-08-13T09:15:28Z</time>
      </trkpt>
      <trkpt lat="45.18984" lon="6.45794">
        <ele>1613.42</ele>
        <time>2016-08-13T09:15:36Z</time>
      </trkpt>
      <trkpt lat="45.18989" lon="6.45767">
        <ele>1614.54</ele>
        <time>2016-08-13T09:15:44Z</time>
      </trkpt>
      <trkpt lat="45.18987" lon="6.45739">
        <ele>1615.7</ele>
        <time>2016-08-13T09:15:51Z</time>
      </trkpt>
      <trkpt lat="45.18985" lon="6.45711">
        <ele>1617.82</ele>
        <time>2016-08-13T09:15:59Z</time>
      </trkpt>
      <trkpt lat="45.18996" lon="6.45689">
        <ele>1619.76</ele>
        <time>2016-08-13T09:16:07Z</time>
      </trkpt>
      <trkpt lat="45.19007" lon="6.45668">
        <ele>1622.31</ele>
        <time>2016-08-13T09:16:16Z</time>
      </trkpt>
      <trkpt lat="45.19014" lon="6.45643">
        <ele>1625.53</ele>
        <time>2016-08-13T09:16:25Z</time>
      </trkpt>
      <trkpt lat="45.19024" lon="6.45621">
        <ele>1629.6</ele>
        <time>2016-08-13T09:16:33Z</time>
      </trkpt>
      <trkpt lat="45.1903" lon="6.45596">
        <ele>1633.2</ele>
        <time>2016-08-13T09:16:42Z</time>
      </trkpt>
      <trkpt lat="45.19019" lon="6.45571">
        <ele>1636.73</ele>
        <time>2016-08-13T09:17:33Z</time>
      </trkpt>
      <trkpt lat="45.19007" lon="6.45551">
        <ele>1637.64</ele>
        <time>2016-08-13T09:17:41Z</time>
      </trkpt>
      <trkpt lat="45.18993" lon="6.4553">
        <ele>1637.67</ele>
        <time>2016-08-13T09:17:49Z</time>
      </trkpt>
      <trkpt lat="45.18978" lon="6.45516">
        <ele>1637.34</ele>
        <time>2016-08-13T09:17:54Z</time>
      </trkpt>
      <trkpt lat="45.18963" lon="6.45497">
        <ele>1636.96</ele>
        <time>2016-08-13T09:18:00Z</time>
      </trkpt>
      <trkpt lat="45.1895" lon="6.45473">
        <ele>1635.99</ele>
        <time>2016-08-13T09:18:05Z</time>
      </trkpt>
      <trkpt lat="45.18941" lon="6.45449">
        <ele>1635.49</ele>
        <time>2016-08-13T09:18:09Z</time>
      </trkpt>
      <trkpt lat="45.18941" lon="6.45415">
        <ele>1634.36</ele>
        <time>2016-08-13T09:18:13Z</time>
      </trkpt>
      <trkpt lat="45.18947" lon="6.45388">
        <ele>1633.32</ele>
        <time>2016-08-13T09:18:16Z</time>
      </trkpt>
      <trkpt lat="45.1896" lon="6.45368">
        <ele>1632.93</ele>
        <time>2016-08-13T09:18:19Z</time>
      </trkpt>
      <trkpt lat="45.18972" lon="6.45346">
        <ele>1632.52</ele>
        <time>2016-08-13T09:18:22Z</time>
      </trkpt>
      <trkpt lat="45.18984" lon="6.45322">
        <ele>1631.94</ele>
        <time>2016-08-13T09:18:25Z</time>
      </trkpt>
      <trkpt lat="45.18995" lon="6.453">
        <ele>1630.68</ele>
        <time>2016-08-13T09:18:28Z</time>
      </trkpt>
      <trkpt lat="45.19008" lon="6.45278">
        <ele>1630.17</ele>
        <time>2016-08-13T09:18:33Z</time>
      </trkpt>
      <trkpt lat="45.19022" lon="6.45254">
        <ele>1629.11</ele>
        <time>2016-08-13T09:18:37Z</time>
      </trkpt>
      <trkpt lat="45.19039" lon="6.45239">
        <ele>1628.12</ele>
        <time>2016-08-13T09:18:41Z</time>
      </trkpt>
      <trkpt lat="45.19048" lon="6.45209">
        <ele>1627.12</ele>
        <time>2016-08-13T09:18:45Z</time>
      </trkpt>
      <trkpt lat="45.19063" lon="6.45194">
        <ele>1625.12</ele>
        <time>2016-08-13T09:18:48Z</time>
      </trkpt>
      <trkpt lat="45.19057" lon="6.45167">
        <ele>1623.73</ele>
        <time>2016-08-13T09:18:53Z</time>
      </trkpt>
      <trkpt lat="45.19046" lon="6.45136">
        <ele>1621.28</ele>
        <time>2016-08-13T09:19:12Z</time>
      </trkpt>
      <trkpt lat="45.1904" lon="6.4511">
        <ele>1619.98</ele>
        <time>2016-08-13T09:19:15Z</time>
      </trkpt>
      <trkpt lat="45.19031" lon="6.45082">
        <ele>1617.63</ele>
        <time>2016-08-13T09:19:18Z</time>
      </trkpt>
      <trkpt lat="45.19027" lon="6.45049">
        <ele>1614.52</ele>
        <time>2016-08-13T09:19:21Z</time>
      </trkpt>
      <trkpt lat="45.19029" lon="6.45017">
        <ele>1611.41</ele>
        <time>2016-08-13T09:19:24Z</time>
      </trkpt>
      <trkpt lat="45.19032" lon="6.44989">
        <ele>1610</ele>
        <time>2016-08-13T09:19:27Z</time>
      </trkpt>
      <trkpt lat="45.19023" lon="6.4496">
        <ele>1607.93</ele>
        <time>2016-08-13T09:19:30Z</time>
      </trkpt>
      <trkpt lat="45.1902" lon="6.44932">
        <ele>1605.13</ele>
        <time>2016-08-13T09:19:33Z</time>
      </trkpt>
      <trkpt lat="45.19026" lon="6.44897">
        <ele>1602.55</ele>
        <time>2016-08-13T09:19:36Z</time>
      </trkpt>
      <trkpt lat="45.19025" lon="6.44869">
        <ele>1601.07</ele>
        <time>2016-08-13T09:19:39Z</time>
      </trkpt>
      <trkpt lat="45.19022" lon="6.44839">
        <ele>1600.54</ele>
        <time>2016-08-13T09:19:42Z</time>
      </trkpt>
      <trkpt lat="45.19021" lon="6.44805">
        <ele>1597.68</ele>
        <time>2016-08-13T09:19:45Z</time>
      </trkpt>
      <trkpt lat="45.19014" lon="6.44773">
        <ele>1594.97</ele>
        <time>2016-08-13T09:19:49Z</time>
      </trkpt>
      <trkpt lat="45.1901" lon="6.4474">
        <ele>1592.48</ele>
        <time>2016-08-13T09:19:52Z</time>
      </trkpt>
      <trkpt lat="45.19007" lon="6.44709">
        <ele>1590.48</ele>
        <time>2016-08-13T09:19:55Z</time>
      </trkpt>
      <trkpt lat="45.19015" lon="6.44677">
        <ele>1588</ele>
        <time>2016-08-13T09:19:58Z</time>
      </trkpt>
      <trkpt lat="45.1903" lon="6.44646">
        <ele>1586.54</ele>
        <time>2016-08-13T09:20:01Z</time>
      </trkpt>
      <trkpt lat="45.19039" lon="6.44612">
        <ele>1584.55</ele>
        <time>2016-08-13T09:20:04Z</time>
      </trkpt>
      <trkpt lat="45.19038" lon="6.44575">
        <ele>1582.01</ele>
        <time>2016-08-13T09:20:07Z</time>
      </trkpt>
      <trkpt lat="45.19039" lon="6.44545">
        <ele>1579.3</ele>
        <time>2016-08-13T09:20:10Z</time>
      </trkpt>
      <trkpt lat="45.19046" lon="6.44512">
        <ele>1577.45</ele>
        <time>2016-08-13T09:20:13Z</time>
      </trkpt>
      <trkpt lat="45.19047" lon="6.44486">
        <ele>1575.63</ele>
        <time>2016-08-13T09:20:16Z</time>
      </trkpt>
      <trkpt lat="45.19042" lon="6.44453">
        <ele>1573.79</ele>
        <time>2016-08-13T09:20:19Z</time>
      </trkpt>
      <trkpt lat="45.19045" lon="6.44424">
        <ele>1572.93</ele>
        <time>2016-08-13T09:20:22Z</time>
      </trkpt>
      <trkpt lat="45.19042" lon="6.44398">
        <ele>1572.22</ele>
        <time>2016-08-13T09:20:42Z</time>
      </trkpt>
      <trkpt lat="45.19039" lon="6.44372">
        <ele>1574.71</ele>
        <time>2016-08-13T09:21:02Z</time>
      </trkpt>
      <trkpt lat="45.19025" lon="6.44353">
        <ele>1576.54</ele>
        <time>2016-08-13T09:21:12Z</time>
      </trkpt>
      <trkpt lat="45.19022" lon="6.44325">
        <ele>1579.71</ele>
        <time>2016-08-13T09:21:21Z</time>
      </trkpt>
      <trkpt lat="45.19004" lon="6.44314">
        <ele>1582.9</ele>
        <time>2016-08-13T09:21:31Z</time>
      </trkpt>
      <trkpt lat="45.18984" lon="6.44315">
        <ele>1585.67</ele>
        <time>2016-08-13T09:21:40Z</time>
      </trkpt>
      <trkpt lat="45.18964" lon="6.44319">
        <ele>1588.28</ele>
        <time>2016-08-13T09:21:49Z</time>
      </trkpt>
      <trkpt lat="45.18944" lon="6.44321">
        <ele>1591.03</ele>
        <time>2016-08-13T09:21:58Z</time>
      </trkpt>
      <trkpt lat="45.18925" lon="6.44321">
        <ele>1592.34</ele>
        <time>2016-08-13T09:22:06Z</time>
      </trkpt>
      <trkpt lat="45.18906" lon="6.44324">
        <ele>1594.04</ele>
        <time>2016-08-13T09:22:14Z</time>
      </trkpt>
      <trkpt lat="45.18887" lon="6.44323">
        <ele>1595.38</ele>
        <time>2016-08-13T09:22:24Z</time>
      </trkpt>
      <trkpt lat="45.18866" lon="6.44325">
        <ele>1596.86</ele>
        <time>2016-08-13T09:22:33Z</time>
      </trkpt>
      <trkpt lat="45.18848" lon="6.44329">
        <ele>1598.28</ele>
        <time>2016-08-13T09:22:40Z</time>
      </trkpt>
      <trkpt lat="45.1883" lon="6.44333">
        <ele>1599.51</ele>
        <time>2016-08-13T09:22:48Z</time>
      </trkpt>
      <trkpt lat="45.18811" lon="6.44337">
        <ele>1600.76</ele>
        <time>2016-08-13T09:22:56Z</time>
      </trkpt>
      <trkpt lat="45.18792" lon="6.44343">
        <ele>1603.43</ele>
        <time>2016-08-13T09:23:06Z</time>
      </trkpt>
      <trkpt lat="45.18774" lon="6.4435">
        <ele>1605.68</ele>
        <time>2016-08-13T09:23:16Z</time>
      </trkpt>
      <trkpt lat="45.18757" lon="6.44358">
        <ele>1608.22</ele>
        <time>2016-08-13T09:23:25Z</time>
      </trkpt>
      <trkpt lat="45.18739" lon="6.44364">
        <ele>1611.65</ele>
        <time>2016-08-13T09:23:33Z</time>
      </trkpt>
      <trkpt lat="45.18722" lon="6.4437">
        <ele>1615.77</ele>
        <time>2016-08-13T09:23:42Z</time>
      </trkpt>
      <trkpt lat="45.18702" lon="6.44375">
        <ele>1619.02</ele>
        <time>2016-08-13T09:23:51Z</time>
      </trkpt>
      <trkpt lat="45.18682" lon="6.44379">
        <ele>1621.93</ele>
        <time>2016-08-13T09:24:00Z</time>
      </trkpt>
      <trkpt lat="45.18663" lon="6.44385">
        <ele>1623.8</ele>
        <time>2016-08-13T09:24:09Z</time>
      </trkpt>
      <trkpt lat="45.18644" lon="6.4439">
        <ele>1625.06</ele>
        <time>2016-08-13T09:24:17Z</time>
      </trkpt>
      <trkpt lat="45.18625" lon="6.44393">
        <ele>1625.86</ele>
        <time>2016-08-13T09:24:24Z</time>
      </trkpt>
      <trkpt lat="45.18608" lon="6.44401">
        <ele>1627.03</ele>
        <time>2016-08-13T09:24:31Z</time>
      </trkpt>
      <trkpt lat="45.1859" lon="6.44411">
        <ele>1628.94</ele>
        <time>2016-08-13T09:24:39Z</time>
      </trkpt>
      <trkpt lat="45.18572" lon="6.44419">
        <ele>1630.69</ele>
        <time>2016-08-13T09:24:47Z</time>
      </trkpt>
      <trkpt lat="45.18554" lon="6.44426">
        <ele>1632.35</ele>
        <time>2016-08-13T09:24:55Z</time>
      </trkpt>
      <trkpt lat="45.18535" lon="6.44433">
        <ele>1634.7</ele>
        <time>2016-08-13T09:25:04Z</time>
      </trkpt>
      <trkpt lat="45.18515" lon="6.44442">
        <ele>1636.63</ele>
        <time>2016-08-13T09:25:14Z</time>
      </trkpt>
      <trkpt lat="45.18496" lon="6.44448">
        <ele>1637.85</ele>
        <time>2016-08-13T09:25:22Z</time>
      </trkpt>
      <trkpt lat="45.18479" lon="6.44456">
        <ele>1638.93</ele>
        <time>2016-08-13T09:25:29Z</time>
      </trkpt>
      <trkpt lat="45.1846" lon="6.44464">
        <ele>1639.69</ele>
        <time>2016-08-13T09:25:36Z</time>
      </trkpt>
      <trkpt lat="45.18443" lon="6.44474">
        <ele>1639.81</ele>
        <time>2016-08-13T09:25:42Z</time>
      </trkpt>
      <trkpt lat="45.18427" lon="6.44485">
        <ele>1641.14</ele>
        <time>2016-08-13T09:25:49Z</time>
      </trkpt>
      <trkpt lat="45.1841" lon="6.44494">
        <ele>1642.45</ele>
        <time>2016-08-13T09:25:56Z</time>
      </trkpt>
      <trkpt lat="45.18391" lon="6.44501">
        <ele>1645.2</ele>
        <time>2016-08-13T09:26:03Z</time>
      </trkpt>
      <trkpt lat="45.18374" lon="6.44509">
        <ele>1648.01</ele>
        <time>2016-08-13T09:26:11Z</time>
      </trkpt>
      <trkpt lat="45.18356" lon="6.44514">
        <ele>1648.95</ele>
        <time>2016-08-13T09:26:19Z</time>
      </trkpt>
      <trkpt lat="45.18334" lon="6.44517">
        <ele>1648.05</ele>
        <time>2016-08-13T09:26:24Z</time>
      </trkpt>
      <trkpt lat="45.18315" lon="6.44518">
        <ele>1648.2</ele>
        <time>2016-08-13T09:26:29Z</time>
      </trkpt>
      <trkpt lat="45.18295" lon="6.44521">
        <ele>1648.78</ele>
        <time>2016-08-13T09:26:35Z</time>
      </trkpt>
      <trkpt lat="45.18276" lon="6.44525">
        <ele>1649.26</ele>
        <time>2016-08-13T09:26:41Z</time>
      </trkpt>
      <trkpt lat="45.18256" lon="6.44522">
        <ele>1650.38</ele>
        <time>2016-08-13T09:26:50Z</time>
      </trkpt>
      <trkpt lat="45.18236" lon="6.44516">
        <ele>1649.29</ele>
        <time>2016-08-13T09:27:04Z</time>
      </trkpt>
      <trkpt lat="45.18218" lon="6.4452">
        <ele>1648.34</ele>
        <time>2016-08-13T09:27:08Z</time>
      </trkpt>
      <trkpt lat="45.18197" lon="6.44526">
        <ele>1648.54</ele>
        <time>2016-08-13T09:27:14Z</time>
      </trkpt>
      <trkpt lat="45.18178" lon="6.44531">
        <ele>1647.8</ele>
        <time>2016-08-13T09:27:21Z</time>
      </trkpt>
      <trkpt lat="45.18159" lon="6.44537">
        <ele>1648.43</ele>
        <time>2016-08-13T09:27:29Z</time>
      </trkpt>
      <trkpt lat="45.18141" lon="6.44541">
        <ele>1649.47</ele>
        <time>2016-08-13T09:27:36Z</time>
      </trkpt>
      <trkpt lat="45.18121" lon="6.44548">
        <ele>1650.94</ele>
        <time>2016-08-13T09:27:44Z</time>
      </trkpt>
      <trkpt lat="45.18103" lon="6.44559">
        <ele>1652.29</ele>
        <time>2016-08-13T09:27:52Z</time>
      </trkpt>
      <trkpt lat="45.18086" lon="6.44572">
        <ele>1655.14</ele>
        <time>2016-08-13T09:28:01Z</time>
      </trkpt>
      <trkpt lat="45.18067" lon="6.44576">
        <ele>1658.24</ele>
        <time>2016-08-13T09:28:10Z</time>
      </trkpt>
      <trkpt lat="45.18048" lon="6.44575">
        <ele>1660.14</ele>
        <time>2016-08-13T09:28:19Z</time>
      </trkpt>
      <trkpt lat="45.18031" lon="6.44567">
        <ele>1663.24</ele>
        <time>2016-08-13T09:28:28Z</time>
      </trkpt>
      <trkpt lat="45.18013" lon="6.44565">
        <ele>1666.25</ele>
        <time>2016-08-13T09:28:38Z</time>
      </trkpt>
      <trkpt lat="45.17994" lon="6.44574">
        <ele>1667.22</ele>
        <time>2016-08-13T09:28:47Z</time>
      </trkpt>
      <trkpt lat="45.17975" lon="6.44579">
        <ele>1666.91</ele>
        <time>2016-08-13T09:28:53Z</time>
      </trkpt>
      <trkpt lat="45.17952" lon="6.44581">
        <ele>1665.72</ele>
        <time>2016-08-13T09:28:58Z</time>
      </trkpt>
      <trkpt lat="45.17933" lon="6.44579">
        <ele>1664.18</ele>
        <time>2016-08-13T09:29:01Z</time>
      </trkpt>
      <trkpt lat="45.17914" lon="6.44576">
        <ele>1663.09</ele>
        <time>2016-08-13T09:29:04Z</time>
      </trkpt>
      <trkpt lat="45.17891" lon="6.44574">
        <ele>1662.5</ele>
        <time>2016-08-13T09:29:08Z</time>
      </trkpt>
      <trkpt lat="45.17873" lon="6.44565">
        <ele>1664.44</ele>
        <time>2016-08-13T09:29:14Z</time>
      </trkpt>
      <trkpt lat="45.17856" lon="6.44555">
        <ele>1667.07</ele>
        <time>2016-08-13T09:29:22Z</time>
      </trkpt>
      <trkpt lat="45.17837" lon="6.4455">
        <ele>1667.77</ele>
        <time>2016-08-13T09:29:30Z</time>
      </trkpt>
      <trkpt lat="45.17819" lon="6.44545">
        <ele>1667.66</ele>
        <time>2016-08-13T09:30:34Z</time>
      </trkpt>
      <trkpt lat="45.17802" lon="6.44534">
        <ele>1667.26</ele>
        <time>2016-08-13T09:31:15Z</time>
      </trkpt>
      <trkpt lat="45.17785" lon="6.44544">
        <ele>1665.76</ele>
        <time>2016-08-13T09:32:14Z</time>
      </trkpt>
      <trkpt lat="45.17784" lon="6.4457">
        <ele>1665.38</ele>
        <time>2016-08-13T09:36:16Z</time>
      </trkpt>
      <trkpt lat="45.17781" lon="6.44596">
        <ele>1664.5</ele>
        <time>2016-08-13T09:36:22Z</time>
      </trkpt>
      <trkpt lat="45.17778" lon="6.44626">
        <ele>1663.17</ele>
        <time>2016-08-13T09:36:27Z</time>
      </trkpt>
      <trkpt lat="45.17771" lon="6.44652">
        <ele>1660.88</ele>
        <time>2016-08-13T09:36:30Z</time>
      </trkpt>
      <trkpt lat="45.1776" lon="6.44675">
        <ele>1659.15</ele>
        <time>2016-08-13T09:36:33Z</time>
      </trkpt>
      <trkpt lat="45.17743" lon="6.44693">
        <ele>1659.34</ele>
        <time>2016-08-13T09:36:37Z</time>
      </trkpt>
      <trkpt lat="45.17725" lon="6.44708">
        <ele>1659.09</ele>
        <time>2016-08-13T09:36:42Z</time>
      </trkpt>
      <trkpt lat="45.17702" lon="6.44714">
        <ele>1658.48</ele>
        <time>2016-08-13T09:36:47Z</time>
      </trkpt>
      <trkpt lat="45.17684" lon="6.44713">
        <ele>1657.17</ele>
        <time>2016-08-13T09:36:51Z</time>
      </trkpt>
      <trkpt lat="45.17668" lon="6.44698">
        <ele>1656.15</ele>
        <time>2016-08-13T09:36:56Z</time>
      </trkpt>
      <trkpt lat="45.17649" lon="6.44685">
        <ele>1654.02</ele>
        <time>2016-08-13T09:37:03Z</time>
      </trkpt>
      <trkpt lat="45.17632" lon="6.44671">
        <ele>1651.79</ele>
        <time>2016-08-13T09:37:07Z</time>
      </trkpt>
      <trkpt lat="45.17617" lon="6.44656">
        <ele>1651.57</ele>
        <time>2016-08-13T09:37:10Z</time>
      </trkpt>
      <trkpt lat="45.17599" lon="6.44644">
        <ele>1651.58</ele>
        <time>2016-08-13T09:37:14Z</time>
      </trkpt>
      <trkpt lat="45.17583" lon="6.44629">
        <ele>1650.77</ele>
        <time>2016-08-13T09:37:18Z</time>
      </trkpt>
      <trkpt lat="45.17568" lon="6.4461">
        <ele>1650.6</ele>
        <time>2016-08-13T09:37:23Z</time>
      </trkpt>
      <trkpt lat="45.1755" lon="6.44602">
        <ele>1651.84</ele>
        <time>2016-08-13T09:37:28Z</time>
      </trkpt>
      <trkpt lat="45.17531" lon="6.44602">
        <ele>1652.51</ele>
        <time>2016-08-13T09:37:34Z</time>
      </trkpt>
      <trkpt lat="45.17513" lon="6.44609">
        <ele>1651.75</ele>
        <time>2016-08-13T09:37:45Z</time>
      </trkpt>
      <trkpt lat="45.17493" lon="6.44611">
        <ele>1650.23</ele>
        <time>2016-08-13T09:37:56Z</time>
      </trkpt>
      <trkpt lat="45.17475" lon="6.44599">
        <ele>1649.16</ele>
        <time>2016-08-13T09:38:01Z</time>
      </trkpt>
      <trkpt lat="45.17454" lon="6.44594">
        <ele>1649.07</ele>
        <time>2016-08-13T09:38:06Z</time>
      </trkpt>
      <trkpt lat="45.17434" lon="6.44593">
        <ele>1648.86</ele>
        <time>2016-08-13T09:38:10Z</time>
      </trkpt>
      <trkpt lat="45.17416" lon="6.44586">
        <ele>1649.05</ele>
        <time>2016-08-13T09:38:14Z</time>
      </trkpt>
      <trkpt lat="45.17397" lon="6.44578">
        <ele>1649.86</ele>
        <time>2016-08-13T09:38:19Z</time>
      </trkpt>
      <trkpt lat="45.17376" lon="6.44573">
        <ele>1649.85</ele>
        <time>2016-08-13T09:38:24Z</time>
      </trkpt>
      <trkpt lat="45.17356" lon="6.44567">
        <ele>1650.37</ele>
        <time>2016-08-13T09:38:29Z</time>
      </trkpt>
      <trkpt lat="45.17336" lon="6.44563">
        <ele>1650.17</ele>
        <time>2016-08-13T09:38:34Z</time>
      </trkpt>
      <trkpt lat="45.17318" lon="6.44558">
        <ele>1649.56</ele>
        <time>2016-08-13T09:38:38Z</time>
      </trkpt>
      <trkpt lat="45.17296" lon="6.44552">
        <ele>1650.16</ele>
        <time>2016-08-13T09:38:44Z</time>
      </trkpt>
      <trkpt lat="45.17278" lon="6.44546">
        <ele>1649.08</ele>
        <time>2016-08-13T09:38:48Z</time>
      </trkpt>
      <trkpt lat="45.17264" lon="6.44524">
        <ele>1649.37</ele>
        <time>2016-08-13T09:38:53Z</time>
      </trkpt>
      <trkpt lat="45.1725" lon="6.44503">
        <ele>1650.66</ele>
        <time>2016-08-13T09:38:59Z</time>
      </trkpt>
      <trkpt lat="45.17233" lon="6.44488">
        <ele>1651.14</ele>
        <time>2016-08-13T09:39:05Z</time>
      </trkpt>
      <trkpt lat="45.17215" lon="6.44479">
        <ele>1650.82</ele>
        <time>2016-08-13T09:39:10Z</time>
      </trkpt>
      <trkpt lat="45.17207" lon="6.44452">
        <ele>1650.16</ele>
        <time>2016-08-13T09:39:28Z</time>
      </trkpt>
      <trkpt lat="45.17202" lon="6.44421">
        <ele>1648.49</ele>
        <time>2016-08-13T09:39:32Z</time>
      </trkpt>
      <trkpt lat="45.17194" lon="6.44395">
        <ele>1646.1</ele>
        <time>2016-08-13T09:39:36Z</time>
      </trkpt>
      <trkpt lat="45.17172" lon="6.44385">
        <ele>1643.24</ele>
        <time>2016-08-13T09:39:41Z</time>
      </trkpt>
      <trkpt lat="45.17153" lon="6.44375">
        <ele>1639.94</ele>
        <time>2016-08-13T09:39:44Z</time>
      </trkpt>
      <trkpt lat="45.17135" lon="6.4436">
        <ele>1638.65</ele>
        <time>2016-08-13T09:39:47Z</time>
      </trkpt>
      <trkpt lat="45.17115" lon="6.44359">
        <ele>1638.72</ele>
        <time>2016-08-13T09:39:51Z</time>
      </trkpt>
      <trkpt lat="45.17097" lon="6.44351">
        <ele>1639.21</ele>
        <time>2016-08-13T09:39:55Z</time>
      </trkpt>
      <trkpt lat="45.1708" lon="6.44335">
        <ele>1642.17</ele>
        <time>2016-08-13T09:40:03Z</time>
      </trkpt>
      <trkpt lat="45.17064" lon="6.44318">
        <ele>1643.94</ele>
        <time>2016-08-13T09:40:11Z</time>
      </trkpt>
      <trkpt lat="45.17051" lon="6.44301">
        <ele>1645.09</ele>
        <time>2016-08-13T09:40:18Z</time>
      </trkpt>
      <trkpt lat="45.17039" lon="6.44281">
        <ele>1645.7</ele>
        <time>2016-08-13T09:40:24Z</time>
      </trkpt>
      <trkpt lat="45.17026" lon="6.44259">
        <ele>1646.44</ele>
        <time>2016-08-13T09:40:31Z</time>
      </trkpt>
      <trkpt lat="45.17006" lon="6.44246">
        <ele>1645.68</ele>
        <time>2016-08-13T09:40:37Z</time>
      </trkpt>
      <trkpt lat="45.16985" lon="6.44239">
        <ele>1644.44</ele>
        <time>2016-08-13T09:40:41Z</time>
      </trkpt>
      <trkpt lat="45.16964" lon="6.44245">
        <ele>1643.96</ele>
        <time>2016-08-13T09:40:45Z</time>
      </trkpt>
      <trkpt lat="45.16946" lon="6.44262">
        <ele>1643.04</ele>
        <time>2016-08-13T09:40:50Z</time>
      </trkpt>
      <trkpt lat="45.16925" lon="6.4427">
        <ele>1640.48</ele>
        <time>2016-08-13T09:40:53Z</time>
      </trkpt>
      <trkpt lat="45.16902" lon="6.44278">
        <ele>1638.29</ele>
        <time>2016-08-13T09:40:56Z</time>
      </trkpt>
      <trkpt lat="45.16881" lon="6.44294">
        <ele>1637.28</ele>
        <time>2016-08-13T09:40:59Z</time>
      </trkpt>
      <trkpt lat="45.16861" lon="6.44309">
        <ele>1634.67</ele>
        <time>2016-08-13T09:41:02Z</time>
      </trkpt>
      <trkpt lat="45.16838" lon="6.44309">
        <ele>1631.92</ele>
        <time>2016-08-13T09:41:05Z</time>
      </trkpt>
      <trkpt lat="45.16816" lon="6.44313">
        <ele>1630.63</ele>
        <time>2016-08-13T09:41:08Z</time>
      </trkpt>
      <trkpt lat="45.16798" lon="6.44312">
        <ele>1634.47</ele>
        <time>2016-08-13T09:41:14Z</time>
      </trkpt>
      <trkpt lat="45.16778" lon="6.44306">
        <ele>1637.39</ele>
        <time>2016-08-13T09:41:23Z</time>
      </trkpt>
      <trkpt lat="45.1676" lon="6.44304">
        <ele>1639.13</ele>
        <time>2016-08-13T09:41:31Z</time>
      </trkpt>
      <trkpt lat="45.1674" lon="6.44296">
        <ele>1641.72</ele>
        <time>2016-08-13T09:41:40Z</time>
      </trkpt>
      <trkpt lat="45.16722" lon="6.44292">
        <ele>1643.14</ele>
        <time>2016-08-13T09:41:48Z</time>
      </trkpt>
      <trkpt lat="45.16707" lon="6.44274">
        <ele>1643.91</ele>
        <time>2016-08-13T09:41:55Z</time>
      </trkpt>
      <trkpt lat="45.16691" lon="6.44256">
        <ele>1643.81</ele>
        <time>2016-08-13T09:42:01Z</time>
      </trkpt>
      <trkpt lat="45.16678" lon="6.44234">
        <ele>1645.71</ele>
        <time>2016-08-13T09:42:08Z</time>
      </trkpt>
      <trkpt lat="45.16665" lon="6.44214">
        <ele>1649.11</ele>
        <time>2016-08-13T09:42:16Z</time>
      </trkpt>
      <trkpt lat="45.16651" lon="6.44196">
        <ele>1652.14</ele>
        <time>2016-08-13T09:42:25Z</time>
      </trkpt>
      <trkpt lat="45.16636" lon="6.44182">
        <ele>1652.49</ele>
        <time>2016-08-13T09:42:55Z</time>
      </trkpt>
      <trkpt lat="45.16616" lon="6.44169">
        <ele>1650.95</ele>
        <time>2016-08-13T09:43:03Z</time>
      </trkpt>
      <trkpt lat="45.16593" lon="6.4416">
        <ele>1649.16</ele>
        <time>2016-08-13T09:43:07Z</time>
      </trkpt>
      <trkpt lat="45.16575" lon="6.44169">
        <ele>1648.08</ele>
        <time>2016-08-13T09:43:10Z</time>
      </trkpt>
      <trkpt lat="45.16556" lon="6.44167">
        <ele>1649.17</ele>
        <time>2016-08-13T09:43:15Z</time>
      </trkpt>
      <trkpt lat="45.16538" lon="6.44169">
        <ele>1648.54</ele>
        <time>2016-08-13T09:43:19Z</time>
      </trkpt>
      <trkpt lat="45.16522" lon="6.44184">
        <ele>1647.28</ele>
        <time>2016-08-13T09:43:23Z</time>
      </trkpt>
      <trkpt lat="45.16504" lon="6.44199">
        <ele>1645.26</ele>
        <time>2016-08-13T09:43:32Z</time>
      </trkpt>
      <trkpt lat="45.1648" lon="6.44212">
        <ele>1642.6</ele>
        <time>2016-08-13T09:43:36Z</time>
      </trkpt>
      <trkpt lat="45.16456" lon="6.44212">
        <ele>1640.08</ele>
        <time>2016-08-13T09:43:39Z</time>
      </trkpt>
      <trkpt lat="45.16438" lon="6.4421">
        <ele>1637.56</ele>
        <time>2016-08-13T09:43:42Z</time>
      </trkpt>
      <trkpt lat="45.1645" lon="6.44188">
        <ele>1633.67</ele>
        <time>2016-08-13T09:43:51Z</time>
      </trkpt>
      <trkpt lat="45.1647" lon="6.4418">
        <ele>1631.29</ele>
        <time>2016-08-13T09:43:54Z</time>
      </trkpt>
      <trkpt lat="45.16458" lon="6.44159">
        <ele>1627.04</ele>
        <time>2016-08-13T09:44:01Z</time>
      </trkpt>
      <trkpt lat="45.16438" lon="6.44152">
        <ele>1625.51</ele>
        <time>2016-08-13T09:44:04Z</time>
      </trkpt>
      <trkpt lat="45.16414" lon="6.44151">
        <ele>1623.6</ele>
        <time>2016-08-13T09:44:07Z</time>
      </trkpt>
      <trkpt lat="45.16388" lon="6.44152">
        <ele>1621.11</ele>
        <time>2016-08-13T09:44:10Z</time>
      </trkpt>
      <trkpt lat="45.16366" lon="6.44156">
        <ele>1617.59</ele>
        <time>2016-08-13T09:44:14Z</time>
      </trkpt>
      <trkpt lat="45.16345" lon="6.44162">
        <ele>1617.15</ele>
        <time>2016-08-13T09:44:18Z</time>
      </trkpt>
      <trkpt lat="45.16325" lon="6.4417">
        <ele>1617.34</ele>
        <time>2016-08-13T09:44:23Z</time>
      </trkpt>
      <trkpt lat="45.16308" lon="6.44179">
        <ele>1618.45</ele>
        <time>2016-08-13T09:44:29Z</time>
      </trkpt>
      <trkpt lat="45.16289" lon="6.44187">
        <ele>1619.27</ele>
        <time>2016-08-13T09:44:35Z</time>
      </trkpt>
      <trkpt lat="45.16273" lon="6.44203">
        <ele>1620.08</ele>
        <time>2016-08-13T09:44:41Z</time>
      </trkpt>
      <trkpt lat="45.16265" lon="6.44227">
        <ele>1620.47</ele>
        <time>2016-08-13T09:44:46Z</time>
      </trkpt>
      <trkpt lat="45.16251" lon="6.44246">
        <ele>1621.25</ele>
        <time>2016-08-13T09:44:52Z</time>
      </trkpt>
      <trkpt lat="45.16233" lon="6.44257">
        <ele>1621.54</ele>
        <time>2016-08-13T09:44:57Z</time>
      </trkpt>
      <trkpt lat="45.16211" lon="6.44259">
        <ele>1622.65</ele>
        <time>2016-08-13T09:45:03Z</time>
      </trkpt>
      <trkpt lat="45.16193" lon="6.44258">
        <ele>1624.64</ele>
        <time>2016-08-13T09:45:10Z</time>
      </trkpt>
      <trkpt lat="45.16175" lon="6.44255">
        <ele>1626.92</ele>
        <time>2016-08-13T09:45:17Z</time>
      </trkpt>
      <trkpt lat="45.16159" lon="6.44266">
        <ele>1628.51</ele>
        <time>2016-08-13T09:45:24Z</time>
      </trkpt>
      <trkpt lat="45.1614" lon="6.44265">
        <ele>1630</ele>
        <time>2016-08-13T09:45:31Z</time>
      </trkpt>
      <trkpt lat="45.16124" lon="6.44252">
        <ele>1630.89</ele>
        <time>2016-08-13T09:45:37Z</time>
      </trkpt>
      <trkpt lat="45.16109" lon="6.44238">
        <ele>1631.8</ele>
        <time>2016-08-13T09:45:43Z</time>
      </trkpt>
      <trkpt lat="45.16093" lon="6.44226">
        <ele>1631.93</ele>
        <time>2016-08-13T09:45:49Z</time>
      </trkpt>
      <trkpt lat="45.16072" lon="6.44223">
        <ele>1631.71</ele>
        <time>2016-08-13T09:45:55Z</time>
      </trkpt>
      <trkpt lat="45.16052" lon="6.44224">
        <ele>1633.8</ele>
        <time>2016-08-13T09:46:12Z</time>
      </trkpt>
      <trkpt lat="45.16032" lon="6.44228">
        <ele>1633.45</ele>
        <time>2016-08-13T09:46:18Z</time>
      </trkpt>
      <trkpt lat="45.16012" lon="6.44226">
        <ele>1634.51</ele>
        <time>2016-08-13T09:46:28Z</time>
      </trkpt>
      <trkpt lat="45.15991" lon="6.44218">
        <ele>1632.71</ele>
        <time>2016-08-13T09:46:33Z</time>
      </trkpt>
      <trkpt lat="45.1597" lon="6.44211">
        <ele>1631.37</ele>
        <time>2016-08-13T09:46:37Z</time>
      </trkpt>
      <trkpt lat="45.1595" lon="6.44205">
        <ele>1631.24</ele>
        <time>2016-08-13T09:46:41Z</time>
      </trkpt>
      <trkpt lat="45.1593" lon="6.44205">
        <ele>1631.57</ele>
        <time>2016-08-13T09:46:46Z</time>
      </trkpt>
      <trkpt lat="45.15911" lon="6.44205">
        <ele>1631.73</ele>
        <time>2016-08-13T09:46:51Z</time>
      </trkpt>
      <trkpt lat="45.15892" lon="6.44206">
        <ele>1631.78</ele>
        <time>2016-08-13T09:46:56Z</time>
      </trkpt>
      <trkpt lat="45.15873" lon="6.44203">
        <ele>1631.74</ele>
        <time>2016-08-13T09:47:01Z</time>
      </trkpt>
      <trkpt lat="45.15856" lon="6.44199">
        <ele>1630.66</ele>
        <time>2016-08-13T09:47:05Z</time>
      </trkpt>
      <trkpt lat="45.15837" lon="6.44201">
        <ele>1630.5</ele>
        <time>2016-08-13T09:47:09Z</time>
      </trkpt>
      <trkpt lat="45.15817" lon="6.44208">
        <ele>1630.15</ele>
        <time>2016-08-13T09:48:00Z</time>
      </trkpt>
      <trkpt lat="45.15801" lon="6.4422">
        <ele>1630.39</ele>
        <time>2016-08-13T09:48:05Z</time>
      </trkpt>
      <trkpt lat="45.15781" lon="6.44228">
        <ele>1632.21</ele>
        <time>2016-08-13T09:48:11Z</time>
      </trkpt>
      <trkpt lat="45.15764" lon="6.44233">
        <ele>1632.59</ele>
        <time>2016-08-13T09:48:16Z</time>
      </trkpt>
      <trkpt lat="45.15744" lon="6.44241">
        <ele>1633.15</ele>
        <time>2016-08-13T09:48:22Z</time>
      </trkpt>
      <trkpt lat="45.15725" lon="6.44248">
        <ele>1633.52</ele>
        <time>2016-08-13T09:48:28Z</time>
      </trkpt>
      <trkpt lat="45.15707" lon="6.44254">
        <ele>1633.43</ele>
        <time>2016-08-13T09:48:35Z</time>
      </trkpt>
      <trkpt lat="45.15689" lon="6.44268">
        <ele>1634.61</ele>
        <time>2016-08-13T09:48:42Z</time>
      </trkpt>
      <trkpt lat="45.15671" lon="6.44279">
        <ele>1636.58</ele>
        <time>2016-08-13T09:48:49Z</time>
      </trkpt>
      <trkpt lat="45.15652" lon="6.4429">
        <ele>1637.64</ele>
        <time>2016-08-13T09:48:56Z</time>
      </trkpt>
      <trkpt lat="45.15634" lon="6.443">
        <ele>1638.91</ele>
        <time>2016-08-13T09:49:03Z</time>
      </trkpt>
      <trkpt lat="45.15616" lon="6.44311">
        <ele>1640.43</ele>
        <time>2016-08-13T09:49:10Z</time>
      </trkpt>
      <trkpt lat="45.15599" lon="6.44328">
        <ele>1641.88</ele>
        <time>2016-08-13T09:49:17Z</time>
      </trkpt>
      <trkpt lat="45.15584" lon="6.44348">
        <ele>1643.1</ele>
        <time>2016-08-13T09:49:24Z</time>
      </trkpt>
      <trkpt lat="45.15568" lon="6.44361">
        <ele>1643.12</ele>
        <time>2016-08-13T09:49:29Z</time>
      </trkpt>
      <trkpt lat="45.15548" lon="6.44372">
        <ele>1643.74</ele>
        <time>2016-08-13T09:49:35Z</time>
      </trkpt>
      <trkpt lat="45.1553" lon="6.44379">
        <ele>1643.84</ele>
        <time>2016-08-13T09:49:40Z</time>
      </trkpt>
      <trkpt lat="45.15509" lon="6.44387">
        <ele>1643</ele>
        <time>2016-08-13T09:49:45Z</time>
      </trkpt>
      <trkpt lat="45.15492" lon="6.444">
        <ele>1641.32</ele>
        <time>2016-08-13T09:49:49Z</time>
      </trkpt>
      <trkpt lat="45.15478" lon="6.44421">
        <ele>1640.98</ele>
        <time>2016-08-13T09:49:54Z</time>
      </trkpt>
      <trkpt lat="45.15465" lon="6.44438">
        <ele>1640.15</ele>
        <time>2016-08-13T09:49:58Z</time>
      </trkpt>
      <trkpt lat="45.15449" lon="6.44455">
        <ele>1639.73</ele>
        <time>2016-08-13T09:50:02Z</time>
      </trkpt>
      <trkpt lat="45.15435" lon="6.44475">
        <ele>1638.78</ele>
        <time>2016-08-13T09:50:06Z</time>
      </trkpt>
      <trkpt lat="45.15421" lon="6.44492">
        <ele>1640.4</ele>
        <time>2016-08-13T09:50:11Z</time>
      </trkpt>
      <trkpt lat="45.15407" lon="6.44511">
        <ele>1642.07</ele>
        <time>2016-08-13T09:50:17Z</time>
      </trkpt>
      <trkpt lat="45.15392" lon="6.4453">
        <ele>1645.32</ele>
        <time>2016-08-13T09:50:25Z</time>
      </trkpt>
      <trkpt lat="45.15373" lon="6.44541">
        <ele>1645.73</ele>
        <time>2016-08-13T09:50:32Z</time>
      </trkpt>
      <trkpt lat="45.15354" lon="6.44551">
        <ele>1646.85</ele>
        <time>2016-08-13T09:50:39Z</time>
      </trkpt>
      <trkpt lat="45.15336" lon="6.44555">
        <ele>1649.7</ele>
        <time>2016-08-13T09:50:47Z</time>
      </trkpt>
      <trkpt lat="45.15318" lon="6.44563">
        <ele>1652.23</ele>
        <time>2016-08-13T09:50:56Z</time>
      </trkpt>
      <trkpt lat="45.15299" lon="6.44571">
        <ele>1653.53</ele>
        <time>2016-08-13T09:51:21Z</time>
      </trkpt>
      <trkpt lat="45.1528" lon="6.44578">
        <ele>1653.86</ele>
        <time>2016-08-13T09:51:27Z</time>
      </trkpt>
      <trkpt lat="45.15259" lon="6.44578">
        <ele>1653.33</ele>
        <time>2016-08-13T09:51:32Z</time>
      </trkpt>
      <trkpt lat="45.1524" lon="6.44581">
        <ele>1653.26</ele>
        <time>2016-08-13T09:51:37Z</time>
      </trkpt>
      <trkpt lat="45.15222" lon="6.44589">
        <ele>1655.66</ele>
        <time>2016-08-13T09:51:45Z</time>
      </trkpt>
      <trkpt lat="45.15201" lon="6.44588">
        <ele>1654.98</ele>
        <time>2016-08-13T09:51:51Z</time>
      </trkpt>
      <trkpt lat="45.15183" lon="6.44589">
        <ele>1655.63</ele>
        <time>2016-08-13T09:51:57Z</time>
      </trkpt>
      <trkpt lat="45.15165" lon="6.44577">
        <ele>1655.11</ele>
        <time>2016-08-13T09:52:05Z</time>
      </trkpt>
      <trkpt lat="45.15146" lon="6.44567">
        <ele>1658.17</ele>
        <time>2016-08-13T09:52:27Z</time>
      </trkpt>
      <trkpt lat="45.15127" lon="6.44566">
        <ele>1660.59</ele>
        <time>2016-08-13T09:52:35Z</time>
      </trkpt>
      <trkpt lat="45.15108" lon="6.44564">
        <ele>1662.99</ele>
        <time>2016-08-13T09:52:43Z</time>
      </trkpt>
      <trkpt lat="45.15088" lon="6.44562">
        <ele>1665.61</ele>
        <time>2016-08-13T09:52:52Z</time>
      </trkpt>
      <trkpt lat="45.15069" lon="6.44567">
        <ele>1667.49</ele>
        <time>2016-08-13T09:53:01Z</time>
      </trkpt>
      <trkpt lat="45.15049" lon="6.44576">
        <ele>1668.79</ele>
        <time>2016-08-13T09:53:09Z</time>
      </trkpt>
      <trkpt lat="45.15031" lon="6.44584">
        <ele>1669.9</ele>
        <time>2016-08-13T09:53:16Z</time>
      </trkpt>
      <trkpt lat="45.15014" lon="6.44594">
        <ele>1671.49</ele>
        <time>2016-08-13T09:53:23Z</time>
      </trkpt>
      <trkpt lat="45.14998" lon="6.44604">
        <ele>1673.63</ele>
        <time>2016-08-13T09:53:31Z</time>
      </trkpt>
      <trkpt lat="45.14979" lon="6.44612">
        <ele>1675.74</ele>
        <time>2016-08-13T09:53:39Z</time>
      </trkpt>
      <trkpt lat="45.14961" lon="6.44618">
        <ele>1677.67</ele>
        <time>2016-08-13T09:53:47Z</time>
      </trkpt>
      <trkpt lat="45.14943" lon="6.44625">
        <ele>1680.32</ele>
        <time>2016-08-13T09:53:56Z</time>
      </trkpt>
      <trkpt lat="45.14927" lon="6.44635">
        <ele>1682.79</ele>
        <time>2016-08-13T09:54:05Z</time>
      </trkpt>
      <trkpt lat="45.14913" lon="6.44651">
        <ele>1685.33</ele>
        <time>2016-08-13T09:54:14Z</time>
      </trkpt>
      <trkpt lat="45.14902" lon="6.44674">
        <ele>1687.58</ele>
        <time>2016-08-13T09:54:24Z</time>
      </trkpt>
      <trkpt lat="45.14892" lon="6.44698">
        <ele>1689.97</ele>
        <time>2016-08-13T09:54:34Z</time>
      </trkpt>
      <trkpt lat="45.14882" lon="6.4472">
        <ele>1691.99</ele>
        <time>2016-08-13T09:54:43Z</time>
      </trkpt>
      <trkpt lat="45.14871" lon="6.44741">
        <ele>1694.43</ele>
        <time>2016-08-13T09:54:52Z</time>
      </trkpt>
      <trkpt lat="45.14863" lon="6.44765">
        <ele>1697.29</ele>
        <time>2016-08-13T09:55:02Z</time>
      </trkpt>
      <trkpt lat="45.14849" lon="6.44783">
        <ele>1698.74</ele>
        <time>2016-08-13T09:55:10Z</time>
      </trkpt>
      <trkpt lat="45.14834" lon="6.44797">
        <ele>1701.29</ele>
        <time>2016-08-13T09:55:19Z</time>
      </trkpt>
      <trkpt lat="45.14816" lon="6.44807">
        <ele>1704.29</ele>
        <time>2016-08-13T09:55:29Z</time>
      </trkpt>
      <trkpt lat="45.148" lon="6.44822">
        <ele>1707.19</ele>
        <time>2016-08-13T09:55:39Z</time>
      </trkpt>
      <trkpt lat="45.14787" lon="6.44842">
        <ele>1709.7</ele>
        <time>2016-08-13T09:55:49Z</time>
      </trkpt>
      <trkpt lat="45.14776" lon="6.44864">
        <ele>1712.41</ele>
        <time>2016-08-13T09:55:59Z</time>
      </trkpt>
      <trkpt lat="45.14763" lon="6.44884">
        <ele>1715.29</ele>
        <time>2016-08-13T09:56:09Z</time>
      </trkpt>
      <trkpt lat="45.14748" lon="6.449">
        <ele>1717.55</ele>
        <time>2016-08-13T09:56:20Z</time>
      </trkpt>
      <trkpt lat="45.14732" lon="6.44917">
        <ele>1719.56</ele>
        <time>2016-08-13T09:56:29Z</time>
      </trkpt>
      <trkpt lat="45.14716" lon="6.44931">
        <ele>1721.29</ele>
        <time>2016-08-13T09:56:37Z</time>
      </trkpt>
      <trkpt lat="45.14701" lon="6.44949">
        <ele>1722.48</ele>
        <time>2016-08-13T09:56:45Z</time>
      </trkpt>
      <trkpt lat="45.14685" lon="6.44967">
        <ele>1724</ele>
        <time>2016-08-13T09:56:54Z</time>
      </trkpt>
      <trkpt lat="45.14671" lon="6.44982">
        <ele>1725.95</ele>
        <time>2016-08-13T09:57:02Z</time>
      </trkpt>
      <trkpt lat="45.14656" lon="6.45">
        <ele>1727.6</ele>
        <time>2016-08-13T09:57:10Z</time>
      </trkpt>
      <trkpt lat="45.14642" lon="6.45019">
        <ele>1728.83</ele>
        <time>2016-08-13T09:57:18Z</time>
      </trkpt>
      <trkpt lat="45.14626" lon="6.45034">
        <ele>1730.58</ele>
        <time>2016-08-13T09:57:27Z</time>
      </trkpt>
      <trkpt lat="45.14609" lon="6.45046">
        <ele>1732.11</ele>
        <time>2016-08-13T09:57:35Z</time>
      </trkpt>
      <trkpt lat="45.14596" lon="6.45067">
        <ele>1733.58</ele>
        <time>2016-08-13T09:57:44Z</time>
      </trkpt>
      <trkpt lat="45.14589" lon="6.45092">
        <ele>1734.52</ele>
        <time>2016-08-13T09:57:52Z</time>
      </trkpt>
      <trkpt lat="45.14586" lon="6.45118">
        <ele>1735.48</ele>
        <time>2016-08-13T09:58:00Z</time>
      </trkpt>
      <trkpt lat="45.14573" lon="6.45137">
        <ele>1736.21</ele>
        <time>2016-08-13T09:58:07Z</time>
      </trkpt>
      <trkpt lat="45.14556" lon="6.45152">
        <ele>1737.31</ele>
        <time>2016-08-13T09:58:14Z</time>
      </trkpt>
      <trkpt lat="45.14539" lon="6.45163">
        <ele>1739.1</ele>
        <time>2016-08-13T09:58:22Z</time>
      </trkpt>
      <trkpt lat="45.14524" lon="6.45179">
        <ele>1741.05</ele>
        <time>2016-08-13T09:58:30Z</time>
      </trkpt>
      <trkpt lat="45.14508" lon="6.45194">
        <ele>1742.7</ele>
        <time>2016-08-13T09:58:39Z</time>
      </trkpt>
      <trkpt lat="45.14493" lon="6.45208">
        <ele>1744.12</ele>
        <time>2016-08-13T09:58:46Z</time>
      </trkpt>
      <trkpt lat="45.14478" lon="6.45227">
        <ele>1745.28</ele>
        <time>2016-08-13T09:58:54Z</time>
      </trkpt>
      <trkpt lat="45.14466" lon="6.45247">
        <ele>1746.58</ele>
        <time>2016-08-13T09:59:01Z</time>
      </trkpt>
      <trkpt lat="45.14449" lon="6.45263">
        <ele>1749.1</ele>
        <time>2016-08-13T09:59:10Z</time>
      </trkpt>
      <trkpt lat="45.14437" lon="6.45282">
        <ele>1750.97</ele>
        <time>2016-08-13T09:59:18Z</time>
      </trkpt>
      <trkpt lat="45.14421" lon="6.45299">
        <ele>1752.45</ele>
        <time>2016-08-13T09:59:26Z</time>
      </trkpt>
      <trkpt lat="45.14403" lon="6.45303">
        <ele>1754.83</ele>
        <time>2016-08-13T09:59:34Z</time>
      </trkpt>
      <trkpt lat="45.14385" lon="6.45308">
        <ele>1756.67</ele>
        <time>2016-08-13T09:59:42Z</time>
      </trkpt>
      <trkpt lat="45.14366" lon="6.45311">
        <ele>1757.74</ele>
        <time>2016-08-13T09:59:50Z</time>
      </trkpt>
      <trkpt lat="45.14346" lon="6.45312">
        <ele>1759.36</ele>
        <time>2016-08-13T09:59:59Z</time>
      </trkpt>
      <trkpt lat="45.14327" lon="6.45306">
        <ele>1761.69</ele>
        <time>2016-08-13T10:00:08Z</time>
      </trkpt>
      <trkpt lat="45.1431" lon="6.45299">
        <ele>1763.16</ele>
        <time>2016-08-13T10:00:16Z</time>
      </trkpt>
      <trkpt lat="45.14292" lon="6.45297">
        <ele>1765.36</ele>
        <time>2016-08-13T10:00:25Z</time>
      </trkpt>
      <trkpt lat="45.14273" lon="6.45295">
        <ele>1767.7</ele>
        <time>2016-08-13T10:00:34Z</time>
      </trkpt>
      <trkpt lat="45.14255" lon="6.45294">
        <ele>1770.1</ele>
        <time>2016-08-13T10:00:43Z</time>
      </trkpt>
      <trkpt lat="45.14235" lon="6.45295">
        <ele>1772.36</ele>
        <time>2016-08-13T10:00:53Z</time>
      </trkpt>
      <trkpt lat="45.14216" lon="6.45293">
        <ele>1773.98</ele>
        <time>2016-08-13T10:01:02Z</time>
      </trkpt>
      <trkpt lat="45.14198" lon="6.45303">
        <ele>1776.07</ele>
        <time>2016-08-13T10:01:13Z</time>
      </trkpt>
      <trkpt lat="45.14182" lon="6.45321">
        <ele>1776.79</ele>
        <time>2016-08-13T10:01:20Z</time>
      </trkpt>
      <trkpt lat="45.14166" lon="6.45337">
        <ele>1777.6</ele>
        <time>2016-08-13T10:01:27Z</time>
      </trkpt>
      <trkpt lat="45.14147" lon="6.45349">
        <ele>1778.41</ele>
        <time>2016-08-13T10:01:34Z</time>
      </trkpt>
      <trkpt lat="45.14129" lon="6.45357">
        <ele>1778.78</ele>
        <time>2016-08-13T10:01:40Z</time>
      </trkpt>
      <trkpt lat="45.1411" lon="6.45364">
        <ele>1779.73</ele>
        <time>2016-08-13T10:01:47Z</time>
      </trkpt>
      <trkpt lat="45.14092" lon="6.45365">
        <ele>1781.32</ele>
        <time>2016-08-13T10:01:54Z</time>
      </trkpt>
      <trkpt lat="45.14074" lon="6.45358">
        <ele>1784.22</ele>
        <time>2016-08-13T10:02:03Z</time>
      </trkpt>
      <trkpt lat="45.14055" lon="6.45349">
        <ele>1787</ele>
        <time>2016-08-13T10:02:12Z</time>
      </trkpt>
      <trkpt lat="45.14035" lon="6.45352">
        <ele>1789.67</ele>
        <time>2016-08-13T10:02:22Z</time>
      </trkpt>
      <trkpt lat="45.14015" lon="6.45347">
        <ele>1792.54</ele>
        <time>2016-08-13T10:02:32Z</time>
      </trkpt>
      <trkpt lat="45.13996" lon="6.45346">
        <ele>1795.79</ele>
        <time>2016-08-13T10:02:43Z</time>
      </trkpt>
      <trkpt lat="45.13978" lon="6.45352">
        <ele>1797.72</ele>
        <time>2016-08-13T10:02:52Z</time>
      </trkpt>
      <trkpt lat="45.13962" lon="6.45363">
        <ele>1799.69</ele>
        <time>2016-08-13T10:03:00Z</time>
      </trkpt>
      <trkpt lat="45.13945" lon="6.4538">
        <ele>1800.97</ele>
        <time>2016-08-13T10:03:08Z</time>
      </trkpt>
      <trkpt lat="45.13932" lon="6.45398">
        <ele>1801.95</ele>
        <time>2016-08-13T10:04:02Z</time>
      </trkpt>
      <trkpt lat="45.13918" lon="6.45415">
        <ele>1802.34</ele>
        <time>2016-08-13T10:04:10Z</time>
      </trkpt>
      <trkpt lat="45.13903" lon="6.45432">
        <ele>1803.73</ele>
        <time>2016-08-13T10:04:18Z</time>
      </trkpt>
      <trkpt lat="45.13886" lon="6.45447">
        <ele>1804.98</ele>
        <time>2016-08-13T10:04:27Z</time>
      </trkpt>
      <trkpt lat="45.13869" lon="6.45459">
        <ele>1805.35</ele>
        <time>2016-08-13T10:04:34Z</time>
      </trkpt>
      <trkpt lat="45.13853" lon="6.45475">
        <ele>1806.08</ele>
        <time>2016-08-13T10:04:41Z</time>
      </trkpt>
      <trkpt lat="45.1384" lon="6.45493">
        <ele>1807.56</ele>
        <time>2016-08-13T10:04:49Z</time>
      </trkpt>
      <trkpt lat="45.13826" lon="6.45512">
        <ele>1810.47</ele>
        <time>2016-08-13T10:04:59Z</time>
      </trkpt>
      <trkpt lat="45.13809" lon="6.45522">
        <ele>1812.75</ele>
        <time>2016-08-13T10:05:08Z</time>
      </trkpt>
      <trkpt lat="45.13791" lon="6.45529">
        <ele>1814.93</ele>
        <time>2016-08-13T10:05:18Z</time>
      </trkpt>
      <trkpt lat="45.13775" lon="6.45542">
        <ele>1817.12</ele>
        <time>2016-08-13T10:05:28Z</time>
      </trkpt>
      <trkpt lat="45.13759" lon="6.45555">
        <ele>1819.02</ele>
        <time>2016-08-13T10:05:38Z</time>
      </trkpt>
      <trkpt lat="45.1374" lon="6.45555">
        <ele>1821.65</ele>
        <time>2016-08-13T10:05:49Z</time>
      </trkpt>
      <trkpt lat="45.13723" lon="6.4557">
        <ele>1823.69</ele>
        <time>2016-08-13T10:05:59Z</time>
      </trkpt>
      <trkpt lat="45.13705" lon="6.45584">
        <ele>1825.69</ele>
        <time>2016-08-13T10:06:09Z</time>
      </trkpt>
      <trkpt lat="45.13689" lon="6.45595">
        <ele>1827.87</ele>
        <time>2016-08-13T10:06:18Z</time>
      </trkpt>
      <trkpt lat="45.1367" lon="6.45603">
        <ele>1830.17</ele>
        <time>2016-08-13T10:06:28Z</time>
      </trkpt>
      <trkpt lat="45.13652" lon="6.45604">
        <ele>1831.97</ele>
        <time>2016-08-13T10:06:37Z</time>
      </trkpt>
      <trkpt lat="45.13634" lon="6.45592">
        <ele>1834.92</ele>
        <time>2016-08-13T10:06:47Z</time>
      </trkpt>
      <trkpt lat="45.13615" lon="6.45594">
        <ele>1837.62</ele>
        <time>2016-08-13T10:06:57Z</time>
      </trkpt>
      <trkpt lat="45.13599" lon="6.45605">
        <ele>1839.17</ele>
        <time>2016-08-13T10:07:06Z</time>
      </trkpt>
      <trkpt lat="45.13584" lon="6.45622">
        <ele>1840.65</ele>
        <time>2016-08-13T10:07:15Z</time>
      </trkpt>
      <trkpt lat="45.13568" lon="6.4564">
        <ele>1842.13</ele>
        <time>2016-08-13T10:07:24Z</time>
      </trkpt>
      <trkpt lat="45.13552" lon="6.45654">
        <ele>1844.41</ele>
        <time>2016-08-13T10:07:34Z</time>
      </trkpt>
      <trkpt lat="45.13539" lon="6.45675">
        <ele>1845.79</ele>
        <time>2016-08-13T10:07:43Z</time>
      </trkpt>
      <trkpt lat="45.13528" lon="6.45698">
        <ele>1846.54</ele>
        <time>2016-08-13T10:07:51Z</time>
      </trkpt>
      <trkpt lat="45.13513" lon="6.45714">
        <ele>1847.06</ele>
        <time>2016-08-13T10:07:59Z</time>
      </trkpt>
      <trkpt lat="45.13499" lon="6.4573">
        <ele>1849.4</ele>
        <time>2016-08-13T10:08:08Z</time>
      </trkpt>
      <trkpt lat="45.13482" lon="6.45742">
        <ele>1851.44</ele>
        <time>2016-08-13T10:08:16Z</time>
      </trkpt>
      <trkpt lat="45.13465" lon="6.45756">
        <ele>1853.24</ele>
        <time>2016-08-13T10:08:24Z</time>
      </trkpt>
      <trkpt lat="45.1345" lon="6.45775">
        <ele>1854.06</ele>
        <time>2016-08-13T10:08:32Z</time>
      </trkpt>
      <trkpt lat="45.13436" lon="6.45792">
        <ele>1855.08</ele>
        <time>2016-08-13T10:08:39Z</time>
      </trkpt>
      <trkpt lat="45.13419" lon="6.45801">
        <ele>1857.43</ele>
        <time>2016-08-13T10:08:47Z</time>
      </trkpt>
      <trkpt lat="45.13403" lon="6.45817">
        <ele>1859.57</ele>
        <time>2016-08-13T10:08:57Z</time>
      </trkpt>
      <trkpt lat="45.13385" lon="6.45825">
        <ele>1861.51</ele>
        <time>2016-08-13T10:09:06Z</time>
      </trkpt>
      <trkpt lat="45.13368" lon="6.45837">
        <ele>1864.7</ele>
        <time>2016-08-13T10:09:15Z</time>
      </trkpt>
      <trkpt lat="45.13353" lon="6.45855">
        <ele>1866.11</ele>
        <time>2016-08-13T10:09:23Z</time>
      </trkpt>
      <trkpt lat="45.13341" lon="6.45874">
        <ele>1867.07</ele>
        <time>2016-08-13T10:09:30Z</time>
      </trkpt>
      <trkpt lat="45.13325" lon="6.45891">
        <ele>1868.61</ele>
        <time>2016-08-13T10:09:39Z</time>
      </trkpt>
      <trkpt lat="45.1331" lon="6.45908">
        <ele>1870.12</ele>
        <time>2016-08-13T10:09:47Z</time>
      </trkpt>
      <trkpt lat="45.13291" lon="6.45918">
        <ele>1872.13</ele>
        <time>2016-08-13T10:09:56Z</time>
      </trkpt>
      <trkpt lat="45.13277" lon="6.45937">
        <ele>1874.42</ele>
        <time>2016-08-13T10:10:05Z</time>
      </trkpt>
      <trkpt lat="45.13264" lon="6.45956">
        <ele>1876.23</ele>
        <time>2016-08-13T10:10:13Z</time>
      </trkpt>
      <trkpt lat="45.13251" lon="6.45975">
        <ele>1877.78</ele>
        <time>2016-08-13T10:10:21Z</time>
      </trkpt>
      <trkpt lat="45.13238" lon="6.45995">
        <ele>1878.52</ele>
        <time>2016-08-13T10:10:29Z</time>
      </trkpt>
      <trkpt lat="45.13222" lon="6.46006">
        <ele>1880.16</ele>
        <time>2016-08-13T10:10:37Z</time>
      </trkpt>
      <trkpt lat="45.13202" lon="6.4601">
        <ele>1882.11</ele>
        <time>2016-08-13T10:10:46Z</time>
      </trkpt>
      <trkpt lat="45.13187" lon="6.46024">
        <ele>1884.73</ele>
        <time>2016-08-13T10:10:54Z</time>
      </trkpt>
      <trkpt lat="45.1317" lon="6.46039">
        <ele>1887.58</ele>
        <time>2016-08-13T10:11:03Z</time>
      </trkpt>
      <trkpt lat="45.13159" lon="6.46062">
        <ele>1888.82</ele>
        <time>2016-08-13T10:11:12Z</time>
      </trkpt>
      <trkpt lat="45.1315" lon="6.46084">
        <ele>1889.7</ele>
        <time>2016-08-13T10:11:20Z</time>
      </trkpt>
      <trkpt lat="45.13159" lon="6.46061">
        <ele>1889.49</ele>
        <time>2016-08-13T10:12:24Z</time>
      </trkpt>
      <trkpt lat="45.13146" lon="6.46079">
        <ele>1889.89</ele>
        <time>2016-08-13T10:16:47Z</time>
      </trkpt>
      <trkpt lat="45.13134" lon="6.46102">
        <ele>1892.18</ele>
        <time>2016-08-13T10:16:55Z</time>
      </trkpt>
      <trkpt lat="45.13125" lon="6.46125">
        <ele>1894.9</ele>
        <time>2016-08-13T10:17:03Z</time>
      </trkpt>
      <trkpt lat="45.13121" lon="6.4615">
        <ele>1897.08</ele>
        <time>2016-08-13T10:17:11Z</time>
      </trkpt>
      <trkpt lat="45.13113" lon="6.46176">
        <ele>1899.63</ele>
        <time>2016-08-13T10:17:20Z</time>
      </trkpt>
      <trkpt lat="45.13101" lon="6.46195">
        <ele>1901.29</ele>
        <time>2016-08-13T10:17:28Z</time>
      </trkpt>
      <trkpt lat="45.13092" lon="6.46218">
        <ele>1903.73</ele>
        <time>2016-08-13T10:17:37Z</time>
      </trkpt>
      <trkpt lat="45.13092" lon="6.46244">
        <ele>1906.19</ele>
        <time>2016-08-13T10:17:46Z</time>
      </trkpt>
      <trkpt lat="45.1311" lon="6.46256">
        <ele>1908.77</ele>
        <time>2016-08-13T10:17:56Z</time>
      </trkpt>
      <trkpt lat="45.13124" lon="6.46239">
        <ele>1910.15</ele>
        <time>2016-08-13T10:18:05Z</time>
      </trkpt>
      <trkpt lat="45.13139" lon="6.46222">
        <ele>1911.65</ele>
        <time>2016-08-13T10:18:13Z</time>
      </trkpt>
      <trkpt lat="45.13151" lon="6.46202">
        <ele>1913.17</ele>
        <time>2016-08-13T10:18:21Z</time>
      </trkpt>
      <trkpt lat="45.13169" lon="6.4619">
        <ele>1914.41</ele>
        <time>2016-08-13T10:18:29Z</time>
      </trkpt>
      <trkpt lat="45.13187" lon="6.46181">
        <ele>1914.9</ele>
        <time>2016-08-13T10:18:36Z</time>
      </trkpt>
      <trkpt lat="45.13205" lon="6.46175">
        <ele>1916.87</ele>
        <time>2016-08-13T10:18:44Z</time>
      </trkpt>
      <trkpt lat="45.13223" lon="6.46174">
        <ele>1918.3</ele>
        <time>2016-08-13T10:18:51Z</time>
      </trkpt>
      <trkpt lat="45.13243" lon="6.46176">
        <ele>1919.99</ele>
        <time>2016-08-13T10:18:59Z</time>
      </trkpt>
      <trkpt lat="45.13259" lon="6.46164">
        <ele>1921.61</ele>
        <time>2016-08-13T10:19:07Z</time>
      </trkpt>
      <trkpt lat="45.13274" lon="6.46145">
        <ele>1923.95</ele>
        <time>2016-08-13T10:19:17Z</time>
      </trkpt>
      <trkpt lat="45.13294" lon="6.46148">
        <ele>1926.58</ele>
        <time>2016-08-13T10:19:26Z</time>
      </trkpt>
      <trkpt lat="45.13312" lon="6.46155">
        <ele>1930.09</ele>
        <time>2016-08-13T10:19:36Z</time>
      </trkpt>
      <trkpt lat="45.13328" lon="6.46167">
        <ele>1932.13</ele>
        <time>2016-08-13T10:19:45Z</time>
      </trkpt>
      <trkpt lat="45.13346" lon="6.46179">
        <ele>1935.01</ele>
        <time>2016-08-13T10:19:55Z</time>
      </trkpt>
      <trkpt lat="45.13364" lon="6.46185">
        <ele>1937.73</ele>
        <time>2016-08-13T10:20:06Z</time>
      </trkpt>
      <trkpt lat="45.13383" lon="6.46192">
        <ele>1940.1</ele>
        <time>2016-08-13T10:20:16Z</time>
      </trkpt>
      <trkpt lat="45.13403" lon="6.46194">
        <ele>1942.68</ele>
        <time>2016-08-13T10:20:27Z</time>
      </trkpt>
      <trkpt lat="45.13423" lon="6.46196">
        <ele>1944.53</ele>
        <time>2016-08-13T10:20:37Z</time>
      </trkpt>
      <trkpt lat="45.1344" lon="6.46204">
        <ele>1946.15</ele>
        <time>2016-08-13T10:20:46Z</time>
      </trkpt>
      <trkpt lat="45.13457" lon="6.46213">
        <ele>1947.31</ele>
        <time>2016-08-13T10:20:55Z</time>
      </trkpt>
      <trkpt lat="45.13476" lon="6.46218">
        <ele>1949.79</ele>
        <time>2016-08-13T10:21:05Z</time>
      </trkpt>
      <trkpt lat="45.13493" lon="6.46208">
        <ele>1951.66</ele>
        <time>2016-08-13T10:21:13Z</time>
      </trkpt>
      <trkpt lat="45.13511" lon="6.46197">
        <ele>1954.1</ele>
        <time>2016-08-13T10:21:22Z</time>
      </trkpt>
      <trkpt lat="45.1353" lon="6.46192">
        <ele>1956.84</ele>
        <time>2016-08-13T10:21:33Z</time>
      </trkpt>
      <trkpt lat="45.13546" lon="6.46176">
        <ele>1958.94</ele>
        <time>2016-08-13T10:21:42Z</time>
      </trkpt>
      <trkpt lat="45.13563" lon="6.46167">
        <ele>1962.27</ele>
        <time>2016-08-13T10:21:52Z</time>
      </trkpt>
      <trkpt lat="45.13582" lon="6.46164">
        <ele>1965.31</ele>
        <time>2016-08-13T10:22:02Z</time>
      </trkpt>
      <trkpt lat="45.13601" lon="6.46172">
        <ele>1968.26</ele>
        <time>2016-08-13T10:22:11Z</time>
      </trkpt>
      <trkpt lat="45.1362" lon="6.4618">
        <ele>1970.17</ele>
        <time>2016-08-13T10:22:21Z</time>
      </trkpt>
      <trkpt lat="45.13638" lon="6.46189">
        <ele>1971.87</ele>
        <time>2016-08-13T10:22:31Z</time>
      </trkpt>
      <trkpt lat="45.13656" lon="6.46192">
        <ele>1974.44</ele>
        <time>2016-08-13T10:22:42Z</time>
      </trkpt>
      <trkpt lat="45.13674" lon="6.46196">
        <ele>1976.87</ele>
        <time>2016-08-13T10:22:51Z</time>
      </trkpt>
      <trkpt lat="45.13688" lon="6.46217">
        <ele>1979.37</ele>
        <time>2016-08-13T10:23:01Z</time>
      </trkpt>
      <trkpt lat="45.13693" lon="6.46242">
        <ele>1981.59</ele>
        <time>2016-08-13T10:23:11Z</time>
      </trkpt>
      <trkpt lat="45.13694" lon="6.46269">
        <ele>1983.83</ele>
        <time>2016-08-13T10:23:20Z</time>
      </trkpt>
      <trkpt lat="45.13703" lon="6.46291">
        <ele>1985.77</ele>
        <time>2016-08-13T10:23:29Z</time>
      </trkpt>
      <trkpt lat="45.13719" lon="6.46306">
        <ele>1987.79</ele>
        <time>2016-08-13T10:23:39Z</time>
      </trkpt>
      <trkpt lat="45.13738" lon="6.463">
        <ele>1989.86</ele>
        <time>2016-08-13T10:23:49Z</time>
      </trkpt>
      <trkpt lat="45.13756" lon="6.46296">
        <ele>1991.75</ele>
        <time>2016-08-13T10:23:59Z</time>
      </trkpt>
      <trkpt lat="45.13775" lon="6.46299">
        <ele>1993.74</ele>
        <time>2016-08-13T10:24:09Z</time>
      </trkpt>
      <trkpt lat="45.13794" lon="6.46291">
        <ele>1996.38</ele>
        <time>2016-08-13T10:24:19Z</time>
      </trkpt>
      <trkpt lat="45.13813" lon="6.46287">
        <ele>1999.4</ele>
        <time>2016-08-13T10:24:29Z</time>
      </trkpt>
      <trkpt lat="45.13831" lon="6.46299">
        <ele>2001.91</ele>
        <time>2016-08-13T10:24:39Z</time>
      </trkpt>
      <trkpt lat="45.13845" lon="6.46319">
        <ele>2003.52</ele>
        <time>2016-08-13T10:24:48Z</time>
      </trkpt>
      <trkpt lat="45.13862" lon="6.46334">
        <ele>2005.85</ele>
        <time>2016-08-13T10:24:57Z</time>
      </trkpt>
      <trkpt lat="45.1388" lon="6.4634">
        <ele>2007.72</ele>
        <time>2016-08-13T10:25:05Z</time>
      </trkpt>
      <trkpt lat="45.13898" lon="6.46343">
        <ele>2009.09</ele>
        <time>2016-08-13T10:25:14Z</time>
      </trkpt>
      <trkpt lat="45.13914" lon="6.46357">
        <ele>2010.26</ele>
        <time>2016-08-13T10:25:22Z</time>
      </trkpt>
      <trkpt lat="45.13926" lon="6.46378">
        <ele>2011.56</ele>
        <time>2016-08-13T10:25:30Z</time>
      </trkpt>
      <trkpt lat="45.13939" lon="6.46397">
        <ele>2014.5</ele>
        <time>2016-08-13T10:25:39Z</time>
      </trkpt>
      <trkpt lat="45.13957" lon="6.46406">
        <ele>2015.85</ele>
        <time>2016-08-13T10:25:47Z</time>
      </trkpt>
      <trkpt lat="45.13976" lon="6.46411">
        <ele>2016.75</ele>
        <time>2016-08-13T10:25:54Z</time>
      </trkpt>
      <trkpt lat="45.13995" lon="6.46402">
        <ele>2018.49</ele>
        <time>2016-08-13T10:26:02Z</time>
      </trkpt>
      <trkpt lat="45.14015" lon="6.46397">
        <ele>2020.94</ele>
        <time>2016-08-13T10:26:11Z</time>
      </trkpt>
      <trkpt lat="45.14033" lon="6.4639">
        <ele>2022.85</ele>
        <time>2016-08-13T10:26:20Z</time>
      </trkpt>
      <trkpt lat="45.14048" lon="6.46374">
        <ele>2024.97</ele>
        <time>2016-08-13T10:26:28Z</time>
      </trkpt>
      <trkpt lat="45.14067" lon="6.46364">
        <ele>2026.76</ele>
        <time>2016-08-13T10:26:37Z</time>
      </trkpt>
      <trkpt lat="45.14084" lon="6.46349">
        <ele>2028.36</ele>
        <time>2016-08-13T10:26:45Z</time>
      </trkpt>
      <trkpt lat="45.14098" lon="6.46331">
        <ele>2031.14</ele>
        <time>2016-08-13T10:26:54Z</time>
      </trkpt>
      <trkpt lat="45.14114" lon="6.46315">
        <ele>2033.06</ele>
        <time>2016-08-13T10:27:04Z</time>
      </trkpt>
      <trkpt lat="45.14132" lon="6.46303">
        <ele>2034.78</ele>
        <time>2016-08-13T10:27:13Z</time>
      </trkpt>
      <trkpt lat="45.14149" lon="6.46292">
        <ele>2036.5</ele>
        <time>2016-08-13T10:27:22Z</time>
      </trkpt>
      <trkpt lat="45.14167" lon="6.46283">
        <ele>2038.68</ele>
        <time>2016-08-13T10:27:31Z</time>
      </trkpt>
      <trkpt lat="45.14185" lon="6.46273">
        <ele>2041.74</ele>
        <time>2016-08-13T10:27:42Z</time>
      </trkpt>
      <trkpt lat="45.14203" lon="6.46272">
        <ele>2044.36</ele>
        <time>2016-08-13T10:27:52Z</time>
      </trkpt>
      <trkpt lat="45.14221" lon="6.46284">
        <ele>2047.14</ele>
        <time>2016-08-13T10:28:04Z</time>
      </trkpt>
      <trkpt lat="45.14235" lon="6.46301">
        <ele>2049.42</ele>
        <time>2016-08-13T10:28:15Z</time>
      </trkpt>
      <trkpt lat="45.14251" lon="6.46317">
        <ele>2052.82</ele>
        <time>2016-08-13T10:28:28Z</time>
      </trkpt>
      <trkpt lat="45.14261" lon="6.46339">
        <ele>2055.67</ele>
        <time>2016-08-13T10:28:39Z</time>
      </trkpt>
      <trkpt lat="45.14274" lon="6.46358">
        <ele>2057.58</ele>
        <time>2016-08-13T10:28:47Z</time>
      </trkpt>
      <trkpt lat="45.14283" lon="6.46381">
        <ele>2058.82</ele>
        <time>2016-08-13T10:28:55Z</time>
      </trkpt>
      <trkpt lat="45.143" lon="6.46395">
        <ele>2060.4</ele>
        <time>2016-08-13T10:29:04Z</time>
      </trkpt>
      <trkpt lat="45.14318" lon="6.46401">
        <ele>2062.62</ele>
        <time>2016-08-13T10:29:13Z</time>
      </trkpt>
      <trkpt lat="45.14337" lon="6.46403">
        <ele>2065.38</ele>
        <time>2016-08-13T10:29:23Z</time>
      </trkpt>
      <trkpt lat="45.14355" lon="6.46395">
        <ele>2068.45</ele>
        <time>2016-08-13T10:29:33Z</time>
      </trkpt>
      <trkpt lat="45.14373" lon="6.46383">
        <ele>2071.86</ele>
        <time>2016-08-13T10:29:43Z</time>
      </trkpt>
      <trkpt lat="45.14391" lon="6.46376">
        <ele>2073.84</ele>
        <time>2016-08-13T10:29:52Z</time>
      </trkpt>
      <trkpt lat="45.14408" lon="6.46364">
        <ele>2075.63</ele>
        <time>2016-08-13T10:30:01Z</time>
      </trkpt>
      <trkpt lat="45.1442" lon="6.46343">
        <ele>2076.75</ele>
        <time>2016-08-13T10:30:10Z</time>
      </trkpt>
      <trkpt lat="45.14429" lon="6.46321">
        <ele>2078</ele>
        <time>2016-08-13T10:30:18Z</time>
      </trkpt>
      <trkpt lat="45.1444" lon="6.463">
        <ele>2079.8</ele>
        <time>2016-08-13T10:30:27Z</time>
      </trkpt>
      <trkpt lat="45.14452" lon="6.46281">
        <ele>2082.26</ele>
        <time>2016-08-13T10:30:36Z</time>
      </trkpt>
      <trkpt lat="45.14468" lon="6.46266">
        <ele>2083.97</ele>
        <time>2016-08-13T10:31:19Z</time>
      </trkpt>
      <trkpt lat="45.14485" lon="6.46258">
        <ele>2085.88</ele>
        <time>2016-08-13T10:31:29Z</time>
      </trkpt>
      <trkpt lat="45.14504" lon="6.46249">
        <ele>2087.34</ele>
        <time>2016-08-13T10:31:39Z</time>
      </trkpt>
      <trkpt lat="45.14521" lon="6.4624">
        <ele>2089.35</ele>
        <time>2016-08-13T10:31:49Z</time>
      </trkpt>
      <trkpt lat="45.14539" lon="6.46229">
        <ele>2091.73</ele>
        <time>2016-08-13T10:32:00Z</time>
      </trkpt>
      <trkpt lat="45.14557" lon="6.46219">
        <ele>2093.91</ele>
        <time>2016-08-13T10:32:10Z</time>
      </trkpt>
      <trkpt lat="45.14575" lon="6.46212">
        <ele>2095.7</ele>
        <time>2016-08-13T10:32:20Z</time>
      </trkpt>
      <trkpt lat="45.14594" lon="6.46213">
        <ele>2097.83</ele>
        <time>2016-08-13T10:32:31Z</time>
      </trkpt>
      <trkpt lat="45.14612" lon="6.46217">
        <ele>2100.14</ele>
        <time>2016-08-13T10:32:42Z</time>
      </trkpt>
      <trkpt lat="45.14631" lon="6.46218">
        <ele>2102.47</ele>
        <time>2016-08-13T10:32:52Z</time>
      </trkpt>
      <trkpt lat="45.1465" lon="6.46221">
        <ele>2104.5</ele>
        <time>2016-08-13T10:33:01Z</time>
      </trkpt>
      <trkpt lat="45.14668" lon="6.46222">
        <ele>2106.44</ele>
        <time>2016-08-13T10:33:12Z</time>
      </trkpt>
      <trkpt lat="45.14687" lon="6.46225">
        <ele>2108.68</ele>
        <time>2016-08-13T10:33:24Z</time>
      </trkpt>
      <trkpt lat="45.14706" lon="6.46231">
        <ele>2110.69</ele>
        <time>2016-08-13T10:33:34Z</time>
      </trkpt>
      <trkpt lat="45.14726" lon="6.46236">
        <ele>2112.3</ele>
        <time>2016-08-13T10:33:44Z</time>
      </trkpt>
      <trkpt lat="45.14745" lon="6.46238">
        <ele>2113.54</ele>
        <time>2016-08-13T10:33:52Z</time>
      </trkpt>
      <trkpt lat="45.14764" lon="6.4624">
        <ele>2115.23</ele>
        <time>2016-08-13T10:34:01Z</time>
      </trkpt>
      <trkpt lat="45.14783" lon="6.46244">
        <ele>2117.03</ele>
        <time>2016-08-13T10:34:11Z</time>
      </trkpt>
      <trkpt lat="45.14801" lon="6.46245">
        <ele>2118.64</ele>
        <time>2016-08-13T10:34:20Z</time>
      </trkpt>
      <trkpt lat="45.14819" lon="6.46243">
        <ele>2120.49</ele>
        <time>2016-08-13T10:34:30Z</time>
      </trkpt>
      <trkpt lat="45.14838" lon="6.4624">
        <ele>2122.52</ele>
        <time>2016-08-13T10:34:40Z</time>
      </trkpt>
      <trkpt lat="45.14858" lon="6.4624">
        <ele>2124.68</ele>
        <time>2016-08-13T10:34:50Z</time>
      </trkpt>
      <trkpt lat="45.14876" lon="6.46247">
        <ele>2127.49</ele>
        <time>2016-08-13T10:35:01Z</time>
      </trkpt>
      <trkpt lat="45.14895" lon="6.46252">
        <ele>2129.66</ele>
        <time>2016-08-13T10:35:11Z</time>
      </trkpt>
      <trkpt lat="45.14911" lon="6.46262">
        <ele>2132.01</ele>
        <time>2016-08-13T10:35:21Z</time>
      </trkpt>
      <trkpt lat="45.14925" lon="6.46279">
        <ele>2134.89</ele>
        <time>2016-08-13T10:35:32Z</time>
      </trkpt>
      <trkpt lat="45.14939" lon="6.46298">
        <ele>2137.52</ele>
        <time>2016-08-13T10:35:43Z</time>
      </trkpt>
      <trkpt lat="45.14952" lon="6.46315">
        <ele>2139.52</ele>
        <time>2016-08-13T10:35:52Z</time>
      </trkpt>
      <trkpt lat="45.14968" lon="6.46332">
        <ele>2141.46</ele>
        <time>2016-08-13T10:36:02Z</time>
      </trkpt>
      <trkpt lat="45.1498" lon="6.46354">
        <ele>2143.07</ele>
        <time>2016-08-13T10:36:12Z</time>
      </trkpt>
      <trkpt lat="45.14991" lon="6.46376">
        <ele>2144.3</ele>
        <time>2016-08-13T10:36:21Z</time>
      </trkpt>
      <trkpt lat="45.15005" lon="6.46396">
        <ele>2145.69</ele>
        <time>2016-08-13T10:36:30Z</time>
      </trkpt>
      <trkpt lat="45.15022" lon="6.46409">
        <ele>2148.01</ele>
        <time>2016-08-13T10:36:40Z</time>
      </trkpt>
      <trkpt lat="45.15041" lon="6.46416">
        <ele>2149.26</ele>
        <time>2016-08-13T10:36:48Z</time>
      </trkpt>
      <trkpt lat="45.15058" lon="6.4643">
        <ele>2150.51</ele>
        <time>2016-08-13T10:36:56Z</time>
      </trkpt>
      <trkpt lat="45.15073" lon="6.4645">
        <ele>2151.87</ele>
        <time>2016-08-13T10:37:04Z</time>
      </trkpt>
      <trkpt lat="45.15086" lon="6.46467">
        <ele>2152.68</ele>
        <time>2016-08-13T10:37:11Z</time>
      </trkpt>
      <trkpt lat="45.15102" lon="6.46486">
        <ele>2153.46</ele>
        <time>2016-08-13T10:37:19Z</time>
      </trkpt>
      <trkpt lat="45.15119" lon="6.465">
        <ele>2154.49</ele>
        <time>2016-08-13T10:37:27Z</time>
      </trkpt>
      <trkpt lat="45.15135" lon="6.46512">
        <ele>2155.18</ele>
        <time>2016-08-13T10:37:34Z</time>
      </trkpt>
      <trkpt lat="45.15153" lon="6.46521">
        <ele>2155.52</ele>
        <time>2016-08-13T10:37:41Z</time>
      </trkpt>
      <trkpt lat="45.15171" lon="6.46524">
        <ele>2156.12</ele>
        <time>2016-08-13T10:37:48Z</time>
      </trkpt>
      <trkpt lat="45.15192" lon="6.46524">
        <ele>2156.62</ele>
        <time>2016-08-13T10:37:55Z</time>
      </trkpt>
      <trkpt lat="45.1521" lon="6.46524">
        <ele>2157.33</ele>
        <time>2016-08-13T10:38:02Z</time>
      </trkpt>
      <trkpt lat="45.15229" lon="6.46526">
        <ele>2158.02</ele>
        <time>2016-08-13T10:38:09Z</time>
      </trkpt>
      <trkpt lat="45.1525" lon="6.46527">
        <ele>2159.39</ele>
        <time>2016-08-13T10:38:17Z</time>
      </trkpt>
      <trkpt lat="45.15268" lon="6.46529">
        <ele>2161.1</ele>
        <time>2016-08-13T10:38:25Z</time>
      </trkpt>
      <trkpt lat="45.15288" lon="6.4653">
        <ele>2163.15</ele>
        <time>2016-08-13T10:38:34Z</time>
      </trkpt>
      <trkpt lat="45.15307" lon="6.46534">
        <ele>2164.01</ele>
        <time>2016-08-13T10:38:41Z</time>
      </trkpt>
      <trkpt lat="45.15325" lon="6.46538">
        <ele>2164.89</ele>
        <time>2016-08-13T10:38:48Z</time>
      </trkpt>
      <trkpt lat="45.15345" lon="6.46538">
        <ele>2164.7</ele>
        <time>2016-08-13T10:38:55Z</time>
      </trkpt>
      <trkpt lat="45.15366" lon="6.46538">
        <ele>2164.93</ele>
        <time>2016-08-13T10:39:01Z</time>
      </trkpt>
      <trkpt lat="45.15384" lon="6.46538">
        <ele>2164.73</ele>
        <time>2016-08-13T10:39:06Z</time>
      </trkpt>
      <trkpt lat="45.15405" lon="6.46539">
        <ele>2164.37</ele>
        <time>2016-08-13T10:39:12Z</time>
      </trkpt>
      <trkpt lat="45.15423" lon="6.46535">
        <ele>2165.18</ele>
        <time>2016-08-13T10:39:18Z</time>
      </trkpt>
      <trkpt lat="45.15441" lon="6.46527">
        <ele>2165.81</ele>
        <time>2016-08-13T10:39:24Z</time>
      </trkpt>
      <trkpt lat="45.15459" lon="6.46517">
        <ele>2165.97</ele>
        <time>2016-08-13T10:39:30Z</time>
      </trkpt>
      <trkpt lat="45.15477" lon="6.46506">
        <ele>2167.23</ele>
        <time>2016-08-13T10:39:38Z</time>
      </trkpt>
      <trkpt lat="45.15494" lon="6.46497">
        <ele>2170.09</ele>
        <time>2016-08-13T10:39:48Z</time>
      </trkpt>
      <trkpt lat="45.1551" lon="6.46484">
        <ele>2172.82</ele>
        <time>2016-08-13T10:39:58Z</time>
      </trkpt>
      <trkpt lat="45.15528" lon="6.46477">
        <ele>2175.38</ele>
        <time>2016-08-13T10:40:08Z</time>
      </trkpt>
      <trkpt lat="45.15546" lon="6.46475">
        <ele>2177.88</ele>
        <time>2016-08-13T10:40:18Z</time>
      </trkpt>
      <trkpt lat="45.15561" lon="6.46457">
        <ele>2180.93</ele>
        <time>2016-08-13T10:40:29Z</time>
      </trkpt>
      <trkpt lat="45.15578" lon="6.46442">
        <ele>2182.95</ele>
        <time>2016-08-13T10:40:39Z</time>
      </trkpt>
      <trkpt lat="45.15596" lon="6.46431">
        <ele>2184.57</ele>
        <time>2016-08-13T10:40:48Z</time>
      </trkpt>
      <trkpt lat="45.15616" lon="6.4643">
        <ele>2185.79</ele>
        <time>2016-08-13T10:40:57Z</time>
      </trkpt>
      <trkpt lat="45.15634" lon="6.46439">
        <ele>2187.51</ele>
        <time>2016-08-13T10:41:06Z</time>
      </trkpt>
      <trkpt lat="45.15653" lon="6.46441">
        <ele>2189.97</ele>
        <time>2016-08-13T10:41:16Z</time>
      </trkpt>
      <trkpt lat="45.15672" lon="6.46436">
        <ele>2191.24</ele>
        <time>2016-08-13T10:41:25Z</time>
      </trkpt>
      <trkpt lat="45.1569" lon="6.46432">
        <ele>2192.07</ele>
        <time>2016-08-13T10:41:36Z</time>
      </trkpt>
      <trkpt lat="45.15708" lon="6.46425">
        <ele>2192.05</ele>
        <time>2016-08-13T10:41:47Z</time>
      </trkpt>
      <trkpt lat="45.15728" lon="6.46426">
        <ele>2194.55</ele>
        <time>2016-08-13T10:41:57Z</time>
      </trkpt>
      <trkpt lat="45.15743" lon="6.46409">
        <ele>2197.5</ele>
        <time>2016-08-13T10:42:08Z</time>
      </trkpt>
      <trkpt lat="45.15763" lon="6.46401">
        <ele>2199.26</ele>
        <time>2016-08-13T10:42:19Z</time>
      </trkpt>
      <trkpt lat="45.15782" lon="6.46394">
        <ele>2200.6</ele>
        <time>2016-08-13T10:42:28Z</time>
      </trkpt>
      <trkpt lat="45.158" lon="6.46384">
        <ele>2202.4</ele>
        <time>2016-08-13T10:42:37Z</time>
      </trkpt>
      <trkpt lat="45.15813" lon="6.46365">
        <ele>2204.88</ele>
        <time>2016-08-13T10:42:47Z</time>
      </trkpt>
      <trkpt lat="45.15824" lon="6.46342">
        <ele>2206.51</ele>
        <time>2016-08-13T10:42:56Z</time>
      </trkpt>
      <trkpt lat="45.15832" lon="6.46318">
        <ele>2208.93</ele>
        <time>2016-08-13T10:43:06Z</time>
      </trkpt>
      <trkpt lat="45.15849" lon="6.46303">
        <ele>2211.35</ele>
        <time>2016-08-13T10:43:17Z</time>
      </trkpt>
      <trkpt lat="45.15866" lon="6.46316">
        <ele>2211.97</ele>
        <time>2016-08-13T10:45:01Z</time>
      </trkpt>
      <trkpt lat="45.15876" lon="6.46338">
        <ele>2215.01</ele>
        <time>2016-08-13T10:45:11Z</time>
      </trkpt>
      <trkpt lat="45.1589" lon="6.46356">
        <ele>2218.01</ele>
        <time>2016-08-13T10:45:21Z</time>
      </trkpt>
      <trkpt lat="45.15907" lon="6.46366">
        <ele>2220.4</ele>
        <time>2016-08-13T10:45:30Z</time>
      </trkpt>
      <trkpt lat="45.15921" lon="6.46383">
        <ele>2221.86</ele>
        <time>2016-08-13T10:45:39Z</time>
      </trkpt>
      <trkpt lat="45.15937" lon="6.46399">
        <ele>2223.67</ele>
        <time>2016-08-13T10:45:49Z</time>
      </trkpt>
      <trkpt lat="45.15952" lon="6.46415">
        <ele>2226.64</ele>
        <time>2016-08-13T10:45:59Z</time>
      </trkpt>
      <trkpt lat="45.1597" lon="6.46423">
        <ele>2229.76</ele>
        <time>2016-08-13T10:46:09Z</time>
      </trkpt>
      <trkpt lat="45.15974" lon="6.4645">
        <ele>2234.8</ele>
        <time>2016-08-13T10:46:22Z</time>
      </trkpt>
      <trkpt lat="45.15957" lon="6.4646">
        <ele>2237.51</ele>
        <time>2016-08-13T10:46:32Z</time>
      </trkpt>
      <trkpt lat="45.15952" lon="6.46485">
        <ele>2241.5</ele>
        <time>2016-08-13T10:46:45Z</time>
      </trkpt>
      <trkpt lat="45.15967" lon="6.46501">
        <ele>2245.29</ele>
        <time>2016-08-13T10:46:56Z</time>
      </trkpt>
      <trkpt lat="45.15976" lon="6.46523">
        <ele>2247.25</ele>
        <time>2016-08-13T10:47:05Z</time>
      </trkpt>
      <trkpt lat="45.15987" lon="6.46546">
        <ele>2251.01</ele>
        <time>2016-08-13T10:47:16Z</time>
      </trkpt>
      <trkpt lat="45.15997" lon="6.46571">
        <ele>2255.61</ele>
        <time>2016-08-13T10:47:27Z</time>
      </trkpt>
      <trkpt lat="45.16009" lon="6.46591">
        <ele>2258.08</ele>
        <time>2016-08-13T10:47:38Z</time>
      </trkpt>
      <trkpt lat="45.16016" lon="6.46616">
        <ele>2260.75</ele>
        <time>2016-08-13T10:47:49Z</time>
      </trkpt>
      <trkpt lat="45.16019" lon="6.46642">
        <ele>2264.19</ele>
        <time>2016-08-13T10:48:00Z</time>
      </trkpt>
      <trkpt lat="45.16004" lon="6.46658">
        <ele>2268.51</ele>
        <time>2016-08-13T10:48:13Z</time>
      </trkpt>
      <trkpt lat="45.15985" lon="6.46661">
        <ele>2272.02</ele>
        <time>2016-08-13T10:48:24Z</time>
      </trkpt>
      <trkpt lat="45.15966" lon="6.46653">
        <ele>2275.62</ele>
        <time>2016-08-13T10:48:36Z</time>
      </trkpt>
      <trkpt lat="45.15947" lon="6.46647">
        <ele>2278.11</ele>
        <time>2016-08-13T10:48:48Z</time>
      </trkpt>
      <trkpt lat="45.15929" lon="6.46647">
        <ele>2281.13</ele>
        <time>2016-08-13T10:48:58Z</time>
      </trkpt>
      <trkpt lat="45.15921" lon="6.46672">
        <ele>2284.26</ele>
        <time>2016-08-13T10:49:08Z</time>
      </trkpt>
      <trkpt lat="45.15922" lon="6.46698">
        <ele>2287.99</ele>
        <time>2016-08-13T10:49:18Z</time>
      </trkpt>
      <trkpt lat="45.15913" lon="6.46723">
        <ele>2292.51</ele>
        <time>2016-08-13T10:49:31Z</time>
      </trkpt>
      <trkpt lat="45.15909" lon="6.46748">
        <ele>2293.69</ele>
        <time>2016-08-13T10:50:18Z</time>
      </trkpt>
      <trkpt lat="45.15908" lon="6.46774">
        <ele>2294.69</ele>
        <time>2016-08-13T10:50:26Z</time>
      </trkpt>
      <trkpt lat="45.15899" lon="6.46795">
        <ele>2296.16</ele>
        <time>2016-08-13T10:50:35Z</time>
      </trkpt>
      <trkpt lat="45.15885" lon="6.46813">
        <ele>2297.3</ele>
        <time>2016-08-13T10:50:43Z</time>
      </trkpt>
      <trkpt lat="45.15873" lon="6.46832">
        <ele>2299.09</ele>
        <time>2016-08-13T10:50:53Z</time>
      </trkpt>
      <trkpt lat="45.15859" lon="6.46849">
        <ele>2301.39</ele>
        <time>2016-08-13T10:51:03Z</time>
      </trkpt>
      <trkpt lat="45.15844" lon="6.46865">
        <ele>2303.63</ele>
        <time>2016-08-13T10:51:13Z</time>
      </trkpt>
      <trkpt lat="45.15827" lon="6.4688">
        <ele>2305.7</ele>
        <time>2016-08-13T10:51:24Z</time>
      </trkpt>
      <trkpt lat="45.1581" lon="6.46891">
        <ele>2308.4</ele>
        <time>2016-08-13T10:51:35Z</time>
      </trkpt>
      <trkpt lat="45.15794" lon="6.46903">
        <ele>2311.7</ele>
        <time>2016-08-13T10:51:47Z</time>
      </trkpt>
      <trkpt lat="45.1578" lon="6.46922">
        <ele>2314.44</ele>
        <time>2016-08-13T10:51:58Z</time>
      </trkpt>
      <trkpt lat="45.15766" lon="6.46939">
        <ele>2316.27</ele>
        <time>2016-08-13T10:52:08Z</time>
      </trkpt>
      <trkpt lat="45.15751" lon="6.46957">
        <ele>2318.95</ele>
        <time>2016-08-13T10:52:19Z</time>
      </trkpt>
      <trkpt lat="45.15735" lon="6.4697">
        <ele>2321.76</ele>
        <time>2016-08-13T10:52:30Z</time>
      </trkpt>
      <trkpt lat="45.15721" lon="6.46987">
        <ele>2324.4</ele>
        <time>2016-08-13T10:52:42Z</time>
      </trkpt>
      <trkpt lat="45.15709" lon="6.47005">
        <ele>2327</ele>
        <time>2016-08-13T10:52:53Z</time>
      </trkpt>
      <trkpt lat="45.15694" lon="6.47023">
        <ele>2329.71</ele>
        <time>2016-08-13T10:53:05Z</time>
      </trkpt>
      <trkpt lat="45.15679" lon="6.47039">
        <ele>2331.56</ele>
        <time>2016-08-13T10:53:15Z</time>
      </trkpt>
      <trkpt lat="45.15663" lon="6.47052">
        <ele>2333.06</ele>
        <time>2016-08-13T10:53:25Z</time>
      </trkpt>
      <trkpt lat="45.15648" lon="6.47067">
        <ele>2335.39</ele>
        <time>2016-08-13T10:53:36Z</time>
      </trkpt>
      <trkpt lat="45.15634" lon="6.47088">
        <ele>2337.02</ele>
        <time>2016-08-13T10:53:46Z</time>
      </trkpt>
      <trkpt lat="45.15623" lon="6.4711">
        <ele>2338.83</ele>
        <time>2016-08-13T10:53:56Z</time>
      </trkpt>
      <trkpt lat="45.1561" lon="6.47129">
        <ele>2340.37</ele>
        <time>2016-08-13T10:54:06Z</time>
      </trkpt>
      <trkpt lat="45.15597" lon="6.47147">
        <ele>2341.88</ele>
        <time>2016-08-13T10:54:16Z</time>
      </trkpt>
      <trkpt lat="45.15584" lon="6.47166">
        <ele>2343.78</ele>
        <time>2016-08-13T10:54:27Z</time>
      </trkpt>
      <trkpt lat="45.15569" lon="6.47183">
        <ele>2344.65</ele>
        <time>2016-08-13T10:55:14Z</time>
      </trkpt>
      <trkpt lat="45.15554" lon="6.47198">
        <ele>2343.74</ele>
        <time>2016-08-13T10:55:20Z</time>
      </trkpt>
      <trkpt lat="45.15534" lon="6.47212">
        <ele>2342.17</ele>
        <time>2016-08-13T10:55:24Z</time>
      </trkpt>
      <trkpt lat="45.15513" lon="6.47225">
        <ele>2340.34</ele>
        <time>2016-08-13T10:55:28Z</time>
      </trkpt>
      <trkpt lat="45.15496" lon="6.47237">
        <ele>2339.12</ele>
        <time>2016-08-13T10:55:31Z</time>
      </trkpt>
      <trkpt lat="45.15476" lon="6.47254">
        <ele>2337.13</ele>
        <time>2016-08-13T10:55:34Z</time>
      </trkpt>
      <trkpt lat="45.1546" lon="6.47266">
        <ele>2335.22</ele>
        <time>2016-08-13T10:55:36Z</time>
      </trkpt>
      <trkpt lat="45.15442" lon="6.47278">
        <ele>2333.35</ele>
        <time>2016-08-13T10:55:38Z</time>
      </trkpt>
      <trkpt lat="45.15424" lon="6.47289">
        <ele>2330.95</ele>
        <time>2016-08-13T10:55:40Z</time>
      </trkpt>
      <trkpt lat="45.15406" lon="6.47299">
        <ele>2328.38</ele>
        <time>2016-08-13T10:55:42Z</time>
      </trkpt>
      <trkpt lat="45.15389" lon="6.47313">
        <ele>2326.05</ele>
        <time>2016-08-13T10:55:44Z</time>
      </trkpt>
      <trkpt lat="45.15374" lon="6.47326">
        <ele>2323.72</ele>
        <time>2016-08-13T10:55:46Z</time>
      </trkpt>
      <trkpt lat="45.15356" lon="6.47343">
        <ele>2321.51</ele>
        <time>2016-08-13T10:55:49Z</time>
      </trkpt>
      <trkpt lat="45.15333" lon="6.47347">
        <ele>2320.08</ele>
        <time>2016-08-13T10:55:52Z</time>
      </trkpt>
      <trkpt lat="45.15314" lon="6.47352">
        <ele>2321.88</ele>
        <time>2016-08-13T10:55:57Z</time>
      </trkpt>
      <trkpt lat="45.15295" lon="6.47355">
        <ele>2324.38</ele>
        <time>2016-08-13T10:56:06Z</time>
      </trkpt>
      <trkpt lat="45.15276" lon="6.47358">
        <ele>2327.24</ele>
        <time>2016-08-13T10:56:15Z</time>
      </trkpt>
      <trkpt lat="45.15258" lon="6.47359">
        <ele>2330.18</ele>
        <time>2016-08-13T10:56:25Z</time>
      </trkpt>
      <trkpt lat="45.1524" lon="6.47355">
        <ele>2332.48</ele>
        <time>2016-08-13T10:56:34Z</time>
      </trkpt>
      <trkpt lat="45.15221" lon="6.47354">
        <ele>2334.76</ele>
        <time>2016-08-13T10:56:44Z</time>
      </trkpt>
      <trkpt lat="45.15202" lon="6.47356">
        <ele>2337.28</ele>
        <time>2016-08-13T10:56:53Z</time>
      </trkpt>
      <trkpt lat="45.15182" lon="6.47356">
        <ele>2341.39</ele>
        <time>2016-08-13T10:57:03Z</time>
      </trkpt>
      <trkpt lat="45.15163" lon="6.47356">
        <ele>2345.4</ele>
        <time>2016-08-13T10:57:14Z</time>
      </trkpt>
      <trkpt lat="45.15144" lon="6.47359">
        <ele>2348.79</ele>
        <time>2016-08-13T10:57:25Z</time>
      </trkpt>
      <trkpt lat="45.15124" lon="6.47363">
        <ele>2351.89</ele>
        <time>2016-08-13T10:57:35Z</time>
      </trkpt>
      <trkpt lat="45.15106" lon="6.47367">
        <ele>2355.42</ele>
        <time>2016-08-13T10:57:46Z</time>
      </trkpt>
      <trkpt lat="45.15086" lon="6.47369">
        <ele>2358.58</ele>
        <time>2016-08-13T10:57:57Z</time>
      </trkpt>
      <trkpt lat="45.15067" lon="6.47371">
        <ele>2361.8</ele>
        <time>2016-08-13T10:58:08Z</time>
      </trkpt>
      <trkpt lat="45.1505" lon="6.47377">
        <ele>2365.27</ele>
        <time>2016-08-13T10:58:19Z</time>
      </trkpt>
      <trkpt lat="45.15031" lon="6.47384">
        <ele>2367.35</ele>
        <time>2016-08-13T10:58:29Z</time>
      </trkpt>
      <trkpt lat="45.15013" lon="6.47386">
        <ele>2368.25</ele>
        <time>2016-08-13T10:58:39Z</time>
      </trkpt>
      <trkpt lat="45.14993" lon="6.47389">
        <ele>2369.9</ele>
        <time>2016-08-13T10:58:49Z</time>
      </trkpt>
      <trkpt lat="45.14974" lon="6.47389">
        <ele>2371.7</ele>
        <time>2016-08-13T10:58:58Z</time>
      </trkpt>
      <trkpt lat="45.14954" lon="6.47387">
        <ele>2373.03</ele>
        <time>2016-08-13T10:59:07Z</time>
      </trkpt>
      <trkpt lat="45.14937" lon="6.47395">
        <ele>2374.03</ele>
        <time>2016-08-13T10:59:16Z</time>
      </trkpt>
      <trkpt lat="45.14918" lon="6.47392">
        <ele>2375.34</ele>
        <time>2016-08-13T10:59:26Z</time>
      </trkpt>
      <trkpt lat="45.14899" lon="6.47383">
        <ele>2376.89</ele>
        <time>2016-08-13T10:59:35Z</time>
      </trkpt>
      <trkpt lat="45.14881" lon="6.47382">
        <ele>2379.68</ele>
        <time>2016-08-13T10:59:44Z</time>
      </trkpt>
      <trkpt lat="45.14863" lon="6.47384">
        <ele>2383.17</ele>
        <time>2016-08-13T10:59:53Z</time>
      </trkpt>
      <trkpt lat="45.14844" lon="6.47384">
        <ele>2387.5</ele>
        <time>2016-08-13T11:00:03Z</time>
      </trkpt>
      <trkpt lat="45.14826" lon="6.4738">
        <ele>2390.31</ele>
        <time>2016-08-13T11:00:12Z</time>
      </trkpt>
      <trkpt lat="45.14806" lon="6.47377">
        <ele>2393.31</ele>
        <time>2016-08-13T11:00:23Z</time>
      </trkpt>
      <trkpt lat="45.14786" lon="6.47377">
        <ele>2395.31</ele>
        <time>2016-08-13T11:00:34Z</time>
      </trkpt>
      <trkpt lat="45.14779" lon="6.47401">
        <ele>2395.02</ele>
        <time>2016-08-13T11:00:51Z</time>
      </trkpt>
      <trkpt lat="45.14772" lon="6.47428">
        <ele>2391.2</ele>
        <time>2016-08-13T11:01:05Z</time>
      </trkpt>
      <trkpt lat="45.14754" lon="6.47432">
        <ele>2387.97</ele>
        <time>2016-08-13T11:01:14Z</time>
      </trkpt>
      <trkpt lat="45.14736" lon="6.47424">
        <ele>2387.37</ele>
        <time>2016-08-13T11:01:25Z</time>
      </trkpt>
      <trkpt lat="45.1472" lon="6.47411">
        <ele>2386.89</ele>
        <time>2016-08-13T11:01:33Z</time>
      </trkpt>
      <trkpt lat="45.14703" lon="6.47402">
        <ele>2386.45</ele>
        <time>2016-08-13T11:01:41Z</time>
      </trkpt>
      <trkpt lat="45.14688" lon="6.47418">
        <ele>2386.97</ele>
        <time>2016-08-13T11:02:07Z</time>
      </trkpt>
      <trkpt lat="45.14673" lon="6.47436">
        <ele>2386.76</ele>
        <time>2016-08-13T11:02:13Z</time>
      </trkpt>
      <trkpt lat="45.14656" lon="6.47448">
        <ele>2385.06</ele>
        <time>2016-08-13T11:02:20Z</time>
      </trkpt>
      <trkpt lat="45.14638" lon="6.47458">
        <ele>2386.03</ele>
        <time>2016-08-13T11:02:28Z</time>
      </trkpt>
      <trkpt lat="45.14622" lon="6.47471">
        <ele>2388.6</ele>
        <time>2016-08-13T11:02:38Z</time>
      </trkpt>
      <trkpt lat="45.14605" lon="6.47488">
        <ele>2387.47</ele>
        <time>2016-08-13T11:02:47Z</time>
      </trkpt>
      <trkpt lat="45.14592" lon="6.47508">
        <ele>2386.32</ele>
        <time>2016-08-13T11:02:53Z</time>
      </trkpt>
      <trkpt lat="45.14574" lon="6.47522">
        <ele>2385.9</ele>
        <time>2016-08-13T11:03:02Z</time>
      </trkpt>
      <trkpt lat="45.14557" lon="6.47537">
        <ele>2384.5</ele>
        <time>2016-08-13T11:03:10Z</time>
      </trkpt>
      <trkpt lat="45.14543" lon="6.47554">
        <ele>2384.64</ele>
        <time>2016-08-13T11:04:06Z</time>
      </trkpt>
      <trkpt lat="45.14529" lon="6.47572">
        <ele>2387.51</ele>
        <time>2016-08-13T11:04:23Z</time>
      </trkpt>
      <trkpt lat="45.14512" lon="6.47583">
        <ele>2387.62</ele>
        <time>2016-08-13T11:04:35Z</time>
      </trkpt>
      <trkpt lat="45.14496" lon="6.47596">
        <ele>2388.36</ele>
        <time>2016-08-13T11:04:43Z</time>
      </trkpt>
      <trkpt lat="45.1448" lon="6.4761">
        <ele>2389.31</ele>
        <time>2016-08-13T11:04:52Z</time>
      </trkpt>
      <trkpt lat="45.14471" lon="6.47635">
        <ele>2387.88</ele>
        <time>2016-08-13T11:05:02Z</time>
      </trkpt>
      <trkpt lat="45.14459" lon="6.47655">
        <ele>2385.9</ele>
        <time>2016-08-13T11:05:10Z</time>
      </trkpt>
      <trkpt lat="45.14444" lon="6.47669">
        <ele>2387.28</ele>
        <time>2016-08-13T11:05:19Z</time>
      </trkpt>
      <trkpt lat="45.14427" lon="6.47684">
        <ele>2387.97</ele>
        <time>2016-08-13T11:05:29Z</time>
      </trkpt>
      <trkpt lat="45.14411" lon="6.47701">
        <ele>2389.07</ele>
        <time>2016-08-13T11:05:40Z</time>
      </trkpt>
      <trkpt lat="45.14393" lon="6.47712">
        <ele>2388.91</ele>
        <time>2016-08-13T11:05:46Z</time>
      </trkpt>
      <trkpt lat="45.14375" lon="6.4773">
        <ele>2386.48</ele>
        <time>2016-08-13T11:06:53Z</time>
      </trkpt>
      <trkpt lat="45.14362" lon="6.47751">
        <ele>2383.76</ele>
        <time>2016-08-13T11:07:05Z</time>
      </trkpt>
      <trkpt lat="45.14346" lon="6.4777">
        <ele>2383.32</ele>
        <time>2016-08-13T11:07:12Z</time>
      </trkpt>
      <trkpt lat="45.14327" lon="6.47784">
        <ele>2382.96</ele>
        <time>2016-08-13T11:07:19Z</time>
      </trkpt>
      <trkpt lat="45.14307" lon="6.47797">
        <ele>2381.07</ele>
        <time>2016-08-13T11:07:24Z</time>
      </trkpt>
      <trkpt lat="45.14288" lon="6.47798">
        <ele>2376.83</ele>
        <time>2016-08-13T11:07:39Z</time>
      </trkpt>
      <trkpt lat="45.14269" lon="6.47805">
        <ele>2372.06</ele>
        <time>2016-08-13T11:07:49Z</time>
      </trkpt>
      <trkpt lat="45.14251" lon="6.47817">
        <ele>2372.08</ele>
        <time>2016-08-13T11:07:57Z</time>
      </trkpt>
      <trkpt lat="45.14234" lon="6.47831">
        <ele>2372.65</ele>
        <time>2016-08-13T11:08:06Z</time>
      </trkpt>
      <trkpt lat="45.14216" lon="6.47843">
        <ele>2373.38</ele>
        <time>2016-08-13T11:08:16Z</time>
      </trkpt>
      <trkpt lat="45.14197" lon="6.47852">
        <ele>2373.4</ele>
        <time>2016-08-13T11:08:27Z</time>
      </trkpt>
      <trkpt lat="45.14179" lon="6.47863">
        <ele>2375.11</ele>
        <time>2016-08-13T11:08:36Z</time>
      </trkpt>
      <trkpt lat="45.14163" lon="6.47873">
        <ele>2376.17</ele>
        <time>2016-08-13T11:09:01Z</time>
      </trkpt>
      <trkpt lat="45.14144" lon="6.47876">
        <ele>2377.56</ele>
        <time>2016-08-13T11:09:21Z</time>
      </trkpt>
      <trkpt lat="45.14125" lon="6.4788">
        <ele>2378.37</ele>
        <time>2016-08-13T11:09:38Z</time>
      </trkpt>
      <trkpt lat="45.14106" lon="6.47882">
        <ele>2379.8</ele>
        <time>2016-08-13T11:09:47Z</time>
      </trkpt>
      <trkpt lat="45.14088" lon="6.47887">
        <ele>2381.7</ele>
        <time>2016-08-13T11:10:07Z</time>
      </trkpt>
      <trkpt lat="45.1407" lon="6.4789">
        <ele>2383.09</ele>
        <time>2016-08-13T11:10:38Z</time>
      </trkpt>
      <trkpt lat="45.14052" lon="6.47893">
        <ele>2385.5</ele>
        <time>2016-08-13T11:11:00Z</time>
      </trkpt>
      <trkpt lat="45.14034" lon="6.47884">
        <ele>2387.38</ele>
        <time>2016-08-13T11:12:03Z</time>
      </trkpt>
      <trkpt lat="45.14015" lon="6.47882">
        <ele>2390.15</ele>
        <time>2016-08-13T11:12:24Z</time>
      </trkpt>
      <trkpt lat="45.13998" lon="6.47875">
        <ele>2392.14</ele>
        <time>2016-08-13T11:12:49Z</time>
      </trkpt>
      <trkpt lat="45.1398" lon="6.47866">
        <ele>2394.19</ele>
        <time>2016-08-13T11:13:09Z</time>
      </trkpt>
      <trkpt lat="45.13962" lon="6.47859">
        <ele>2397.88</ele>
        <time>2016-08-13T11:13:43Z</time>
      </trkpt>
      <trkpt lat="45.13944" lon="6.47853">
        <ele>2400.57</ele>
        <time>2016-08-13T11:14:21Z</time>
      </trkpt>
      <trkpt lat="45.13925" lon="6.47853">
        <ele>2402.1</ele>
        <time>2016-08-13T11:14:51Z</time>
      </trkpt>
      <trkpt lat="45.13907" lon="6.47852">
        <ele>2402.65</ele>
        <time>2016-08-13T11:15:10Z</time>
      </trkpt>
      <trkpt lat="45.13889" lon="6.47858">
        <ele>2403.58</ele>
        <time>2016-08-13T11:15:20Z</time>
      </trkpt>
      <trkpt lat="45.13871" lon="6.47863">
        <ele>2404.06</ele>
        <time>2016-08-13T11:15:43Z</time>
      </trkpt>
      <trkpt lat="45.13857" lon="6.47878">
        <ele>2406.46</ele>
        <time>2016-08-13T11:33:52Z</time>
      </trkpt>
      <trkpt lat="45.13839" lon="6.47871">
        <ele>2411.35</ele>
        <time>2016-08-13T11:35:17Z</time>
      </trkpt>
      <trkpt lat="45.13821" lon="6.47874">
        <ele>2414.39</ele>
        <time>2016-08-13T11:35:48Z</time>
      </trkpt>
      <trkpt lat="45.13803" lon="6.47879">
        <ele>2418.68</ele>
        <time>2016-08-13T11:36:22Z</time>
      </trkpt>
      <trkpt lat="45.13785" lon="6.47886">
        <ele>2422.55</ele>
        <time>2016-08-13T11:36:58Z</time>
      </trkpt>
      <trkpt lat="45.13766" lon="6.47892">
        <ele>2424.67</ele>
        <time>2016-08-13T11:37:43Z</time>
      </trkpt>
      <trkpt lat="45.13748" lon="6.479">
        <ele>2426.49</ele>
        <time>2016-08-13T11:37:51Z</time>
      </trkpt>
      <trkpt lat="45.13731" lon="6.4791">
        <ele>2427.88</ele>
        <time>2016-08-13T11:38:00Z</time>
      </trkpt>
      <trkpt lat="45.13713" lon="6.47921">
        <ele>2430.74</ele>
        <time>2016-08-13T11:38:11Z</time>
      </trkpt>
      <trkpt lat="45.13694" lon="6.47929">
        <ele>2432.85</ele>
        <time>2016-08-13T11:38:21Z</time>
      </trkpt>
      <trkpt lat="45.13676" lon="6.47939">
        <ele>2434.89</ele>
        <time>2016-08-13T11:38:32Z</time>
      </trkpt>
      <trkpt lat="45.13661" lon="6.47955">
        <ele>2436.38</ele>
        <time>2016-08-13T11:38:42Z</time>
      </trkpt>
      <trkpt lat="45.13644" lon="6.47967">
        <ele>2437.94</ele>
        <time>2016-08-13T11:39:01Z</time>
      </trkpt>
      <trkpt lat="45.13627" lon="6.47977">
        <ele>2441.35</ele>
        <time>2016-08-13T11:39:10Z</time>
      </trkpt>
      <trkpt lat="45.13609" lon="6.47985">
        <ele>2447.11</ele>
        <time>2016-08-13T11:39:29Z</time>
      </trkpt>
      <trkpt lat="45.1359" lon="6.47989">
        <ele>2450.93</ele>
        <time>2016-08-13T11:41:06Z</time>
      </trkpt>
      <trkpt lat="45.13573" lon="6.47995">
        <ele>2451.87</ele>
        <time>2016-08-13T11:41:46Z</time>
      </trkpt>
      <trkpt lat="45.13558" lon="6.48012">
        <ele>2451.97</ele>
        <time>2016-08-13T11:42:03Z</time>
      </trkpt>
      <trkpt lat="45.1354" lon="6.48023">
        <ele>2451.9</ele>
        <time>2016-08-13T11:44:15Z</time>
      </trkpt>
      <trkpt lat="45.13523" lon="6.48035">
        <ele>2452.01</ele>
        <time>2016-08-13T11:44:26Z</time>
      </trkpt>
      <trkpt lat="45.13507" lon="6.48046">
        <ele>2451.87</ele>
        <time>2016-08-13T11:44:46Z</time>
      </trkpt>
      <trkpt lat="45.13492" lon="6.48061">
        <ele>2451.74</ele>
        <time>2016-08-13T11:45:14Z</time>
      </trkpt>
      <trkpt lat="45.13475" lon="6.48074">
        <ele>2453.58</ele>
        <time>2016-08-13T11:45:43Z</time>
      </trkpt>
      <trkpt lat="45.13457" lon="6.4808">
        <ele>2456.27</ele>
        <time>2016-08-13T11:46:06Z</time>
      </trkpt>
      <trkpt lat="45.13438" lon="6.48085">
        <ele>2456.31</ele>
        <time>2016-08-13T11:46:32Z</time>
      </trkpt>
      <trkpt lat="45.1342" lon="6.48086">
        <ele>2455.78</ele>
        <time>2016-08-13T11:46:51Z</time>
      </trkpt>
      <trkpt lat="45.13402" lon="6.48091">
        <ele>2456.49</ele>
        <time>2016-08-13T11:47:22Z</time>
      </trkpt>
      <trkpt lat="45.13383" lon="6.48097">
        <ele>2457.73</ele>
        <time>2016-08-13T11:47:39Z</time>
      </trkpt>
      <trkpt lat="45.13371" lon="6.48115">
        <ele>2456.67</ele>
        <time>2016-08-13T11:51:06Z</time>
      </trkpt>
      <trkpt lat="45.13353" lon="6.48109">
        <ele>2453.88</ele>
        <time>2016-08-13T11:51:27Z</time>
      </trkpt>
      <trkpt lat="45.13336" lon="6.48101">
        <ele>2454.62</ele>
        <time>2016-08-13T11:51:48Z</time>
      </trkpt>
      <trkpt lat="45.13318" lon="6.48094">
        <ele>2451.45</ele>
        <time>2016-08-13T11:52:15Z</time>
      </trkpt>
      <trkpt lat="45.133" lon="6.48085">
        <ele>2447.72</ele>
        <time>2016-08-13T11:52:42Z</time>
      </trkpt>
      <trkpt lat="45.13281" lon="6.4808">
        <ele>2445.59</ele>
        <time>2016-08-13T11:52:56Z</time>
      </trkpt>
      <trkpt lat="45.1326" lon="6.48078">
        <ele>2442.69</ele>
        <time>2016-08-13T11:53:00Z</time>
      </trkpt>
      <trkpt lat="45.13242" lon="6.48084">
        <ele>2440.24</ele>
        <time>2016-08-13T11:53:07Z</time>
      </trkpt>
      <trkpt lat="45.13224" lon="6.48091">
        <ele>2436.27</ele>
        <time>2016-08-13T11:53:26Z</time>
      </trkpt>
      <trkpt lat="45.13206" lon="6.48098">
        <ele>2437.08</ele>
        <time>2016-08-13T11:53:50Z</time>
      </trkpt>
      <trkpt lat="45.1319" lon="6.48111">
        <ele>2437.54</ele>
        <time>2016-08-13T11:54:08Z</time>
      </trkpt>
      <trkpt lat="45.13173" lon="6.48119">
        <ele>2436.77</ele>
        <time>2016-08-13T11:54:59Z</time>
      </trkpt>
      <trkpt lat="45.13161" lon="6.48138">
        <ele>2429.83</ele>
        <time>2016-08-13T11:56:41Z</time>
      </trkpt>
      <trkpt lat="45.13144" lon="6.48149">
        <ele>2425.78</ele>
        <time>2016-08-13T11:57:35Z</time>
      </trkpt>
      <trkpt lat="45.13126" lon="6.48152">
        <ele>2426.43</ele>
        <time>2016-08-13T11:58:04Z</time>
      </trkpt>
      <trkpt lat="45.13109" lon="6.48164">
        <ele>2425.46</ele>
        <time>2016-08-13T11:58:30Z</time>
      </trkpt>
      <trkpt lat="45.13092" lon="6.48174">
        <ele>2425.52</ele>
        <time>2016-08-13T11:58:53Z</time>
      </trkpt>
      <trkpt lat="45.13111" lon="6.48165">
        <ele>2422.24</ele>
        <time>2016-08-13T12:00:17Z</time>
      </trkpt>
      <trkpt lat="45.13131" lon="6.48161">
        <ele>2420.03</ele>
        <time>2016-08-13T12:00:23Z</time>
      </trkpt>
      <trkpt lat="45.13149" lon="6.48165">
        <ele>2416.85</ele>
        <time>2016-08-13T12:01:04Z</time>
      </trkpt>
      <trkpt lat="45.13168" lon="6.48167">
        <ele>2415.43</ele>
        <time>2016-08-13T12:01:55Z</time>
      </trkpt>
      <trkpt lat="45.13186" lon="6.48178">
        <ele>2415.71</ele>
        <time>2016-08-13T12:02:10Z</time>
      </trkpt>
      <trkpt lat="45.13204" lon="6.48195">
        <ele>2412.86</ele>
        <time>2016-08-13T12:02:15Z</time>
      </trkpt>
      <trkpt lat="45.13207" lon="6.4822">
        <ele>2405.86</ele>
        <time>2016-08-13T12:02:30Z</time>
      </trkpt>
      <trkpt lat="45.1321" lon="6.48245">
        <ele>2399.23</ele>
        <time>2016-08-13T12:03:07Z</time>
      </trkpt>
      <trkpt lat="45.13226" lon="6.48265">
        <ele>2392.14</ele>
        <time>2016-08-13T12:03:19Z</time>
      </trkpt>
      <trkpt lat="45.13239" lon="6.48285">
        <ele>2387.72</ele>
        <time>2016-08-13T12:03:25Z</time>
      </trkpt>
      <trkpt lat="45.13249" lon="6.48306">
        <ele>2383.26</ele>
        <time>2016-08-13T12:03:29Z</time>
      </trkpt>
      <trkpt lat="45.13264" lon="6.48329">
        <ele>2380.64</ele>
        <time>2016-08-13T12:03:33Z</time>
      </trkpt>
      <trkpt lat="45.1327" lon="6.48355">
        <ele>2377.07</ele>
        <time>2016-08-13T12:04:01Z</time>
      </trkpt>
      <trkpt lat="45.13249" lon="6.48357">
        <ele>2373.55</ele>
        <time>2016-08-13T12:04:08Z</time>
      </trkpt>
      <trkpt lat="45.13231" lon="6.48357">
        <ele>2369.5</ele>
        <time>2016-08-13T12:04:16Z</time>
      </trkpt>
      <trkpt lat="45.13246" lon="6.48374">
        <ele>2363.03</ele>
        <time>2016-08-13T12:04:28Z</time>
      </trkpt>
      <trkpt lat="45.13228" lon="6.48381">
        <ele>2353.93</ele>
        <time>2016-08-13T12:04:42Z</time>
      </trkpt>
      <trkpt lat="45.13234" lon="6.48407">
        <ele>2346.45</ele>
        <time>2016-08-13T12:04:55Z</time>
      </trkpt>
      <trkpt lat="45.13247" lon="6.4843">
        <ele>2342.07</ele>
        <time>2016-08-13T12:05:00Z</time>
      </trkpt>
      <trkpt lat="45.13261" lon="6.4845">
        <ele>2336.43</ele>
        <time>2016-08-13T12:05:37Z</time>
      </trkpt>
      <trkpt lat="45.1326" lon="6.48476">
        <ele>2330.71</ele>
        <time>2016-08-13T12:05:43Z</time>
      </trkpt>
      <trkpt lat="45.13263" lon="6.48507">
        <ele>2324.89</ele>
        <time>2016-08-13T12:05:49Z</time>
      </trkpt>
      <trkpt lat="45.13256" lon="6.48532">
        <ele>2321.91</ele>
        <time>2016-08-13T12:05:57Z</time>
      </trkpt>
      <trkpt lat="45.13235" lon="6.48534">
        <ele>2317.86</ele>
        <time>2016-08-13T12:06:02Z</time>
      </trkpt>
      <trkpt lat="45.13219" lon="6.48552">
        <ele>2312.05</ele>
        <time>2016-08-13T12:06:08Z</time>
      </trkpt>
      <trkpt lat="45.13217" lon="6.48577">
        <ele>2306.2</ele>
        <time>2016-08-13T12:06:15Z</time>
      </trkpt>
      <trkpt lat="45.13232" lon="6.48595">
        <ele>2301.24</ele>
        <time>2016-08-13T12:06:22Z</time>
      </trkpt>
      <trkpt lat="45.13219" lon="6.48619">
        <ele>2294.38</ele>
        <time>2016-08-13T12:06:32Z</time>
      </trkpt>
      <trkpt lat="45.13201" lon="6.48632">
        <ele>2290.84</ele>
        <time>2016-08-13T12:06:38Z</time>
      </trkpt>
      <trkpt lat="45.1318" lon="6.48639">
        <ele>2286.15</ele>
        <time>2016-08-13T12:06:45Z</time>
      </trkpt>
      <trkpt lat="45.1316" lon="6.48641">
        <ele>2282.24</ele>
        <time>2016-08-13T12:06:50Z</time>
      </trkpt>
      <trkpt lat="45.13149" lon="6.48664">
        <ele>2272.43</ele>
        <time>2016-08-13T12:07:11Z</time>
      </trkpt>
      <trkpt lat="45.13157" lon="6.48688">
        <ele>2266.56</ele>
        <time>2016-08-13T12:07:19Z</time>
      </trkpt>
      <trkpt lat="45.13175" lon="6.48705">
        <ele>2261.98</ele>
        <time>2016-08-13T12:07:24Z</time>
      </trkpt>
      <trkpt lat="45.13191" lon="6.48724">
        <ele>2256.72</ele>
        <time>2016-08-13T12:07:29Z</time>
      </trkpt>
      <trkpt lat="45.13207" lon="6.4874">
        <ele>2256.08</ele>
        <time>2016-08-13T12:07:35Z</time>
      </trkpt>
      <trkpt lat="45.13228" lon="6.48743">
        <ele>2256.57</ele>
        <time>2016-08-13T12:07:42Z</time>
      </trkpt>
      <trkpt lat="45.13234" lon="6.48768">
        <ele>2252.52</ele>
        <time>2016-08-13T12:07:51Z</time>
      </trkpt>
      <trkpt lat="45.13244" lon="6.48793">
        <ele>2245.6</ele>
        <time>2016-08-13T12:08:03Z</time>
      </trkpt>
      <trkpt lat="45.13254" lon="6.48818">
        <ele>2239.9</ele>
        <time>2016-08-13T12:08:09Z</time>
      </trkpt>
      <trkpt lat="45.13268" lon="6.48836">
        <ele>2234.56</ele>
        <time>2016-08-13T12:08:16Z</time>
      </trkpt>
      <trkpt lat="45.13286" lon="6.48848">
        <ele>2228.74</ele>
        <time>2016-08-13T12:08:23Z</time>
      </trkpt>
      <trkpt lat="45.13303" lon="6.48862">
        <ele>2223.93</ele>
        <time>2016-08-13T12:08:29Z</time>
      </trkpt>
      <trkpt lat="45.13312" lon="6.48889">
        <ele>2219.29</ele>
        <time>2016-08-13T12:08:36Z</time>
      </trkpt>
      <trkpt lat="45.13295" lon="6.48902">
        <ele>2212.2</ele>
        <time>2016-08-13T12:08:45Z</time>
      </trkpt>
      <trkpt lat="45.13278" lon="6.48911">
        <ele>2209.52</ele>
        <time>2016-08-13T12:08:51Z</time>
      </trkpt>
      <trkpt lat="45.13259" lon="6.48923">
        <ele>2209.22</ele>
        <time>2016-08-13T12:08:58Z</time>
      </trkpt>
      <trkpt lat="45.13238" lon="6.48927">
        <ele>2206.91</ele>
        <time>2016-08-13T12:09:04Z</time>
      </trkpt>
      <trkpt lat="45.1322" lon="6.48941">
        <ele>2205.85</ele>
        <time>2016-08-13T12:09:10Z</time>
      </trkpt>
      <trkpt lat="45.13221" lon="6.48968">
        <ele>2201.83</ele>
        <time>2016-08-13T12:09:17Z</time>
      </trkpt>
      <trkpt lat="45.13234" lon="6.48986">
        <ele>2194.89</ele>
        <time>2016-08-13T12:09:26Z</time>
      </trkpt>
      <trkpt lat="45.13244" lon="6.49008">
        <ele>2186.02</ele>
        <time>2016-08-13T12:09:40Z</time>
      </trkpt>
      <trkpt lat="45.13254" lon="6.49029">
        <ele>2175.34</ele>
        <time>2016-08-13T12:10:33Z</time>
      </trkpt>
      <trkpt lat="45.1327" lon="6.49045">
        <ele>2165.25</ele>
        <time>2016-08-13T12:10:56Z</time>
      </trkpt>
      <trkpt lat="45.13277" lon="6.4907">
        <ele>2157.44</ele>
        <time>2016-08-13T12:11:08Z</time>
      </trkpt>
      <trkpt lat="45.13295" lon="6.49078">
        <ele>2150.33</ele>
        <time>2016-08-13T12:11:18Z</time>
      </trkpt>
      <trkpt lat="45.13312" lon="6.49086">
        <ele>2143.72</ele>
        <time>2016-08-13T12:11:26Z</time>
      </trkpt>
      <trkpt lat="45.13331" lon="6.4909">
        <ele>2137.22</ele>
        <time>2016-08-13T12:11:56Z</time>
      </trkpt>
      <trkpt lat="45.13351" lon="6.49097">
        <ele>2132.2</ele>
        <time>2016-08-13T12:12:05Z</time>
      </trkpt>
      <trkpt lat="45.1337" lon="6.49107">
        <ele>2124.21</ele>
        <time>2016-08-13T12:12:53Z</time>
      </trkpt>
      <trkpt lat="45.13379" lon="6.49129">
        <ele>2115.49</ele>
        <time>2016-08-13T12:13:25Z</time>
      </trkpt>
      <trkpt lat="45.13375" lon="6.49157">
        <ele>2109</ele>
        <time>2016-08-13T12:13:37Z</time>
      </trkpt>
      <trkpt lat="45.13361" lon="6.49178">
        <ele>2103.83</ele>
        <time>2016-08-13T12:13:44Z</time>
      </trkpt>
      <trkpt lat="45.13379" lon="6.49189">
        <ele>2096.97</ele>
        <time>2016-08-13T12:13:54Z</time>
      </trkpt>
      <trkpt lat="45.13397" lon="6.4919">
        <ele>2094.64</ele>
        <time>2016-08-13T12:14:02Z</time>
      </trkpt>
      <trkpt lat="45.13414" lon="6.49201">
        <ele>2090.16</ele>
        <time>2016-08-13T12:14:33Z</time>
      </trkpt>
      <trkpt lat="45.13433" lon="6.49204">
        <ele>2085.57</ele>
        <time>2016-08-13T12:15:09Z</time>
      </trkpt>
      <trkpt lat="45.13451" lon="6.49209">
        <ele>2079.6</ele>
        <time>2016-08-13T12:15:17Z</time>
      </trkpt>
      <trkpt lat="45.1347" lon="6.49213">
        <ele>2073.5</ele>
        <time>2016-08-13T12:15:25Z</time>
      </trkpt>
      <trkpt lat="45.13488" lon="6.49218">
        <ele>2068.86</ele>
        <time>2016-08-13T12:15:36Z</time>
      </trkpt>
      <trkpt lat="45.13498" lon="6.4924">
        <ele>2058.47</ele>
        <time>2016-08-13T12:16:20Z</time>
      </trkpt>
      <trkpt lat="45.13515" lon="6.49249">
        <ele>2049.74</ele>
        <time>2016-08-13T12:16:58Z</time>
      </trkpt>
      <trkpt lat="45.13532" lon="6.49262">
        <ele>2044.53</ele>
        <time>2016-08-13T12:17:15Z</time>
      </trkpt>
      <trkpt lat="45.13549" lon="6.49279">
        <ele>2040.4</ele>
        <time>2016-08-13T12:17:25Z</time>
      </trkpt>
      <trkpt lat="45.13566" lon="6.49291">
        <ele>2034.02</ele>
        <time>2016-08-13T12:17:37Z</time>
      </trkpt>
      <trkpt lat="45.13582" lon="6.49307">
        <ele>2027.33</ele>
        <time>2016-08-13T12:17:51Z</time>
      </trkpt>
      <trkpt lat="45.13598" lon="6.49297">
        <ele>2022.46</ele>
        <time>2016-08-13T12:17:58Z</time>
      </trkpt>
      <trkpt lat="45.13618" lon="6.49298">
        <ele>2013.31</ele>
        <time>2016-08-13T12:18:10Z</time>
      </trkpt>
      <trkpt lat="45.13628" lon="6.4932">
        <ele>2006.8</ele>
        <time>2016-08-13T12:18:24Z</time>
      </trkpt>
      <trkpt lat="45.13641" lon="6.49338">
        <ele>1999.96</ele>
        <time>2016-08-13T12:18:39Z</time>
      </trkpt>
      <trkpt lat="45.13655" lon="6.49354">
        <ele>1992.71</ele>
        <time>2016-08-13T12:18:53Z</time>
      </trkpt>
      <trkpt lat="45.13665" lon="6.49383">
        <ele>1985.21</ele>
        <time>2016-08-13T12:19:21Z</time>
      </trkpt>
      <trkpt lat="45.13669" lon="6.4941">
        <ele>1979.64</ele>
        <time>2016-08-13T12:19:28Z</time>
      </trkpt>
      <trkpt lat="45.1368" lon="6.4943">
        <ele>1973.16</ele>
        <time>2016-08-13T12:19:41Z</time>
      </trkpt>
      <trkpt lat="45.13668" lon="6.4945">
        <ele>1967.59</ele>
        <time>2016-08-13T12:21:10Z</time>
      </trkpt>
      <trkpt lat="45.13672" lon="6.49476">
        <ele>1960.76</ele>
        <time>2016-08-13T12:21:21Z</time>
      </trkpt>
      <trkpt lat="45.13672" lon="6.49503">
        <ele>1953.58</ele>
        <time>2016-08-13T12:21:29Z</time>
      </trkpt>
      <trkpt lat="45.13684" lon="6.49523">
        <ele>1943.77</ele>
        <time>2016-08-13T12:22:40Z</time>
      </trkpt>
      <trkpt lat="45.13702" lon="6.49534">
        <ele>1938.94</ele>
        <time>2016-08-13T12:22:49Z</time>
      </trkpt>
      <trkpt lat="45.13721" lon="6.49538">
        <ele>1933.34</ele>
        <time>2016-08-13T12:23:01Z</time>
      </trkpt>
      <trkpt lat="45.13738" lon="6.49546">
        <ele>1932.48</ele>
        <time>2016-08-13T12:23:06Z</time>
      </trkpt>
      <trkpt lat="45.13756" lon="6.49539">
        <ele>1934.87</ele>
        <time>2016-08-13T12:23:16Z</time>
      </trkpt>
      <trkpt lat="45.13777" lon="6.49529">
        <ele>1933.97</ele>
        <time>2016-08-13T12:23:22Z</time>
      </trkpt>
      <trkpt lat="45.13797" lon="6.49527">
        <ele>1933.74</ele>
        <time>2016-08-13T12:23:28Z</time>
      </trkpt>
      <trkpt lat="45.13817" lon="6.49524">
        <ele>1934.93</ele>
        <time>2016-08-13T12:23:35Z</time>
      </trkpt>
      <trkpt lat="45.13829" lon="6.49501">
        <ele>1935.33</ele>
        <time>2016-08-13T12:23:45Z</time>
      </trkpt>
      <trkpt lat="45.13847" lon="6.49496">
        <ele>1928.01</ele>
        <time>2016-08-13T12:24:09Z</time>
      </trkpt>
      <trkpt lat="45.13861" lon="6.49478">
        <ele>1923.95</ele>
        <time>2016-08-13T12:24:22Z</time>
      </trkpt>
      <trkpt lat="45.13881" lon="6.49475">
        <ele>1917.97</ele>
        <time>2016-08-13T12:24:47Z</time>
      </trkpt>
      <trkpt lat="45.13899" lon="6.49464">
        <ele>1911.62</ele>
        <time>2016-08-13T12:25:07Z</time>
      </trkpt>
      <trkpt lat="45.13919" lon="6.49469">
        <ele>1906.69</ele>
        <time>2016-08-13T12:25:15Z</time>
      </trkpt>
      <trkpt lat="45.13938" lon="6.49471">
        <ele>1902.88</ele>
        <time>2016-08-13T12:25:20Z</time>
      </trkpt>
      <trkpt lat="45.13957" lon="6.49475">
        <ele>1901.09</ele>
        <time>2016-08-13T12:25:25Z</time>
      </trkpt>
      <trkpt lat="45.13975" lon="6.49472">
        <ele>1900.65</ele>
        <time>2016-08-13T12:25:30Z</time>
      </trkpt>
      <trkpt lat="45.13994" lon="6.49462">
        <ele>1899.73</ele>
        <time>2016-08-13T12:25:37Z</time>
      </trkpt>
      <trkpt lat="45.14012" lon="6.49452">
        <ele>1894.57</ele>
        <time>2016-08-13T12:25:46Z</time>
      </trkpt>
      <trkpt lat="45.14029" lon="6.49438">
        <ele>1890.06</ele>
        <time>2016-08-13T12:25:54Z</time>
      </trkpt>
      <trkpt lat="45.14046" lon="6.49422">
        <ele>1888.88</ele>
        <time>2016-08-13T12:26:13Z</time>
      </trkpt>
      <trkpt lat="45.14045" lon="6.49396">
        <ele>1884.67</ele>
        <time>2016-08-13T12:26:31Z</time>
      </trkpt>
      <trkpt lat="45.14064" lon="6.49395">
        <ele>1875.82</ele>
        <time>2016-08-13T12:27:22Z</time>
      </trkpt>
      <trkpt lat="45.14082" lon="6.49393">
        <ele>1868.42</ele>
        <time>2016-08-13T12:27:54Z</time>
      </trkpt>
      <trkpt lat="45.141" lon="6.49382">
        <ele>1863.56</ele>
        <time>2016-08-13T12:28:05Z</time>
      </trkpt>
      <trkpt lat="45.14113" lon="6.49401">
        <ele>1860.83</ele>
        <time>2016-08-13T12:28:33Z</time>
      </trkpt>
      <trkpt lat="45.1412" lon="6.49425">
        <ele>1859.38</ele>
        <time>2016-08-13T12:28:38Z</time>
      </trkpt>
      <trkpt lat="45.14128" lon="6.4945">
        <ele>1856.82</ele>
        <time>2016-08-13T12:28:45Z</time>
      </trkpt>
      <trkpt lat="45.14133" lon="6.49476">
        <ele>1854.8</ele>
        <time>2016-08-13T12:28:49Z</time>
      </trkpt>
      <trkpt lat="45.14146" lon="6.49498">
        <ele>1853.69</ele>
        <time>2016-08-13T12:28:54Z</time>
      </trkpt>
      <trkpt lat="45.14157" lon="6.49518">
        <ele>1851.23</ele>
        <time>2016-08-13T12:29:00Z</time>
      </trkpt>
      <trkpt lat="45.14175" lon="6.49521">
        <ele>1849.09</ele>
        <time>2016-08-13T12:29:06Z</time>
      </trkpt>
      <trkpt lat="45.14195" lon="6.49523">
        <ele>1845.42</ele>
        <time>2016-08-13T12:29:15Z</time>
      </trkpt>
      <trkpt lat="45.14214" lon="6.49527">
        <ele>1843.35</ele>
        <time>2016-08-13T12:29:24Z</time>
      </trkpt>
      <trkpt lat="45.14231" lon="6.49539">
        <ele>1841.73</ele>
        <time>2016-08-13T12:29:38Z</time>
      </trkpt>
      <trkpt lat="45.14247" lon="6.49555">
        <ele>1841.13</ele>
        <time>2016-08-13T12:29:51Z</time>
      </trkpt>
      <trkpt lat="45.14264" lon="6.49571">
        <ele>1838.2</ele>
        <time>2016-08-13T12:30:04Z</time>
      </trkpt>
      <trkpt lat="45.14279" lon="6.49591">
        <ele>1837.34</ele>
        <time>2016-08-13T12:30:12Z</time>
      </trkpt>
      <trkpt lat="45.14289" lon="6.49612">
        <ele>1834.65</ele>
        <time>2016-08-13T12:30:22Z</time>
      </trkpt>
      <trkpt lat="45.14308" lon="6.4962">
        <ele>1832.17</ele>
        <time>2016-08-13T12:30:29Z</time>
      </trkpt>
      <trkpt lat="45.14322" lon="6.49638">
        <ele>1832</ele>
        <time>2016-08-13T12:30:35Z</time>
      </trkpt>
      <trkpt lat="45.14332" lon="6.4966">
        <ele>1830.75</ele>
        <time>2016-08-13T12:30:42Z</time>
      </trkpt>
      <trkpt lat="45.1435" lon="6.49667">
        <ele>1828.05</ele>
        <time>2016-08-13T12:30:48Z</time>
      </trkpt>
      <trkpt lat="45.14368" lon="6.49659">
        <ele>1824.22</ele>
        <time>2016-08-13T12:30:55Z</time>
      </trkpt>
      <trkpt lat="45.14385" lon="6.49648">
        <ele>1818.06</ele>
        <time>2016-08-13T12:31:03Z</time>
      </trkpt>
      <trkpt lat="45.14403" lon="6.49638">
        <ele>1814.4</ele>
        <time>2016-08-13T12:31:08Z</time>
      </trkpt>
      <trkpt lat="45.14421" lon="6.49633">
        <ele>1814</ele>
        <time>2016-08-13T12:31:14Z</time>
      </trkpt>
      <trkpt lat="45.14441" lon="6.49634">
        <ele>1813.7</ele>
        <time>2016-08-13T12:31:22Z</time>
      </trkpt>
      <trkpt lat="45.14458" lon="6.49642">
        <ele>1809.13</ele>
        <time>2016-08-13T12:32:25Z</time>
      </trkpt>
      <trkpt lat="45.14476" lon="6.49656">
        <ele>1804.02</ele>
        <time>2016-08-13T12:32:36Z</time>
      </trkpt>
      <trkpt lat="45.14493" lon="6.49666">
        <ele>1798.98</ele>
        <time>2016-08-13T12:32:45Z</time>
      </trkpt>
      <trkpt lat="45.14511" lon="6.4965">
        <ele>1794.24</ele>
        <time>2016-08-13T12:32:51Z</time>
      </trkpt>
      <trkpt lat="45.14523" lon="6.4963">
        <ele>1793.17</ele>
        <time>2016-08-13T12:33:03Z</time>
      </trkpt>
      <trkpt lat="45.14541" lon="6.49614">
        <ele>1792.97</ele>
        <time>2016-08-13T12:33:11Z</time>
      </trkpt>
      <trkpt lat="45.14558" lon="6.49605">
        <ele>1792.95</ele>
        <time>2016-08-13T12:33:17Z</time>
      </trkpt>
      <trkpt lat="45.14576" lon="6.49598">
        <ele>1792.51</ele>
        <time>2016-08-13T12:33:22Z</time>
      </trkpt>
      <trkpt lat="45.14595" lon="6.49593">
        <ele>1792.18</ele>
        <time>2016-08-13T12:33:27Z</time>
      </trkpt>
      <trkpt lat="45.14613" lon="6.49592">
        <ele>1791.7</ele>
        <time>2016-08-13T12:37:00Z</time>
      </trkpt>
      <trkpt lat="45.14629" lon="6.49577">
        <ele>1791.74</ele>
        <time>2016-08-13T12:37:08Z</time>
      </trkpt>
      <trkpt lat="45.1465" lon="6.4957">
        <ele>1790.34</ele>
        <time>2016-08-13T12:37:13Z</time>
      </trkpt>
      <trkpt lat="45.14668" lon="6.49567">
        <ele>1790.89</ele>
        <time>2016-08-13T12:37:23Z</time>
      </trkpt>
      <trkpt lat="45.14688" lon="6.49559">
        <ele>1791.14</ele>
        <time>2016-08-13T12:37:34Z</time>
      </trkpt>
      <trkpt lat="45.14707" lon="6.49561">
        <ele>1788.43</ele>
        <time>2016-08-13T12:37:40Z</time>
      </trkpt>
      <trkpt lat="45.14726" lon="6.49559">
        <ele>1787.53</ele>
        <time>2016-08-13T12:37:47Z</time>
      </trkpt>
      <trkpt lat="45.14745" lon="6.49562">
        <ele>1785.18</ele>
        <time>2016-08-13T12:37:56Z</time>
      </trkpt>
      <trkpt lat="45.14758" lon="6.49581">
        <ele>1781.69</ele>
        <time>2016-08-13T12:38:02Z</time>
      </trkpt>
      <trkpt lat="45.14769" lon="6.49606">
        <ele>1778.34</ele>
        <time>2016-08-13T12:38:07Z</time>
      </trkpt>
      <trkpt lat="45.1478" lon="6.49629">
        <ele>1776.47</ele>
        <time>2016-08-13T12:38:12Z</time>
      </trkpt>
      <trkpt lat="45.14796" lon="6.49647">
        <ele>1775.98</ele>
        <time>2016-08-13T12:38:20Z</time>
      </trkpt>
      <trkpt lat="45.14814" lon="6.49648">
        <ele>1775.65</ele>
        <time>2016-08-13T12:38:31Z</time>
      </trkpt>
      <trkpt lat="45.14832" lon="6.49643">
        <ele>1774.27</ele>
        <time>2016-08-13T12:38:45Z</time>
      </trkpt>
      <trkpt lat="45.1485" lon="6.49648">
        <ele>1772.9</ele>
        <time>2016-08-13T12:39:03Z</time>
      </trkpt>
      <trkpt lat="45.14868" lon="6.4966">
        <ele>1769.36</ele>
        <time>2016-08-13T12:39:32Z</time>
      </trkpt>
      <trkpt lat="45.14887" lon="6.49655">
        <ele>1765.65</ele>
        <time>2016-08-13T12:39:38Z</time>
      </trkpt>
      <trkpt lat="45.14905" lon="6.49649">
        <ele>1761.56</ele>
        <time>2016-08-13T12:39:46Z</time>
      </trkpt>
      <trkpt lat="45.14923" lon="6.49642">
        <ele>1758.69</ele>
        <time>2016-08-13T12:39:53Z</time>
      </trkpt>
      <trkpt lat="45.14943" lon="6.49633">
        <ele>1754.1</ele>
        <time>2016-08-13T12:40:09Z</time>
      </trkpt>
      <trkpt lat="45.1496" lon="6.49624">
        <ele>1750.05</ele>
        <time>2016-08-13T12:40:17Z</time>
      </trkpt>
      <trkpt lat="45.14979" lon="6.49613">
        <ele>1749.01</ele>
        <time>2016-08-13T12:40:22Z</time>
      </trkpt>
      <trkpt lat="45.14992" lon="6.49594">
        <ele>1746.98</ele>
        <time>2016-08-13T12:40:30Z</time>
      </trkpt>
      <trkpt lat="45.15004" lon="6.49572">
        <ele>1743.49</ele>
        <time>2016-08-13T12:40:40Z</time>
      </trkpt>
      <trkpt lat="45.15021" lon="6.49547">
        <ele>1741.67</ele>
        <time>2016-08-13T12:40:50Z</time>
      </trkpt>
      <trkpt lat="45.15038" lon="6.4954">
        <ele>1738.79</ele>
        <time>2016-08-13T12:41:09Z</time>
      </trkpt>
      <trkpt lat="45.15057" lon="6.49539">
        <ele>1736.89</ele>
        <time>2016-08-13T12:41:18Z</time>
      </trkpt>
      <trkpt lat="45.15075" lon="6.4955">
        <ele>1734.83</ele>
        <time>2016-08-13T12:41:29Z</time>
      </trkpt>
      <trkpt lat="45.15091" lon="6.49564">
        <ele>1734.78</ele>
        <time>2016-08-13T12:41:50Z</time>
      </trkpt>
      <trkpt lat="45.1511" lon="6.49565">
        <ele>1734.62</ele>
        <time>2016-08-13T12:42:07Z</time>
      </trkpt>
      <trkpt lat="45.1513" lon="6.49568">
        <ele>1734.88</ele>
        <time>2016-08-13T12:42:30Z</time>
      </trkpt>
      <trkpt lat="45.15149" lon="6.49576">
        <ele>1734.46</ele>
        <time>2016-08-13T12:42:36Z</time>
      </trkpt>
      <trkpt lat="45.15168" lon="6.4957">
        <ele>1734.18</ele>
        <time>2016-08-13T12:42:41Z</time>
      </trkpt>
      <trkpt lat="45.15188" lon="6.49563">
        <ele>1734.01</ele>
        <time>2016-08-13T12:42:48Z</time>
      </trkpt>
      <trkpt lat="45.15206" lon="6.49572">
        <ele>1733.85</ele>
        <time>2016-08-13T12:43:09Z</time>
      </trkpt>
      <trkpt lat="45.15224" lon="6.49571">
        <ele>1731.41</ele>
        <time>2016-08-13T12:43:14Z</time>
      </trkpt>
      <trkpt lat="45.15244" lon="6.49583">
        <ele>1731.74</ele>
        <time>2016-08-13T12:43:20Z</time>
      </trkpt>
      <trkpt lat="45.15262" lon="6.49585">
        <ele>1731.74</ele>
        <time>2016-08-13T12:43:26Z</time>
      </trkpt>
      <trkpt lat="45.15282" lon="6.49581">
        <ele>1731.65</ele>
        <time>2016-08-13T12:43:32Z</time>
      </trkpt>
      <trkpt lat="45.15303" lon="6.49577">
        <ele>1731.68</ele>
        <time>2016-08-13T12:43:39Z</time>
      </trkpt>
      <trkpt lat="45.15319" lon="6.49563">
        <ele>1731.05</ele>
        <time>2016-08-13T12:43:46Z</time>
      </trkpt>
      <trkpt lat="45.15334" lon="6.49545">
        <ele>1729.72</ele>
        <time>2016-08-13T12:43:52Z</time>
      </trkpt>
      <trkpt lat="45.15352" lon="6.49535">
        <ele>1728.37</ele>
        <time>2016-08-13T12:43:58Z</time>
      </trkpt>
      <trkpt lat="45.15367" lon="6.49518">
        <ele>1729.7</ele>
        <time>2016-08-13T12:44:06Z</time>
      </trkpt>
      <trkpt lat="45.15371" lon="6.49491">
        <ele>1727.2</ele>
        <time>2016-08-13T12:44:31Z</time>
      </trkpt>
      <trkpt lat="45.15389" lon="6.49489">
        <ele>1728.36</ele>
        <time>2016-08-13T12:45:12Z</time>
      </trkpt>
      <trkpt lat="45.15407" lon="6.49488">
        <ele>1731.54</ele>
        <time>2016-08-13T12:45:37Z</time>
      </trkpt>
      <trkpt lat="45.15426" lon="6.49481">
        <ele>1732.87</ele>
        <time>2016-08-13T12:45:57Z</time>
      </trkpt>
      <trkpt lat="45.15443" lon="6.49472">
        <ele>1731.97</ele>
        <time>2016-08-13T12:47:51Z</time>
      </trkpt>
      <trkpt lat="45.15461" lon="6.49458">
        <ele>1731</ele>
        <time>2016-08-13T12:47:56Z</time>
      </trkpt>
      <trkpt lat="45.15482" lon="6.49449">
        <ele>1730.03</ele>
        <time>2016-08-13T12:48:01Z</time>
      </trkpt>
      <trkpt lat="45.155" lon="6.49438">
        <ele>1728.11</ele>
        <time>2016-08-13T12:48:05Z</time>
      </trkpt>
      <trkpt lat="45.1552" lon="6.49436">
        <ele>1725.59</ele>
        <time>2016-08-13T12:48:09Z</time>
      </trkpt>
      <trkpt lat="45.15539" lon="6.49437">
        <ele>1723.37</ele>
        <time>2016-08-13T12:48:14Z</time>
      </trkpt>
      <trkpt lat="45.15558" lon="6.49433">
        <ele>1720.45</ele>
        <time>2016-08-13T12:48:21Z</time>
      </trkpt>
      <trkpt lat="45.15576" lon="6.49418">
        <ele>1717.79</ele>
        <time>2016-08-13T12:48:28Z</time>
      </trkpt>
      <trkpt lat="45.15597" lon="6.49408">
        <ele>1715.7</ele>
        <time>2016-08-13T12:48:33Z</time>
      </trkpt>
      <trkpt lat="45.15618" lon="6.49404">
        <ele>1714.46</ele>
        <time>2016-08-13T12:48:37Z</time>
      </trkpt>
      <trkpt lat="45.15635" lon="6.49413">
        <ele>1715.11</ele>
        <time>2016-08-13T12:48:42Z</time>
      </trkpt>
      <trkpt lat="45.15655" lon="6.49422">
        <ele>1717.07</ele>
        <time>2016-08-13T12:48:48Z</time>
      </trkpt>
      <trkpt lat="45.15675" lon="6.4942">
        <ele>1719.22</ele>
        <time>2016-08-13T12:48:56Z</time>
      </trkpt>
      <trkpt lat="45.15694" lon="6.49418">
        <ele>1719.24</ele>
        <time>2016-08-13T12:49:02Z</time>
      </trkpt>
      <trkpt lat="45.15713" lon="6.49424">
        <ele>1719.47</ele>
        <time>2016-08-13T12:49:08Z</time>
      </trkpt>
      <trkpt lat="45.15731" lon="6.49426">
        <ele>1718.45</ele>
        <time>2016-08-13T12:49:16Z</time>
      </trkpt>
      <trkpt lat="45.15751" lon="6.49431">
        <ele>1718.58</ele>
        <time>2016-08-13T12:49:22Z</time>
      </trkpt>
      <trkpt lat="45.15773" lon="6.49434">
        <ele>1718.07</ele>
        <time>2016-08-13T12:49:27Z</time>
      </trkpt>
      <trkpt lat="45.15794" lon="6.4944">
        <ele>1716.45</ele>
        <time>2016-08-13T12:49:31Z</time>
      </trkpt>
      <trkpt lat="45.15812" lon="6.49445">
        <ele>1715.51</ele>
        <time>2016-08-13T12:49:36Z</time>
      </trkpt>
      <trkpt lat="45.1583" lon="6.49453">
        <ele>1712.63</ele>
        <time>2016-08-13T12:49:40Z</time>
      </trkpt>
      <trkpt lat="45.15848" lon="6.49448">
        <ele>1708.08</ele>
        <time>2016-08-13T12:49:53Z</time>
      </trkpt>
      <trkpt lat="45.15866" lon="6.49454">
        <ele>1705.58</ele>
        <time>2016-08-13T12:49:58Z</time>
      </trkpt>
      <trkpt lat="45.15886" lon="6.49457">
        <ele>1703.48</ele>
        <time>2016-08-13T12:50:04Z</time>
      </trkpt>
      <trkpt lat="45.15904" lon="6.4946">
        <ele>1703.14</ele>
        <time>2016-08-13T12:50:09Z</time>
      </trkpt>
      <trkpt lat="45.15922" lon="6.49445">
        <ele>1703.6</ele>
        <time>2016-08-13T12:50:15Z</time>
      </trkpt>
      <trkpt lat="45.15936" lon="6.49428">
        <ele>1701.07</ele>
        <time>2016-08-13T12:50:21Z</time>
      </trkpt>
      <trkpt lat="45.15955" lon="6.49428">
        <ele>1698.91</ele>
        <time>2016-08-13T12:50:29Z</time>
      </trkpt>
      <trkpt lat="45.15974" lon="6.49432">
        <ele>1695.89</ele>
        <time>2016-08-13T12:50:36Z</time>
      </trkpt>
      <trkpt lat="45.15994" lon="6.4943">
        <ele>1691.77</ele>
        <time>2016-08-13T12:50:43Z</time>
      </trkpt>
      <trkpt lat="45.16016" lon="6.49436">
        <ele>1687.37</ele>
        <time>2016-08-13T12:50:48Z</time>
      </trkpt>
      <trkpt lat="45.16035" lon="6.49451">
        <ele>1683.85</ele>
        <time>2016-08-13T12:50:53Z</time>
      </trkpt>
      <trkpt lat="45.16055" lon="6.49457">
        <ele>1680.09</ele>
        <time>2016-08-13T12:50:58Z</time>
      </trkpt>
      <trkpt lat="45.16072" lon="6.49453">
        <ele>1676.72</ele>
        <time>2016-08-13T12:51:03Z</time>
      </trkpt>
      <trkpt lat="45.16091" lon="6.49444">
        <ele>1675.1</ele>
        <time>2016-08-13T12:51:10Z</time>
      </trkpt>
      <trkpt lat="45.16109" lon="6.49461">
        <ele>1671.5</ele>
        <time>2016-08-13T12:51:16Z</time>
      </trkpt>
      <trkpt lat="45.16127" lon="6.49458">
        <ele>1667.94</ele>
        <time>2016-08-13T12:51:22Z</time>
      </trkpt>
      <trkpt lat="45.16144" lon="6.49447">
        <ele>1663.98</ele>
        <time>2016-08-13T12:51:26Z</time>
      </trkpt>
      <trkpt lat="45.16164" lon="6.4945">
        <ele>1659.76</ele>
        <time>2016-08-13T12:51:32Z</time>
      </trkpt>
      <trkpt lat="45.16181" lon="6.49445">
        <ele>1659.37</ele>
        <time>2016-08-13T12:55:08Z</time>
      </trkpt>
      <trkpt lat="45.162" lon="6.49424">
        <ele>1657.4</ele>
        <time>2016-08-13T12:55:13Z</time>
      </trkpt>
      <trkpt lat="45.16224" lon="6.49423">
        <ele>1656.76</ele>
        <time>2016-08-13T12:55:17Z</time>
      </trkpt>
      <trkpt lat="45.16245" lon="6.49416">
        <ele>1656.49</ele>
        <time>2016-08-13T12:55:21Z</time>
      </trkpt>
      <trkpt lat="45.16264" lon="6.49405">
        <ele>1656.53</ele>
        <time>2016-08-13T12:55:25Z</time>
      </trkpt>
      <trkpt lat="45.16283" lon="6.49397">
        <ele>1656.32</ele>
        <time>2016-08-13T12:55:29Z</time>
      </trkpt>
      <trkpt lat="45.16303" lon="6.49394">
        <ele>1655.91</ele>
        <time>2016-08-13T12:55:33Z</time>
      </trkpt>
      <trkpt lat="45.16324" lon="6.4939">
        <ele>1655.24</ele>
        <time>2016-08-13T12:55:37Z</time>
      </trkpt>
      <trkpt lat="45.16348" lon="6.49388">
        <ele>1652.62</ele>
        <time>2016-08-13T12:55:40Z</time>
      </trkpt>
      <trkpt lat="45.16372" lon="6.49394">
        <ele>1650.26</ele>
        <time>2016-08-13T12:55:43Z</time>
      </trkpt>
      <trkpt lat="45.1639" lon="6.49396">
        <ele>1649.46</ele>
        <time>2016-08-13T12:55:45Z</time>
      </trkpt>
      <trkpt lat="45.16408" lon="6.49398">
        <ele>1648.89</ele>
        <time>2016-08-13T12:55:47Z</time>
      </trkpt>
      <trkpt lat="45.16427" lon="6.49396">
        <ele>1647.88</ele>
        <time>2016-08-13T12:55:49Z</time>
      </trkpt>
      <trkpt lat="45.1645" lon="6.49396">
        <ele>1645.33</ele>
        <time>2016-08-13T12:55:51Z</time>
      </trkpt>
      <trkpt lat="45.16473" lon="6.49399">
        <ele>1642.74</ele>
        <time>2016-08-13T12:55:53Z</time>
      </trkpt>
      <trkpt lat="45.16496" lon="6.49404">
        <ele>1641.19</ele>
        <time>2016-08-13T12:55:55Z</time>
      </trkpt>
      <trkpt lat="45.16516" lon="6.49412">
        <ele>1640.07</ele>
        <time>2016-08-13T12:55:57Z</time>
      </trkpt>
      <trkpt lat="45.16535" lon="6.49417">
        <ele>1640.16</ele>
        <time>2016-08-13T12:55:59Z</time>
      </trkpt>
      <trkpt lat="45.16555" lon="6.49404">
        <ele>1641.93</ele>
        <time>2016-08-13T12:56:02Z</time>
      </trkpt>
      <trkpt lat="45.16573" lon="6.49396">
        <ele>1643.99</ele>
        <time>2016-08-13T12:56:06Z</time>
      </trkpt>
      <trkpt lat="45.16594" lon="6.49393">
        <ele>1644.28</ele>
        <time>2016-08-13T12:56:12Z</time>
      </trkpt>
      <trkpt lat="45.16613" lon="6.49386">
        <ele>1643.76</ele>
        <time>2016-08-13T12:56:16Z</time>
      </trkpt>
      <trkpt lat="45.16634" lon="6.49383">
        <ele>1644.22</ele>
        <time>2016-08-13T12:56:21Z</time>
      </trkpt>
      <trkpt lat="45.16652" lon="6.49387">
        <ele>1644.9</ele>
        <time>2016-08-13T12:56:26Z</time>
      </trkpt>
      <trkpt lat="45.1667" lon="6.49394">
        <ele>1645.14</ele>
        <time>2016-08-13T12:56:31Z</time>
      </trkpt>
      <trkpt lat="45.16687" lon="6.49409">
        <ele>1645.37</ele>
        <time>2016-08-13T12:56:37Z</time>
      </trkpt>
      <trkpt lat="45.16705" lon="6.49416">
        <ele>1645</ele>
        <time>2016-08-13T12:56:42Z</time>
      </trkpt>
      <trkpt lat="45.16726" lon="6.49423">
        <ele>1645.19</ele>
        <time>2016-08-13T12:56:48Z</time>
      </trkpt>
      <trkpt lat="45.16741" lon="6.49445">
        <ele>1644.59</ele>
        <time>2016-08-13T12:56:53Z</time>
      </trkpt>
      <trkpt lat="45.16755" lon="6.49469">
        <ele>1643.34</ele>
        <time>2016-08-13T12:56:57Z</time>
      </trkpt>
      <trkpt lat="45.16769" lon="6.49489">
        <ele>1641.43</ele>
        <time>2016-08-13T12:57:00Z</time>
      </trkpt>
      <trkpt lat="45.16794" lon="6.49503">
        <ele>1637.77</ele>
        <time>2016-08-13T12:57:03Z</time>
      </trkpt>
      <trkpt lat="45.16812" lon="6.49496">
        <ele>1636.73</ele>
        <time>2016-08-13T12:57:05Z</time>
      </trkpt>
      <trkpt lat="45.16831" lon="6.4949">
        <ele>1636.19</ele>
        <time>2016-08-13T12:57:07Z</time>
      </trkpt>
      <trkpt lat="45.16849" lon="6.49487">
        <ele>1634.97</ele>
        <time>2016-08-13T12:57:09Z</time>
      </trkpt>
      <trkpt lat="45.16869" lon="6.49465">
        <ele>1633.9</ele>
        <time>2016-08-13T12:57:12Z</time>
      </trkpt>
      <trkpt lat="45.1688" lon="6.49435">
        <ele>1633.25</ele>
        <time>2016-08-13T12:57:15Z</time>
      </trkpt>
      <trkpt lat="45.16895" lon="6.49409">
        <ele>1631.97</ele>
        <time>2016-08-13T12:57:18Z</time>
      </trkpt>
      <trkpt lat="45.16911" lon="6.4938">
        <ele>1630.68</ele>
        <time>2016-08-13T12:57:21Z</time>
      </trkpt>
      <trkpt lat="45.16926" lon="6.49353">
        <ele>1628.97</ele>
        <time>2016-08-13T12:57:24Z</time>
      </trkpt>
      <trkpt lat="45.16943" lon="6.49341">
        <ele>1627.75</ele>
        <time>2016-08-13T12:57:28Z</time>
      </trkpt>
      <trkpt lat="45.16963" lon="6.4933">
        <ele>1625.81</ele>
        <time>2016-08-13T12:57:31Z</time>
      </trkpt>
      <trkpt lat="45.16982" lon="6.49306">
        <ele>1623.15</ele>
        <time>2016-08-13T12:57:34Z</time>
      </trkpt>
      <trkpt lat="45.16995" lon="6.49287">
        <ele>1621.24</ele>
        <time>2016-08-13T12:57:36Z</time>
      </trkpt>
      <trkpt lat="45.17007" lon="6.49261">
        <ele>1618.31</ele>
        <time>2016-08-13T12:57:38Z</time>
      </trkpt>
      <trkpt lat="45.1702" lon="6.49237">
        <ele>1614.97</ele>
        <time>2016-08-13T12:57:40Z</time>
      </trkpt>
      <trkpt lat="45.17035" lon="6.49214">
        <ele>1613.9</ele>
        <time>2016-08-13T12:57:42Z</time>
      </trkpt>
      <trkpt lat="45.1705" lon="6.49194">
        <ele>1612.45</ele>
        <time>2016-08-13T12:57:44Z</time>
      </trkpt>
      <trkpt lat="45.17066" lon="6.49175">
        <ele>1610.42</ele>
        <time>2016-08-13T12:57:48Z</time>
      </trkpt>
      <trkpt lat="45.17084" lon="6.49157">
        <ele>1608.12</ele>
        <time>2016-08-13T12:57:52Z</time>
      </trkpt>
      <trkpt lat="45.17069" lon="6.49172">
        <ele>1608.78</ele>
        <time>2016-08-13T12:58:42Z</time>
      </trkpt>
      <trkpt lat="45.17053" lon="6.49187">
        <ele>1610.91</ele>
        <time>2016-08-13T12:58:50Z</time>
      </trkpt>
      <trkpt lat="45.17038" lon="6.49205">
        <ele>1612.9</ele>
        <time>2016-08-13T12:58:58Z</time>
      </trkpt>
      <trkpt lat="45.17025" lon="6.49224">
        <ele>1614.4</ele>
        <time>2016-08-13T12:59:07Z</time>
      </trkpt>
      <trkpt lat="45.17013" lon="6.49245">
        <ele>1615.65</ele>
        <time>2016-08-13T12:59:15Z</time>
      </trkpt>
      <trkpt lat="45.16999" lon="6.49265">
        <ele>1617.55</ele>
        <time>2016-08-13T12:59:24Z</time>
      </trkpt>
      <trkpt lat="45.16989" lon="6.49288">
        <ele>1619.93</ele>
        <time>2016-08-13T12:59:35Z</time>
      </trkpt>
      <trkpt lat="45.16978" lon="6.49309">
        <ele>1622.31</ele>
        <time>2016-08-13T12:59:45Z</time>
      </trkpt>
      <trkpt lat="45.16962" lon="6.49324">
        <ele>1624.71</ele>
        <time>2016-08-13T12:59:56Z</time>
      </trkpt>
      <trkpt lat="45.16944" lon="6.49338">
        <ele>1627.2</ele>
        <time>2016-08-13T13:00:31Z</time>
      </trkpt>
      <trkpt lat="45.16928" lon="6.49352">
        <ele>1628.61</ele>
        <time>2016-08-13T13:00:39Z</time>
      </trkpt>
      <trkpt lat="45.16916" lon="6.49373">
        <ele>1629.63</ele>
        <time>2016-08-13T13:00:47Z</time>
      </trkpt>
      <trkpt lat="45.16904" lon="6.49394">
        <ele>1630.9</ele>
        <time>2016-08-13T13:00:55Z</time>
      </trkpt>
      <trkpt lat="45.1689" lon="6.49413">
        <ele>1632.22</ele>
        <time>2016-08-13T13:01:04Z</time>
      </trkpt>
      <trkpt lat="45.16882" lon="6.49435">
        <ele>1633.67</ele>
        <time>2016-08-13T13:01:16Z</time>
      </trkpt>
      <trkpt lat="45.169" lon="6.49423">
        <ele>1634.66</ele>
        <time>2016-08-13T13:01:54Z</time>
      </trkpt>
      <trkpt lat="45.16917" lon="6.49415">
        <ele>1636.76</ele>
        <time>2016-08-13T13:02:00Z</time>
      </trkpt>
      <trkpt lat="45.16935" lon="6.49408">
        <ele>1640.58</ele>
        <time>2016-08-13T13:02:19Z</time>
      </trkpt>
      <trkpt lat="45.16953" lon="6.49406">
        <ele>1645.78</ele>
        <time>2016-08-13T13:03:04Z</time>
      </trkpt>
      <trkpt lat="45.16971" lon="6.49397">
        <ele>1646.43</ele>
        <time>2016-08-13T13:03:27Z</time>
      </trkpt>
      <trkpt lat="45.16984" lon="6.49378">
        <ele>1645.27</ele>
        <time>2016-08-13T13:03:53Z</time>
      </trkpt>
      <trkpt lat="45.17" lon="6.49368">
        <ele>1644.06</ele>
        <time>2016-08-13T13:04:23Z</time>
      </trkpt>
      <trkpt lat="45.17018" lon="6.49369">
        <ele>1645.66</ele>
        <time>2016-08-13T13:04:49Z</time>
      </trkpt>
      <trkpt lat="45.17036" lon="6.49359">
        <ele>1648.25</ele>
        <time>2016-08-13T13:05:13Z</time>
      </trkpt>
      <trkpt lat="45.17054" lon="6.49355">
        <ele>1649.48</ele>
        <time>2016-08-13T13:05:30Z</time>
      </trkpt>
      <trkpt lat="45.17074" lon="6.49347">
        <ele>1651.27</ele>
        <time>2016-08-13T13:06:51Z</time>
      </trkpt>
      <trkpt lat="45.17093" lon="6.49342">
        <ele>1653.86</ele>
        <time>2016-08-13T13:07:00Z</time>
      </trkpt>
      <trkpt lat="45.17111" lon="6.49331">
        <ele>1657.36</ele>
        <time>2016-08-13T13:07:10Z</time>
      </trkpt>
      <trkpt lat="45.17128" lon="6.49318">
        <ele>1660.98</ele>
        <time>2016-08-13T13:07:21Z</time>
      </trkpt>
      <trkpt lat="45.17146" lon="6.49312">
        <ele>1663.6</ele>
        <time>2016-08-13T13:07:32Z</time>
      </trkpt>
      <trkpt lat="45.17163" lon="6.49302">
        <ele>1663.86</ele>
        <time>2016-08-13T13:07:42Z</time>
      </trkpt>
      <trkpt lat="45.1718" lon="6.49294">
        <ele>1664.26</ele>
        <time>2016-08-13T13:07:48Z</time>
      </trkpt>
      <trkpt lat="45.17199" lon="6.49288">
        <ele>1665.22</ele>
        <time>2016-08-13T13:07:55Z</time>
      </trkpt>
      <trkpt lat="45.17217" lon="6.49285">
        <ele>1666.44</ele>
        <time>2016-08-13T13:08:02Z</time>
      </trkpt>
      <trkpt lat="45.17237" lon="6.4928">
        <ele>1667.58</ele>
        <time>2016-08-13T13:08:10Z</time>
      </trkpt>
      <trkpt lat="45.17256" lon="6.49275">
        <ele>1668.77</ele>
        <time>2016-08-13T13:08:17Z</time>
      </trkpt>
      <trkpt lat="45.17276" lon="6.49272">
        <ele>1670.47</ele>
        <time>2016-08-13T13:08:25Z</time>
      </trkpt>
      <trkpt lat="45.17295" lon="6.49268">
        <ele>1671.88</ele>
        <time>2016-08-13T13:08:33Z</time>
      </trkpt>
      <trkpt lat="45.17314" lon="6.49266">
        <ele>1673.63</ele>
        <time>2016-08-13T13:08:41Z</time>
      </trkpt>
      <trkpt lat="45.17333" lon="6.4926">
        <ele>1674.95</ele>
        <time>2016-08-13T13:08:50Z</time>
      </trkpt>
      <trkpt lat="45.17351" lon="6.49249">
        <ele>1674.96</ele>
        <time>2016-08-13T13:08:57Z</time>
      </trkpt>
      <trkpt lat="45.17372" lon="6.49249">
        <ele>1675.46</ele>
        <time>2016-08-13T13:09:04Z</time>
      </trkpt>
      <trkpt lat="45.17382" lon="6.4927">
        <ele>1677.22</ele>
        <time>2016-08-13T13:09:12Z</time>
      </trkpt>
      <trkpt lat="45.17397" lon="6.49287">
        <ele>1679.5</ele>
        <time>2016-08-13T13:09:24Z</time>
      </trkpt>
      <trkpt lat="45.17417" lon="6.49288">
        <ele>1678.47</ele>
        <time>2016-08-13T13:09:33Z</time>
      </trkpt>
      <trkpt lat="45.17435" lon="6.49284">
        <ele>1677.21</ele>
        <time>2016-08-13T13:09:40Z</time>
      </trkpt>
      <trkpt lat="45.17453" lon="6.49283">
        <ele>1677.52</ele>
        <time>2016-08-13T13:09:58Z</time>
      </trkpt>
      <trkpt lat="45.17472" lon="6.49288">
        <ele>1678.57</ele>
        <time>2016-08-13T13:10:07Z</time>
      </trkpt>
      <trkpt lat="45.1749" lon="6.49297">
        <ele>1679.45</ele>
        <time>2016-08-13T13:10:15Z</time>
      </trkpt>
      <trkpt lat="45.17504" lon="6.49313">
        <ele>1681.1</ele>
        <time>2016-08-13T13:10:23Z</time>
      </trkpt>
      <trkpt lat="45.17521" lon="6.49323">
        <ele>1681.51</ele>
        <time>2016-08-13T13:10:31Z</time>
      </trkpt>
      <trkpt lat="45.1754" lon="6.49318">
        <ele>1682.73</ele>
        <time>2016-08-13T13:10:40Z</time>
      </trkpt>
      <trkpt lat="45.17557" lon="6.49304">
        <ele>1683.64</ele>
        <time>2016-08-13T13:10:48Z</time>
      </trkpt>
      <trkpt lat="45.17574" lon="6.49292">
        <ele>1684.5</ele>
        <time>2016-08-13T13:10:56Z</time>
      </trkpt>
      <trkpt lat="45.17593" lon="6.4929">
        <ele>1686.2</ele>
        <time>2016-08-13T13:11:06Z</time>
      </trkpt>
      <trkpt lat="45.17611" lon="6.4928">
        <ele>1686.91</ele>
        <time>2016-08-13T13:11:14Z</time>
      </trkpt>
      <trkpt lat="45.17628" lon="6.49266">
        <ele>1687.43</ele>
        <time>2016-08-13T13:11:23Z</time>
      </trkpt>
      <trkpt lat="45.17644" lon="6.49254">
        <ele>1688.33</ele>
        <time>2016-08-13T13:11:31Z</time>
      </trkpt>
      <trkpt lat="45.17662" lon="6.49248">
        <ele>1689.6</ele>
        <time>2016-08-13T13:11:39Z</time>
      </trkpt>
      <trkpt lat="45.1768" lon="6.49244">
        <ele>1690.73</ele>
        <time>2016-08-13T13:11:46Z</time>
      </trkpt>
      <trkpt lat="45.17697" lon="6.49237">
        <ele>1691.56</ele>
        <time>2016-08-13T13:11:53Z</time>
      </trkpt>
      <trkpt lat="45.17714" lon="6.49228">
        <ele>1692.46</ele>
        <time>2016-08-13T13:12:00Z</time>
      </trkpt>
      <trkpt lat="45.17732" lon="6.49217">
        <ele>1692.5</ele>
        <time>2016-08-13T13:12:09Z</time>
      </trkpt>
      <trkpt lat="45.17751" lon="6.4921">
        <ele>1691.49</ele>
        <time>2016-08-13T13:12:42Z</time>
      </trkpt>
      <trkpt lat="45.17732" lon="6.49217">
        <ele>1692.17</ele>
        <time>2016-08-13T13:13:06Z</time>
      </trkpt>
      <trkpt lat="45.17715" lon="6.49225">
        <ele>1692.43</ele>
        <time>2016-08-13T13:13:20Z</time>
      </trkpt>
      <trkpt lat="45.17696" lon="6.49233">
        <ele>1692.08</ele>
        <time>2016-08-13T13:13:30Z</time>
      </trkpt>
      <trkpt lat="45.17676" lon="6.49239">
        <ele>1691.24</ele>
        <time>2016-08-13T13:13:37Z</time>
      </trkpt>
      <trkpt lat="45.17695" lon="6.49237">
        <ele>1691.22</ele>
        <time>2016-08-13T13:14:13Z</time>
      </trkpt>
      <trkpt lat="45.17712" lon="6.49226">
        <ele>1692.13</ele>
        <time>2016-08-13T13:14:25Z</time>
      </trkpt>
      <trkpt lat="45.17731" lon="6.49218">
        <ele>1692.46</ele>
        <time>2016-08-13T13:14:33Z</time>
      </trkpt>
      <trkpt lat="45.1775" lon="6.49209">
        <ele>1691.71</ele>
        <time>2016-08-13T13:14:40Z</time>
      </trkpt>
      <trkpt lat="45.17771" lon="6.49203">
        <ele>1690.45</ele>
        <time>2016-08-13T13:14:45Z</time>
      </trkpt>
      <trkpt lat="45.17788" lon="6.49197">
        <ele>1688.85</ele>
        <time>2016-08-13T13:14:48Z</time>
      </trkpt>
      <trkpt lat="45.17809" lon="6.49183">
        <ele>1686.68</ele>
        <time>2016-08-13T13:14:51Z</time>
      </trkpt>
      <trkpt lat="45.17833" lon="6.4917">
        <ele>1683.93</ele>
        <time>2016-08-13T13:14:54Z</time>
      </trkpt>
      <trkpt lat="45.17851" lon="6.49165">
        <ele>1682.92</ele>
        <time>2016-08-13T13:14:56Z</time>
      </trkpt>
      <trkpt lat="45.17869" lon="6.49146">
        <ele>1683.13</ele>
        <time>2016-08-13T13:14:59Z</time>
      </trkpt>
      <trkpt lat="45.17887" lon="6.49143">
        <ele>1684.4</ele>
        <time>2016-08-13T13:15:02Z</time>
      </trkpt>
      <trkpt lat="45.17865" lon="6.49141">
        <ele>1684.66</ele>
        <time>2016-08-13T13:15:25Z</time>
      </trkpt>
      <trkpt lat="45.17848" lon="6.49152">
        <ele>1686.41</ele>
        <time>2016-08-13T13:15:32Z</time>
      </trkpt>
      <trkpt lat="45.17838" lon="6.49173">
        <ele>1689</ele>
        <time>2016-08-13T13:15:41Z</time>
      </trkpt>
      <trkpt lat="45.17825" lon="6.49193">
        <ele>1690.04</ele>
        <time>2016-08-13T13:15:49Z</time>
      </trkpt>
      <trkpt lat="45.17809" lon="6.49206">
        <ele>1691.25</ele>
        <time>2016-08-13T13:15:57Z</time>
      </trkpt>
      <trkpt lat="45.17792" lon="6.49221">
        <ele>1694.21</ele>
        <time>2016-08-13T13:16:06Z</time>
      </trkpt>
      <trkpt lat="45.17775" lon="6.49229">
        <ele>1697.94</ele>
        <time>2016-08-13T13:16:15Z</time>
      </trkpt>
      <trkpt lat="45.17757" lon="6.49236">
        <ele>1700.92</ele>
        <time>2016-08-13T13:16:24Z</time>
      </trkpt>
      <trkpt lat="45.17741" lon="6.4925">
        <ele>1702.89</ele>
        <time>2016-08-13T13:16:33Z</time>
      </trkpt>
      <trkpt lat="45.17727" lon="6.4927">
        <ele>1704.93</ele>
        <time>2016-08-13T13:16:41Z</time>
      </trkpt>
      <trkpt lat="45.1771" lon="6.49285">
        <ele>1707.17</ele>
        <time>2016-08-13T13:16:50Z</time>
      </trkpt>
      <trkpt lat="45.17693" lon="6.49301">
        <ele>1709.34</ele>
        <time>2016-08-13T13:16:59Z</time>
      </trkpt>
      <trkpt lat="45.1768" lon="6.49319">
        <ele>1711.24</ele>
        <time>2016-08-13T13:17:07Z</time>
      </trkpt>
      <trkpt lat="45.17671" lon="6.49343">
        <ele>1713.54</ele>
        <time>2016-08-13T13:17:16Z</time>
      </trkpt>
      <trkpt lat="45.1766" lon="6.49364">
        <ele>1715.91</ele>
        <time>2016-08-13T13:17:26Z</time>
      </trkpt>
      <trkpt lat="45.17656" lon="6.4939">
        <ele>1717.8</ele>
        <time>2016-08-13T13:17:35Z</time>
      </trkpt>
      <trkpt lat="45.17651" lon="6.49415">
        <ele>1720.16</ele>
        <time>2016-08-13T13:17:45Z</time>
      </trkpt>
      <trkpt lat="45.17644" lon="6.49441">
        <ele>1721.7</ele>
        <time>2016-08-13T13:17:54Z</time>
      </trkpt>
      <trkpt lat="45.17639" lon="6.49467">
        <ele>1723.35</ele>
        <time>2016-08-13T13:18:02Z</time>
      </trkpt>
      <trkpt lat="45.17633" lon="6.49491">
        <ele>1725.36</ele>
        <time>2016-08-13T13:18:11Z</time>
      </trkpt>
      <trkpt lat="45.17629" lon="6.49518">
        <ele>1727.74</ele>
        <time>2016-08-13T13:18:21Z</time>
      </trkpt>
      <trkpt lat="45.17621" lon="6.49543">
        <ele>1730.65</ele>
        <time>2016-08-13T13:18:30Z</time>
      </trkpt>
      <trkpt lat="45.17606" lon="6.49558">
        <ele>1733.34</ele>
        <time>2016-08-13T13:18:39Z</time>
      </trkpt>
      <trkpt lat="45.17586" lon="6.49566">
        <ele>1735.15</ele>
        <time>2016-08-13T13:18:48Z</time>
      </trkpt>
      <trkpt lat="45.17569" lon="6.49579">
        <ele>1737.11</ele>
        <time>2016-08-13T13:18:58Z</time>
      </trkpt>
      <trkpt lat="45.17582" lon="6.49599">
        <ele>1740.06</ele>
        <time>2016-08-13T13:19:10Z</time>
      </trkpt>
      <trkpt lat="45.17601" lon="6.49601">
        <ele>1741.54</ele>
        <time>2016-08-13T13:19:18Z</time>
      </trkpt>
      <trkpt lat="45.17621" lon="6.49602">
        <ele>1742.91</ele>
        <time>2016-08-13T13:19:25Z</time>
      </trkpt>
      <trkpt lat="45.17636" lon="6.49587">
        <ele>1744.09</ele>
        <time>2016-08-13T13:19:32Z</time>
      </trkpt>
      <trkpt lat="45.17648" lon="6.49565">
        <ele>1745.6</ele>
        <time>2016-08-13T13:19:40Z</time>
      </trkpt>
      <trkpt lat="45.17654" lon="6.49592">
        <ele>1749.68</ele>
        <time>2016-08-13T13:19:55Z</time>
      </trkpt>
      <trkpt lat="45.17646" lon="6.49618">
        <ele>1752.28</ele>
        <time>2016-08-13T13:20:05Z</time>
      </trkpt>
      <trkpt lat="45.17636" lon="6.49641">
        <ele>1755.89</ele>
        <time>2016-08-13T13:20:15Z</time>
      </trkpt>
      <trkpt lat="45.17622" lon="6.49659">
        <ele>1759.56</ele>
        <time>2016-08-13T13:20:25Z</time>
      </trkpt>
      <trkpt lat="45.17607" lon="6.49676">
        <ele>1763.48</ele>
        <time>2016-08-13T13:20:35Z</time>
      </trkpt>
      <trkpt lat="45.17593" lon="6.49694">
        <ele>1767.31</ele>
        <time>2016-08-13T13:20:45Z</time>
      </trkpt>
      <trkpt lat="45.1758" lon="6.49713">
        <ele>1770.86</ele>
        <time>2016-08-13T13:20:55Z</time>
      </trkpt>
      <trkpt lat="45.17565" lon="6.4973">
        <ele>1774.24</ele>
        <time>2016-08-13T13:21:05Z</time>
      </trkpt>
      <trkpt lat="45.17559" lon="6.49755">
        <ele>1778.31</ele>
        <time>2016-08-13T13:21:16Z</time>
      </trkpt>
      <trkpt lat="45.17579" lon="6.49756">
        <ele>1782.5</ele>
        <time>2016-08-13T13:22:08Z</time>
      </trkpt>
      <trkpt lat="45.17598" lon="6.49751">
        <ele>1784.05</ele>
        <time>2016-08-13T13:22:17Z</time>
      </trkpt>
      <trkpt lat="45.17617" lon="6.49744">
        <ele>1786.18</ele>
        <time>2016-08-13T13:22:25Z</time>
      </trkpt>
      <trkpt lat="45.17634" lon="6.49733">
        <ele>1788.21</ele>
        <time>2016-08-13T13:22:33Z</time>
      </trkpt>
      <trkpt lat="45.17653" lon="6.49723">
        <ele>1790.02</ele>
        <time>2016-08-13T13:22:42Z</time>
      </trkpt>
      <trkpt lat="45.1767" lon="6.4971">
        <ele>1791.26</ele>
        <time>2016-08-13T13:22:51Z</time>
      </trkpt>
      <trkpt lat="45.17687" lon="6.497">
        <ele>1793.16</ele>
        <time>2016-08-13T13:22:59Z</time>
      </trkpt>
      <trkpt lat="45.17703" lon="6.49688">
        <ele>1796.61</ele>
        <time>2016-08-13T13:23:08Z</time>
      </trkpt>
      <trkpt lat="45.17718" lon="6.49669">
        <ele>1799.99</ele>
        <time>2016-08-13T13:23:18Z</time>
      </trkpt>
      <trkpt lat="45.17733" lon="6.49654">
        <ele>1803.15</ele>
        <time>2016-08-13T13:23:28Z</time>
      </trkpt>
      <trkpt lat="45.17749" lon="6.49637">
        <ele>1805.33</ele>
        <time>2016-08-13T13:23:37Z</time>
      </trkpt>
      <trkpt lat="45.17764" lon="6.49621">
        <ele>1807.73</ele>
        <time>2016-08-13T13:23:46Z</time>
      </trkpt>
      <trkpt lat="45.17778" lon="6.49601">
        <ele>1810.72</ele>
        <time>2016-08-13T13:23:55Z</time>
      </trkpt>
      <trkpt lat="45.17795" lon="6.4959">
        <ele>1813.03</ele>
        <time>2016-08-13T13:24:03Z</time>
      </trkpt>
      <trkpt lat="45.17813" lon="6.49586">
        <ele>1814.82</ele>
        <time>2016-08-13T13:24:12Z</time>
      </trkpt>
      <trkpt lat="45.17833" lon="6.49591">
        <ele>1816.53</ele>
        <time>2016-08-13T13:24:20Z</time>
      </trkpt>
      <trkpt lat="45.17852" lon="6.49593">
        <ele>1817.67</ele>
        <time>2016-08-13T13:24:27Z</time>
      </trkpt>
      <trkpt lat="45.17869" lon="6.49603">
        <ele>1819.18</ele>
        <time>2016-08-13T13:24:34Z</time>
      </trkpt>
      <trkpt lat="45.17888" lon="6.49612">
        <ele>1820.39</ele>
        <time>2016-08-13T13:24:42Z</time>
      </trkpt>
      <trkpt lat="45.17906" lon="6.49617">
        <ele>1822.38</ele>
        <time>2016-08-13T13:24:50Z</time>
      </trkpt>
      <trkpt lat="45.17923" lon="6.4963">
        <ele>1825.38</ele>
        <time>2016-08-13T13:24:59Z</time>
      </trkpt>
      <trkpt lat="45.17939" lon="6.49646">
        <ele>1828.3</ele>
        <time>2016-08-13T13:25:09Z</time>
      </trkpt>
      <trkpt lat="45.17953" lon="6.49663">
        <ele>1830.2</ele>
        <time>2016-08-13T13:25:17Z</time>
      </trkpt>
      <trkpt lat="45.17969" lon="6.49682">
        <ele>1831.32</ele>
        <time>2016-08-13T13:25:24Z</time>
      </trkpt>
      <trkpt lat="45.17987" lon="6.49691">
        <ele>1833.78</ele>
        <time>2016-08-13T13:25:33Z</time>
      </trkpt>
      <trkpt lat="45.18008" lon="6.49689">
        <ele>1836.22</ele>
        <time>2016-08-13T13:25:42Z</time>
      </trkpt>
      <trkpt lat="45.18027" lon="6.49686">
        <ele>1838.71</ele>
        <time>2016-08-13T13:25:51Z</time>
      </trkpt>
      <trkpt lat="45.18047" lon="6.49683">
        <ele>1841.19</ele>
        <time>2016-08-13T13:26:00Z</time>
      </trkpt>
      <trkpt lat="45.18065" lon="6.49681">
        <ele>1843.19</ele>
        <time>2016-08-13T13:26:08Z</time>
      </trkpt>
      <trkpt lat="45.18085" lon="6.49676">
        <ele>1845.44</ele>
        <time>2016-08-13T13:26:17Z</time>
      </trkpt>
      <trkpt lat="45.18103" lon="6.49667">
        <ele>1848.34</ele>
        <time>2016-08-13T13:26:27Z</time>
      </trkpt>
      <trkpt lat="45.1812" lon="6.49662">
        <ele>1851</ele>
        <time>2016-08-13T13:26:36Z</time>
      </trkpt>
      <trkpt lat="45.18139" lon="6.49659">
        <ele>1853.64</ele>
        <time>2016-08-13T13:26:46Z</time>
      </trkpt>
      <trkpt lat="45.18158" lon="6.49658">
        <ele>1855.41</ele>
        <time>2016-08-13T13:26:56Z</time>
      </trkpt>
      <trkpt lat="45.18177" lon="6.49655">
        <ele>1858.5</ele>
        <time>2016-08-13T13:27:06Z</time>
      </trkpt>
      <trkpt lat="45.18195" lon="6.49659">
        <ele>1862.53</ele>
        <time>2016-08-13T13:27:16Z</time>
      </trkpt>
      <trkpt lat="45.18214" lon="6.49664">
        <ele>1866.73</ele>
        <time>2016-08-13T13:27:27Z</time>
      </trkpt>
      <trkpt lat="45.1823" lon="6.49678">
        <ele>1870.65</ele>
        <time>2016-08-13T13:28:20Z</time>
      </trkpt>
      <trkpt lat="45.18247" lon="6.49689">
        <ele>1874.28</ele>
        <time>2016-08-13T13:28:32Z</time>
      </trkpt>
      <trkpt lat="45.18265" lon="6.49698">
        <ele>1877.17</ele>
        <time>2016-08-13T13:28:43Z</time>
      </trkpt>
      <trkpt lat="45.18283" lon="6.49698">
        <ele>1879.62</ele>
        <time>2016-08-13T13:28:53Z</time>
      </trkpt>
      <trkpt lat="45.18303" lon="6.497">
        <ele>1882.78</ele>
        <time>2016-08-13T13:29:04Z</time>
      </trkpt>
      <trkpt lat="45.18323" lon="6.49701">
        <ele>1885.96</ele>
        <time>2016-08-13T13:29:15Z</time>
      </trkpt>
      <trkpt lat="45.18342" lon="6.49706">
        <ele>1889.94</ele>
        <time>2016-08-13T13:29:26Z</time>
      </trkpt>
      <trkpt lat="45.18361" lon="6.4971">
        <ele>1894.31</ele>
        <time>2016-08-13T13:29:38Z</time>
      </trkpt>
      <trkpt lat="45.1838" lon="6.49712">
        <ele>1898.76</ele>
        <time>2016-08-13T13:29:49Z</time>
      </trkpt>
      <trkpt lat="45.18398" lon="6.49718">
        <ele>1902.84</ele>
        <time>2016-08-13T13:30:00Z</time>
      </trkpt>
      <trkpt lat="45.18415" lon="6.49728">
        <ele>1906.43</ele>
        <time>2016-08-13T13:30:10Z</time>
      </trkpt>
      <trkpt lat="45.18434" lon="6.49727">
        <ele>1910.1</ele>
        <time>2016-08-13T13:30:20Z</time>
      </trkpt>
      <trkpt lat="45.18453" lon="6.49717">
        <ele>1913.67</ele>
        <time>2016-08-13T13:30:31Z</time>
      </trkpt>
      <trkpt lat="45.1846" lon="6.49741">
        <ele>1916.38</ele>
        <time>2016-08-13T13:33:49Z</time>
      </trkpt>
      <trkpt lat="45.1845" lon="6.49764">
        <ele>1919.31</ele>
        <time>2016-08-13T13:33:59Z</time>
      </trkpt>
      <trkpt lat="45.1844" lon="6.49785">
        <ele>1922.33</ele>
        <time>2016-08-13T13:34:10Z</time>
      </trkpt>
      <trkpt lat="45.18425" lon="6.49801">
        <ele>1924.16</ele>
        <time>2016-08-13T13:34:19Z</time>
      </trkpt>
      <trkpt lat="45.18406" lon="6.49809">
        <ele>1925.65</ele>
        <time>2016-08-13T13:34:27Z</time>
      </trkpt>
      <trkpt lat="45.18387" lon="6.49812">
        <ele>1926.88</ele>
        <time>2016-08-13T13:34:34Z</time>
      </trkpt>
      <trkpt lat="45.18368" lon="6.49819">
        <ele>1928.63</ele>
        <time>2016-08-13T13:34:42Z</time>
      </trkpt>
      <trkpt lat="45.1835" lon="6.49826">
        <ele>1930.27</ele>
        <time>2016-08-13T13:34:50Z</time>
      </trkpt>
      <trkpt lat="45.18332" lon="6.4984">
        <ele>1932.63</ele>
        <time>2016-08-13T13:35:00Z</time>
      </trkpt>
      <trkpt lat="45.18317" lon="6.49856">
        <ele>1934.75</ele>
        <time>2016-08-13T13:35:08Z</time>
      </trkpt>
      <trkpt lat="45.18305" lon="6.49876">
        <ele>1936.91</ele>
        <time>2016-08-13T13:35:16Z</time>
      </trkpt>
      <trkpt lat="45.18294" lon="6.49898">
        <ele>1939.08</ele>
        <time>2016-08-13T13:35:25Z</time>
      </trkpt>
      <trkpt lat="45.18283" lon="6.4992">
        <ele>1941.29</ele>
        <time>2016-08-13T13:35:34Z</time>
      </trkpt>
      <trkpt lat="45.1827" lon="6.49937">
        <ele>1942.93</ele>
        <time>2016-08-13T13:35:41Z</time>
      </trkpt>
      <trkpt lat="45.18253" lon="6.49952">
        <ele>1944</ele>
        <time>2016-08-13T13:35:48Z</time>
      </trkpt>
      <trkpt lat="45.1825" lon="6.49978">
        <ele>1946.73</ele>
        <time>2016-08-13T13:35:58Z</time>
      </trkpt>
      <trkpt lat="45.1826" lon="6.50002">
        <ele>1947.89</ele>
        <time>2016-08-13T13:36:06Z</time>
      </trkpt>
      <trkpt lat="45.18275" lon="6.50018">
        <ele>1949.32</ele>
        <time>2016-08-13T13:36:14Z</time>
      </trkpt>
      <trkpt lat="45.18292" lon="6.50029">
        <ele>1951.38</ele>
        <time>2016-08-13T13:36:22Z</time>
      </trkpt>
      <trkpt lat="45.18312" lon="6.50026">
        <ele>1954.1</ele>
        <time>2016-08-13T13:36:31Z</time>
      </trkpt>
      <trkpt lat="45.1833" lon="6.50024">
        <ele>1955.84</ele>
        <time>2016-08-13T13:36:39Z</time>
      </trkpt>
      <trkpt lat="45.18348" lon="6.50024">
        <ele>1957.88</ele>
        <time>2016-08-13T13:36:47Z</time>
      </trkpt>
      <trkpt lat="45.18367" lon="6.50023">
        <ele>1960.35</ele>
        <time>2016-08-13T13:36:56Z</time>
      </trkpt>
      <trkpt lat="45.18386" lon="6.5002">
        <ele>1962.9</ele>
        <time>2016-08-13T13:37:05Z</time>
      </trkpt>
      <trkpt lat="45.184" lon="6.50001">
        <ele>1965.62</ele>
        <time>2016-08-13T13:37:14Z</time>
      </trkpt>
      <trkpt lat="45.18412" lon="6.49981">
        <ele>1967.97</ele>
        <time>2016-08-13T13:37:23Z</time>
      </trkpt>
      <trkpt lat="45.18426" lon="6.49963">
        <ele>1969.95</ele>
        <time>2016-08-13T13:37:31Z</time>
      </trkpt>
      <trkpt lat="45.18441" lon="6.49947">
        <ele>1971.71</ele>
        <time>2016-08-13T13:37:39Z</time>
      </trkpt>
      <trkpt lat="45.18462" lon="6.49942">
        <ele>1973.6</ele>
        <time>2016-08-13T13:37:47Z</time>
      </trkpt>
      <trkpt lat="45.1848" lon="6.49939">
        <ele>1975.46</ele>
        <time>2016-08-13T13:37:54Z</time>
      </trkpt>
      <trkpt lat="45.18499" lon="6.49937">
        <ele>1977.66</ele>
        <time>2016-08-13T13:39:22Z</time>
      </trkpt>
      <trkpt lat="45.18491" lon="6.49961">
        <ele>1981.04</ele>
        <time>2016-08-13T13:39:32Z</time>
      </trkpt>
      <trkpt lat="45.18477" lon="6.4998">
        <ele>1985.22</ele>
        <time>2016-08-13T13:39:43Z</time>
      </trkpt>
      <trkpt lat="45.18468" lon="6.50002">
        <ele>1988.51</ele>
        <time>2016-08-13T13:39:52Z</time>
      </trkpt>
      <trkpt lat="45.1846" lon="6.50027">
        <ele>1991.6</ele>
        <time>2016-08-13T13:40:03Z</time>
      </trkpt>
      <trkpt lat="45.1845" lon="6.50051">
        <ele>1994.3</ele>
        <time>2016-08-13T13:40:13Z</time>
      </trkpt>
      <trkpt lat="45.1844" lon="6.50073">
        <ele>1997.33</ele>
        <time>2016-08-13T13:40:23Z</time>
      </trkpt>
      <trkpt lat="45.18431" lon="6.50096">
        <ele>1999.5</ele>
        <time>2016-08-13T13:40:33Z</time>
      </trkpt>
      <trkpt lat="45.18422" lon="6.50118">
        <ele>2001.33</ele>
        <time>2016-08-13T13:40:42Z</time>
      </trkpt>
      <trkpt lat="45.18411" lon="6.50142">
        <ele>2003.99</ele>
        <time>2016-08-13T13:40:51Z</time>
      </trkpt>
      <trkpt lat="45.18403" lon="6.50165">
        <ele>2006.28</ele>
        <time>2016-08-13T13:40:59Z</time>
      </trkpt>
      <trkpt lat="45.18392" lon="6.50185">
        <ele>2008.91</ele>
        <time>2016-08-13T13:41:07Z</time>
      </trkpt>
      <trkpt lat="45.1838" lon="6.50207">
        <ele>2012.04</ele>
        <time>2016-08-13T13:41:16Z</time>
      </trkpt>
      <trkpt lat="45.18373" lon="6.50232">
        <ele>2013.94</ele>
        <time>2016-08-13T13:41:24Z</time>
      </trkpt>
      <trkpt lat="45.18367" lon="6.50257">
        <ele>2015.56</ele>
        <time>2016-08-13T13:41:33Z</time>
      </trkpt>
      <trkpt lat="45.1836" lon="6.50284">
        <ele>2017.11</ele>
        <time>2016-08-13T13:41:42Z</time>
      </trkpt>
      <trkpt lat="45.18353" lon="6.50309">
        <ele>2018.49</ele>
        <time>2016-08-13T13:41:51Z</time>
      </trkpt>
      <trkpt lat="45.18341" lon="6.50329">
        <ele>2021.91</ele>
        <time>2016-08-13T13:42:01Z</time>
      </trkpt>
      <trkpt lat="45.18327" lon="6.50346">
        <ele>2025.17</ele>
        <time>2016-08-13T13:42:10Z</time>
      </trkpt>
      <trkpt lat="45.18312" lon="6.50361">
        <ele>2027.42</ele>
        <time>2016-08-13T13:42:21Z</time>
      </trkpt>
      <trkpt lat="45.18297" lon="6.50379">
        <ele>2029.51</ele>
        <time>2016-08-13T13:42:31Z</time>
      </trkpt>
      <trkpt lat="45.18282" lon="6.50392">
        <ele>2032.13</ele>
        <time>2016-08-13T13:42:40Z</time>
      </trkpt>
      <trkpt lat="45.18266" lon="6.50407">
        <ele>2034.91</ele>
        <time>2016-08-13T13:42:50Z</time>
      </trkpt>
      <trkpt lat="45.18251" lon="6.50425">
        <ele>2038.15</ele>
        <time>2016-08-13T13:43:01Z</time>
      </trkpt>
      <trkpt lat="45.18239" lon="6.50445">
        <ele>2041.8</ele>
        <time>2016-08-13T13:43:12Z</time>
      </trkpt>
      <trkpt lat="45.18232" lon="6.5047">
        <ele>2044.76</ele>
        <time>2016-08-13T13:43:23Z</time>
      </trkpt>
      <trkpt lat="45.18218" lon="6.50487">
        <ele>2047.33</ele>
        <time>2016-08-13T13:43:33Z</time>
      </trkpt>
      <trkpt lat="45.18202" lon="6.50503">
        <ele>2049.18</ele>
        <time>2016-08-13T13:43:41Z</time>
      </trkpt>
      <trkpt lat="45.18186" lon="6.50515">
        <ele>2050.62</ele>
        <time>2016-08-13T13:43:49Z</time>
      </trkpt>
      <trkpt lat="45.18169" lon="6.5053">
        <ele>2051.88</ele>
        <time>2016-08-13T13:43:57Z</time>
      </trkpt>
      <trkpt lat="45.18153" lon="6.50542">
        <ele>2053.41</ele>
        <time>2016-08-13T13:44:04Z</time>
      </trkpt>
      <trkpt lat="45.18139" lon="6.50561">
        <ele>2055.27</ele>
        <time>2016-08-13T13:44:12Z</time>
      </trkpt>
      <trkpt lat="45.18124" lon="6.50579">
        <ele>2057.24</ele>
        <time>2016-08-13T13:44:21Z</time>
      </trkpt>
      <trkpt lat="45.18108" lon="6.50594">
        <ele>2058.91</ele>
        <time>2016-08-13T13:44:29Z</time>
      </trkpt>
      <trkpt lat="45.18093" lon="6.50611">
        <ele>2059.68</ele>
        <time>2016-08-13T13:44:35Z</time>
      </trkpt>
      <trkpt lat="45.18077" lon="6.50629">
        <ele>2061.07</ele>
        <time>2016-08-13T13:44:42Z</time>
      </trkpt>
      <trkpt lat="45.18064" lon="6.50652">
        <ele>2061.92</ele>
        <time>2016-08-13T13:44:48Z</time>
      </trkpt>
      <trkpt lat="45.1805" lon="6.50674">
        <ele>2063.27</ele>
        <time>2016-08-13T13:44:54Z</time>
      </trkpt>
      <trkpt lat="45.18038" lon="6.50693">
        <ele>2063.78</ele>
        <time>2016-08-13T13:44:59Z</time>
      </trkpt>
      <trkpt lat="45.18019" lon="6.50702">
        <ele>2064.27</ele>
        <time>2016-08-13T13:45:05Z</time>
      </trkpt>
      <trkpt lat="45.17998" lon="6.50705">
        <ele>2065.08</ele>
        <time>2016-08-13T13:45:10Z</time>
      </trkpt>
      <trkpt lat="45.17977" lon="6.50711">
        <ele>2066.23</ele>
        <time>2016-08-13T13:45:16Z</time>
      </trkpt>
      <trkpt lat="45.17959" lon="6.50717">
        <ele>2067.97</ele>
        <time>2016-08-13T13:45:23Z</time>
      </trkpt>
      <trkpt lat="45.17979" lon="6.50702">
        <ele>2067.29</ele>
        <time>2016-08-13T13:46:06Z</time>
      </trkpt>
      <trkpt lat="45.17998" lon="6.507">
        <ele>2065.98</ele>
        <time>2016-08-13T13:46:09Z</time>
      </trkpt>
      <trkpt lat="45.18017" lon="6.507">
        <ele>2065.12</ele>
        <time>2016-08-13T13:46:12Z</time>
      </trkpt>
      <trkpt lat="45.18035" lon="6.50694">
        <ele>2064.39</ele>
        <time>2016-08-13T13:46:15Z</time>
      </trkpt>
      <trkpt lat="45.1805" lon="6.50667">
        <ele>2063.91</ele>
        <time>2016-08-13T13:46:19Z</time>
      </trkpt>
      <trkpt lat="45.18062" lon="6.50645">
        <ele>2063.2</ele>
        <time>2016-08-13T13:46:24Z</time>
      </trkpt>
      <trkpt lat="45.18076" lon="6.50624">
        <ele>2061.62</ele>
        <time>2016-08-13T13:47:01Z</time>
      </trkpt>
      <trkpt lat="45.18091" lon="6.50602">
        <ele>2060.65</ele>
        <time>2016-08-13T13:47:07Z</time>
      </trkpt>
      <trkpt lat="45.18106" lon="6.50584">
        <ele>2059.03</ele>
        <time>2016-08-13T13:47:11Z</time>
      </trkpt>
      <trkpt lat="45.18123" lon="6.50574">
        <ele>2057.98</ele>
        <time>2016-08-13T13:47:14Z</time>
      </trkpt>
      <trkpt lat="45.18139" lon="6.50557">
        <ele>2056.49</ele>
        <time>2016-08-13T13:47:17Z</time>
      </trkpt>
      <trkpt lat="45.18157" lon="6.50536">
        <ele>2054.56</ele>
        <time>2016-08-13T13:47:20Z</time>
      </trkpt>
      <trkpt lat="45.18178" lon="6.50519">
        <ele>2052.81</ele>
        <time>2016-08-13T13:47:23Z</time>
      </trkpt>
      <trkpt lat="45.18195" lon="6.50504">
        <ele>2051.23</ele>
        <time>2016-08-13T13:47:26Z</time>
      </trkpt>
      <trkpt lat="45.18215" lon="6.50487">
        <ele>2049.57</ele>
        <time>2016-08-13T13:47:29Z</time>
      </trkpt>
      <trkpt lat="45.1823" lon="6.50464">
        <ele>2047.33</ele>
        <time>2016-08-13T13:47:32Z</time>
      </trkpt>
      <trkpt lat="45.18239" lon="6.5044">
        <ele>2044.81</ele>
        <time>2016-08-13T13:47:35Z</time>
      </trkpt>
      <trkpt lat="45.18249" lon="6.50419">
        <ele>2041.44</ele>
        <time>2016-08-13T13:47:38Z</time>
      </trkpt>
      <trkpt lat="45.18266" lon="6.50401">
        <ele>2037.46</ele>
        <time>2016-08-13T13:47:42Z</time>
      </trkpt>
      <trkpt lat="45.18282" lon="6.50387">
        <ele>2034.57</ele>
        <time>2016-08-13T13:47:45Z</time>
      </trkpt>
      <trkpt lat="45.18297" lon="6.50371">
        <ele>2031.74</ele>
        <time>2016-08-13T13:47:49Z</time>
      </trkpt>
      <trkpt lat="45.18315" lon="6.50352">
        <ele>2028.95</ele>
        <time>2016-08-13T13:47:53Z</time>
      </trkpt>
      <trkpt lat="45.18332" lon="6.50341">
        <ele>2026.52</ele>
        <time>2016-08-13T13:47:57Z</time>
      </trkpt>
      <trkpt lat="45.18347" lon="6.50323">
        <ele>2024.44</ele>
        <time>2016-08-13T13:48:00Z</time>
      </trkpt>
      <trkpt lat="45.18358" lon="6.50295">
        <ele>2020.31</ele>
        <time>2016-08-13T13:48:03Z</time>
      </trkpt>
      <trkpt lat="45.18366" lon="6.50269">
        <ele>2017.63</ele>
        <time>2016-08-13T13:48:07Z</time>
      </trkpt>
      <trkpt lat="45.1837" lon="6.50244">
        <ele>2015.79</ele>
        <time>2016-08-13T13:48:13Z</time>
      </trkpt>
      <trkpt lat="45.18384" lon="6.50223">
        <ele>2015</ele>
        <time>2016-08-13T13:48:41Z</time>
      </trkpt>
      <trkpt lat="45.184" lon="6.50209">
        <ele>2015.92</ele>
        <time>2016-08-13T13:48:48Z</time>
      </trkpt>
      <trkpt lat="45.18418" lon="6.50198">
        <ele>2018.11</ele>
        <time>2016-08-13T13:48:58Z</time>
      </trkpt>
      <trkpt lat="45.18438" lon="6.50188">
        <ele>2019.55</ele>
        <time>2016-08-13T13:49:23Z</time>
      </trkpt>
      <trkpt lat="45.18455" lon="6.50178">
        <ele>2020.8</ele>
        <time>2016-08-13T13:49:30Z</time>
      </trkpt>
      <trkpt lat="45.18474" lon="6.50179">
        <ele>2022.66</ele>
        <time>2016-08-13T13:49:37Z</time>
      </trkpt>
      <trkpt lat="45.18494" lon="6.50177">
        <ele>2025.08</ele>
        <time>2016-08-13T13:49:44Z</time>
      </trkpt>
      <trkpt lat="45.18512" lon="6.50182">
        <ele>2028.04</ele>
        <time>2016-08-13T13:49:52Z</time>
      </trkpt>
      <trkpt lat="45.18528" lon="6.50198">
        <ele>2031.71</ele>
        <time>2016-08-13T13:50:01Z</time>
      </trkpt>
      <trkpt lat="45.18543" lon="6.50211">
        <ele>2035.9</ele>
        <time>2016-08-13T13:50:10Z</time>
      </trkpt>
      <trkpt lat="45.18562" lon="6.50211">
        <ele>2036.73</ele>
        <time>2016-08-13T13:50:18Z</time>
      </trkpt>
      <trkpt lat="45.18578" lon="6.50198">
        <ele>2039.42</ele>
        <time>2016-08-13T13:50:27Z</time>
      </trkpt>
      <trkpt lat="45.18591" lon="6.50177">
        <ele>2040.36</ele>
        <time>2016-08-13T13:50:36Z</time>
      </trkpt>
      <trkpt lat="45.18609" lon="6.50169">
        <ele>2039.73</ele>
        <time>2016-08-13T13:50:56Z</time>
      </trkpt>
      <trkpt lat="45.18626" lon="6.50158">
        <ele>2040.53</ele>
        <time>2016-08-13T13:51:04Z</time>
      </trkpt>
      <trkpt lat="45.18642" lon="6.50143">
        <ele>2043.42</ele>
        <time>2016-08-13T13:51:14Z</time>
      </trkpt>
      <trkpt lat="45.1866" lon="6.50135">
        <ele>2046.75</ele>
        <time>2016-08-13T13:51:23Z</time>
      </trkpt>
      <trkpt lat="45.18678" lon="6.50142">
        <ele>2050.76</ele>
        <time>2016-08-13T13:51:32Z</time>
      </trkpt>
      <trkpt lat="45.18687" lon="6.50164">
        <ele>2052.68</ele>
        <time>2016-08-13T13:51:40Z</time>
      </trkpt>
      <trkpt lat="45.187" lon="6.50182">
        <ele>2054.61</ele>
        <time>2016-08-13T13:51:49Z</time>
      </trkpt>
      <trkpt lat="45.18714" lon="6.50198">
        <ele>2056.99</ele>
        <time>2016-08-13T13:51:58Z</time>
      </trkpt>
      <trkpt lat="45.18732" lon="6.50207">
        <ele>2060.08</ele>
        <time>2016-08-13T13:52:08Z</time>
      </trkpt>
      <trkpt lat="45.18748" lon="6.5022">
        <ele>2062.65</ele>
        <time>2016-08-13T13:52:18Z</time>
      </trkpt>
      <trkpt lat="45.18768" lon="6.50227">
        <ele>2064.27</ele>
        <time>2016-08-13T13:52:27Z</time>
      </trkpt>
      <trkpt lat="45.18786" lon="6.50238">
        <ele>2065.17</ele>
        <time>2016-08-13T13:52:35Z</time>
      </trkpt>
      <trkpt lat="45.18797" lon="6.50264">
        <ele>2062.39</ele>
        <time>2016-08-13T13:52:41Z</time>
      </trkpt>
      <trkpt lat="45.18801" lon="6.50291">
        <ele>2061.12</ele>
        <time>2016-08-13T13:53:10Z</time>
      </trkpt>
      <trkpt lat="45.18809" lon="6.50314">
        <ele>2057.26</ele>
        <time>2016-08-13T13:53:13Z</time>
      </trkpt>
      <trkpt lat="45.18822" lon="6.50343">
        <ele>2053.94</ele>
        <time>2016-08-13T13:53:17Z</time>
      </trkpt>
      <trkpt lat="45.18835" lon="6.50366">
        <ele>2051.82</ele>
        <time>2016-08-13T13:53:21Z</time>
      </trkpt>
      <trkpt lat="45.18845" lon="6.50391">
        <ele>2049.46</ele>
        <time>2016-08-13T13:53:24Z</time>
      </trkpt>
      <trkpt lat="45.18858" lon="6.50417">
        <ele>2046.35</ele>
        <time>2016-08-13T13:53:27Z</time>
      </trkpt>
      <trkpt lat="45.18867" lon="6.50445">
        <ele>2044.05</ele>
        <time>2016-08-13T13:53:30Z</time>
      </trkpt>
      <trkpt lat="45.18882" lon="6.50465">
        <ele>2041.51</ele>
        <time>2016-08-13T13:53:34Z</time>
      </trkpt>
      <trkpt lat="45.18897" lon="6.50489">
        <ele>2039.41</ele>
        <time>2016-08-13T13:53:38Z</time>
      </trkpt>
      <trkpt lat="45.18911" lon="6.50508">
        <ele>2038.63</ele>
        <time>2016-08-13T13:53:43Z</time>
      </trkpt>
      <trkpt lat="45.18927" lon="6.50528">
        <ele>2032.91</ele>
        <time>2016-08-13T13:53:48Z</time>
      </trkpt>
      <trkpt lat="45.18943" lon="6.50542">
        <ele>2033</ele>
        <time>2016-08-13T13:53:54Z</time>
      </trkpt>
      <trkpt lat="45.18963" lon="6.50538">
        <ele>2032.28</ele>
        <time>2016-08-13T13:54:03Z</time>
      </trkpt>
      <trkpt lat="45.18968" lon="6.50514">
        <ele>2025.73</ele>
        <time>2016-08-13T13:54:53Z</time>
      </trkpt>
      <trkpt lat="45.18952" lon="6.50499">
        <ele>2022.59</ele>
        <time>2016-08-13T13:55:20Z</time>
      </trkpt>
      <trkpt lat="45.18942" lon="6.50474">
        <ele>2020.83</ele>
        <time>2016-08-13T13:55:28Z</time>
      </trkpt>
      <trkpt lat="45.18936" lon="6.50447">
        <ele>2017.73</ele>
        <time>2016-08-13T13:55:33Z</time>
      </trkpt>
      <trkpt lat="45.18933" lon="6.50421">
        <ele>2013.96</ele>
        <time>2016-08-13T13:55:39Z</time>
      </trkpt>
      <trkpt lat="45.18937" lon="6.50392">
        <ele>2010.45</ele>
        <time>2016-08-13T13:55:47Z</time>
      </trkpt>
      <trkpt lat="45.1894" lon="6.50364">
        <ele>2008.03</ele>
        <time>2016-08-13T13:55:55Z</time>
      </trkpt>
      <trkpt lat="45.18941" lon="6.50336">
        <ele>2004.34</ele>
        <time>2016-08-13T13:56:01Z</time>
      </trkpt>
      <trkpt lat="45.18944" lon="6.50309">
        <ele>2001.09</ele>
        <time>2016-08-13T13:56:17Z</time>
      </trkpt>
      <trkpt lat="45.18941" lon="6.50284">
        <ele>1998.88</ele>
        <time>2016-08-13T13:56:23Z</time>
      </trkpt>
      <trkpt lat="45.18944" lon="6.50258">
        <ele>1997.95</ele>
        <time>2016-08-13T13:56:32Z</time>
      </trkpt>
      <trkpt lat="45.18945" lon="6.50231">
        <ele>1995.87</ele>
        <time>2016-08-13T13:56:39Z</time>
      </trkpt>
      <trkpt lat="45.18946" lon="6.50204">
        <ele>1996.01</ele>
        <time>2016-08-13T13:56:49Z</time>
      </trkpt>
      <trkpt lat="45.18943" lon="6.50176">
        <ele>1995.31</ele>
        <time>2016-08-13T13:56:57Z</time>
      </trkpt>
      <trkpt lat="45.18947" lon="6.5015">
        <ele>1991.25</ele>
        <time>2016-08-13T13:57:02Z</time>
      </trkpt>
      <trkpt lat="45.18951" lon="6.50125">
        <ele>1986.92</ele>
        <time>2016-08-13T13:57:08Z</time>
      </trkpt>
      <trkpt lat="45.18958" lon="6.50097">
        <ele>1982.79</ele>
        <time>2016-08-13T13:57:13Z</time>
      </trkpt>
      <trkpt lat="45.18962" lon="6.50067">
        <ele>1978.91</ele>
        <time>2016-08-13T13:57:19Z</time>
      </trkpt>
      <trkpt lat="45.18967" lon="6.50038">
        <ele>1977.97</ele>
        <time>2016-08-13T13:57:24Z</time>
      </trkpt>
      <trkpt lat="45.18971" lon="6.50011">
        <ele>1976.63</ele>
        <time>2016-08-13T13:57:29Z</time>
      </trkpt>
      <trkpt lat="45.18971" lon="6.49983">
        <ele>1973.06</ele>
        <time>2016-08-13T13:57:36Z</time>
      </trkpt>
      <trkpt lat="45.18969" lon="6.49956">
        <ele>1969.44</ele>
        <time>2016-08-13T13:57:42Z</time>
      </trkpt>
      <trkpt lat="45.18968" lon="6.4993">
        <ele>1967.36</ele>
        <time>2016-08-13T13:57:48Z</time>
      </trkpt>
      <trkpt lat="45.18964" lon="6.49905">
        <ele>1965.92</ele>
        <time>2016-08-13T13:57:55Z</time>
      </trkpt>
      <trkpt lat="45.18963" lon="6.49877">
        <ele>1965.63</ele>
        <time>2016-08-13T13:58:04Z</time>
      </trkpt>
      <trkpt lat="45.18961" lon="6.4985">
        <ele>1964.52</ele>
        <time>2016-08-13T13:58:09Z</time>
      </trkpt>
      <trkpt lat="45.1896" lon="6.49819">
        <ele>1962.52</ele>
        <time>2016-08-13T13:58:13Z</time>
      </trkpt>
      <trkpt lat="45.18951" lon="6.49791">
        <ele>1961.59</ele>
        <time>2016-08-13T13:58:18Z</time>
      </trkpt>
      <trkpt lat="45.18941" lon="6.49766">
        <ele>1960.91</ele>
        <time>2016-08-13T13:58:23Z</time>
      </trkpt>
      <trkpt lat="45.18929" lon="6.49746">
        <ele>1959.99</ele>
        <time>2016-08-13T13:58:27Z</time>
      </trkpt>
      <trkpt lat="45.18925" lon="6.49719">
        <ele>1957.52</ele>
        <time>2016-08-13T13:58:32Z</time>
      </trkpt>
      <trkpt lat="45.18924" lon="6.49688">
        <ele>1953.42</ele>
        <time>2016-08-13T13:58:37Z</time>
      </trkpt>
      <trkpt lat="45.18928" lon="6.49659">
        <ele>1948.89</ele>
        <time>2016-08-13T13:58:42Z</time>
      </trkpt>
      <trkpt lat="45.18939" lon="6.49635">
        <ele>1944.21</ele>
        <time>2016-08-13T13:58:47Z</time>
      </trkpt>
      <trkpt lat="45.18937" lon="6.49607">
        <ele>1933.24</ele>
        <time>2016-08-13T13:59:25Z</time>
      </trkpt>
      <trkpt lat="45.18927" lon="6.49581">
        <ele>1926.61</ele>
        <time>2016-08-13T13:59:33Z</time>
      </trkpt>
      <trkpt lat="45.18916" lon="6.49558">
        <ele>1920.46</ele>
        <time>2016-08-13T13:59:41Z</time>
      </trkpt>
      <trkpt lat="45.189" lon="6.49544">
        <ele>1916.37</ele>
        <time>2016-08-13T13:59:50Z</time>
      </trkpt>
      <trkpt lat="45.18884" lon="6.4953">
        <ele>1910.86</ele>
        <time>2016-08-13T13:59:58Z</time>
      </trkpt>
      <trkpt lat="45.18865" lon="6.49525">
        <ele>1905.49</ele>
        <time>2016-08-13T14:00:05Z</time>
      </trkpt>
      <trkpt lat="45.18845" lon="6.49524">
        <ele>1900.58</ele>
        <time>2016-08-13T14:00:11Z</time>
      </trkpt>
      <trkpt lat="45.18829" lon="6.4951">
        <ele>1897.65</ele>
        <time>2016-08-13T14:00:17Z</time>
      </trkpt>
      <trkpt lat="45.18815" lon="6.49491">
        <ele>1894.05</ele>
        <time>2016-08-13T14:00:25Z</time>
      </trkpt>
      <trkpt lat="45.18795" lon="6.49493">
        <ele>1890.17</ele>
        <time>2016-08-13T14:00:31Z</time>
      </trkpt>
      <trkpt lat="45.18776" lon="6.49491">
        <ele>1885.96</ele>
        <time>2016-08-13T14:00:37Z</time>
      </trkpt>
      <trkpt lat="45.18759" lon="6.49478">
        <ele>1880.37</ele>
        <time>2016-08-13T14:00:43Z</time>
      </trkpt>
      <trkpt lat="45.18765" lon="6.49452">
        <ele>1871.9</ele>
        <time>2016-08-13T14:00:54Z</time>
      </trkpt>
      <trkpt lat="45.18747" lon="6.49442">
        <ele>1866.44</ele>
        <time>2016-08-13T14:01:00Z</time>
      </trkpt>
      <trkpt lat="45.18729" lon="6.49428">
        <ele>1859.83</ele>
        <time>2016-08-13T14:01:06Z</time>
      </trkpt>
      <trkpt lat="45.18724" lon="6.49403">
        <ele>1853.59</ele>
        <time>2016-08-13T14:01:53Z</time>
      </trkpt>
      <trkpt lat="45.18712" lon="6.49384">
        <ele>1848.69</ele>
        <time>2016-08-13T14:01:58Z</time>
      </trkpt>
      <trkpt lat="45.18724" lon="6.49362">
        <ele>1844.57</ele>
        <time>2016-08-13T14:02:21Z</time>
      </trkpt>
      <trkpt lat="45.18742" lon="6.49355">
        <ele>1843.27</ele>
        <time>2016-08-13T14:02:26Z</time>
      </trkpt>
      <trkpt lat="45.1876" lon="6.49348">
        <ele>1839.74</ele>
        <time>2016-08-13T14:02:30Z</time>
      </trkpt>
      <trkpt lat="45.18777" lon="6.49331">
        <ele>1835.03</ele>
        <time>2016-08-13T14:02:33Z</time>
      </trkpt>
      <trkpt lat="45.18798" lon="6.49311">
        <ele>1829.6</ele>
        <time>2016-08-13T14:02:36Z</time>
      </trkpt>
      <trkpt lat="45.18812" lon="6.49289">
        <ele>1828.39</ele>
        <time>2016-08-13T14:02:41Z</time>
      </trkpt>
      <trkpt lat="45.18829" lon="6.4927">
        <ele>1825.65</ele>
        <time>2016-08-13T14:02:47Z</time>
      </trkpt>
      <trkpt lat="45.18844" lon="6.49251">
        <ele>1823.35</ele>
        <time>2016-08-13T14:02:51Z</time>
      </trkpt>
      <trkpt lat="45.1886" lon="6.49236">
        <ele>1823.2</ele>
        <time>2016-08-13T14:02:58Z</time>
      </trkpt>
      <trkpt lat="45.18871" lon="6.49215">
        <ele>1821.75</ele>
        <time>2016-08-13T14:03:02Z</time>
      </trkpt>
      <trkpt lat="45.18886" lon="6.49192">
        <ele>1819.41</ele>
        <time>2016-08-13T14:03:06Z</time>
      </trkpt>
      <trkpt lat="45.18898" lon="6.49172">
        <ele>1818.56</ele>
        <time>2016-08-13T14:03:10Z</time>
      </trkpt>
      <trkpt lat="45.18911" lon="6.4915">
        <ele>1815.45</ele>
        <time>2016-08-13T14:03:16Z</time>
      </trkpt>
      <trkpt lat="45.1892" lon="6.49126">
        <ele>1811.72</ele>
        <time>2016-08-13T14:03:20Z</time>
      </trkpt>
      <trkpt lat="45.18929" lon="6.49101">
        <ele>1807.4</ele>
        <time>2016-08-13T14:03:25Z</time>
      </trkpt>
      <trkpt lat="45.18944" lon="6.49084">
        <ele>1804.17</ele>
        <time>2016-08-13T14:03:33Z</time>
      </trkpt>
      <trkpt lat="45.18962" lon="6.49075">
        <ele>1799.37</ele>
        <time>2016-08-13T14:03:41Z</time>
      </trkpt>
      <trkpt lat="45.18981" lon="6.49069">
        <ele>1797.33</ele>
        <time>2016-08-13T14:03:52Z</time>
      </trkpt>
      <trkpt lat="45.19" lon="6.49054">
        <ele>1792.74</ele>
        <time>2016-08-13T14:04:02Z</time>
      </trkpt>
      <trkpt lat="45.19018" lon="6.49046">
        <ele>1789.57</ele>
        <time>2016-08-13T14:04:07Z</time>
      </trkpt>
      <trkpt lat="45.19032" lon="6.4903">
        <ele>1785.84</ele>
        <time>2016-08-13T14:04:13Z</time>
      </trkpt>
      <trkpt lat="45.1905" lon="6.49015">
        <ele>1781.6</ele>
        <time>2016-08-13T14:04:20Z</time>
      </trkpt>
      <trkpt lat="45.19068" lon="6.4901">
        <ele>1777.68</ele>
        <time>2016-08-13T14:05:13Z</time>
      </trkpt>
      <trkpt lat="45.19084" lon="6.48997">
        <ele>1773.19</ele>
        <time>2016-08-13T14:05:20Z</time>
      </trkpt>
      <trkpt lat="45.19091" lon="6.48973">
        <ele>1768.7</ele>
        <time>2016-08-13T14:05:28Z</time>
      </trkpt>
      <trkpt lat="45.19088" lon="6.48944">
        <ele>1766.5</ele>
        <time>2016-08-13T14:05:39Z</time>
      </trkpt>
      <trkpt lat="45.19104" lon="6.48931">
        <ele>1762.79</ele>
        <time>2016-08-13T14:05:46Z</time>
      </trkpt>
      <trkpt lat="45.19089" lon="6.48917">
        <ele>1760.08</ele>
        <time>2016-08-13T14:05:54Z</time>
      </trkpt>
      <trkpt lat="45.19071" lon="6.48913">
        <ele>1757.94</ele>
        <time>2016-08-13T14:06:00Z</time>
      </trkpt>
      <trkpt lat="45.19052" lon="6.48907">
        <ele>1756.34</ele>
        <time>2016-08-13T14:06:06Z</time>
      </trkpt>
      <trkpt lat="45.1903" lon="6.48907">
        <ele>1755.16</ele>
        <time>2016-08-13T14:06:12Z</time>
      </trkpt>
      <trkpt lat="45.19012" lon="6.48904">
        <ele>1754.66</ele>
        <time>2016-08-13T14:06:16Z</time>
      </trkpt>
      <trkpt lat="45.18994" lon="6.48914">
        <ele>1755.61</ele>
        <time>2016-08-13T14:06:25Z</time>
      </trkpt>
      <trkpt lat="45.18978" lon="6.48903">
        <ele>1755.32</ele>
        <time>2016-08-13T14:06:52Z</time>
      </trkpt>
      <trkpt lat="45.18958" lon="6.48908">
        <ele>1754.3</ele>
        <time>2016-08-13T14:06:58Z</time>
      </trkpt>
      <trkpt lat="45.18939" lon="6.48915">
        <ele>1753.32</ele>
        <time>2016-08-13T14:07:04Z</time>
      </trkpt>
      <trkpt lat="45.18923" lon="6.48929">
        <ele>1752.36</ele>
        <time>2016-08-13T14:07:09Z</time>
      </trkpt>
      <trkpt lat="45.18905" lon="6.48936">
        <ele>1751.82</ele>
        <time>2016-08-13T14:07:15Z</time>
      </trkpt>
      <trkpt lat="45.18891" lon="6.48954">
        <ele>1751.97</ele>
        <time>2016-08-13T14:07:21Z</time>
      </trkpt>
      <trkpt lat="45.18872" lon="6.48962">
        <ele>1751.86</ele>
        <time>2016-08-13T14:07:27Z</time>
      </trkpt>
      <trkpt lat="45.18852" lon="6.48959">
        <ele>1751.31</ele>
        <time>2016-08-13T14:07:33Z</time>
      </trkpt>
      <trkpt lat="45.18831" lon="6.48954">
        <ele>1748.37</ele>
        <time>2016-08-13T14:07:38Z</time>
      </trkpt>
      <trkpt lat="45.18813" lon="6.48951">
        <ele>1746.23</ele>
        <time>2016-08-13T14:07:43Z</time>
      </trkpt>
      <trkpt lat="45.18792" lon="6.48944">
        <ele>1743.66</ele>
        <time>2016-08-13T14:07:48Z</time>
      </trkpt>
      <trkpt lat="45.1877" lon="6.48938">
        <ele>1740.41</ele>
        <time>2016-08-13T14:07:52Z</time>
      </trkpt>
      <trkpt lat="45.1875" lon="6.48937">
        <ele>1736.62</ele>
        <time>2016-08-13T14:07:59Z</time>
      </trkpt>
      <trkpt lat="45.18758" lon="6.48912">
        <ele>1733.27</ele>
        <time>2016-08-13T14:08:07Z</time>
      </trkpt>
      <trkpt lat="45.18739" lon="6.48906">
        <ele>1724.62</ele>
        <time>2016-08-13T14:08:20Z</time>
      </trkpt>
      <trkpt lat="45.1872" lon="6.48908">
        <ele>1720.8</ele>
        <time>2016-08-13T14:08:25Z</time>
      </trkpt>
      <trkpt lat="45.18702" lon="6.48903">
        <ele>1715.78</ele>
        <time>2016-08-13T14:08:33Z</time>
      </trkpt>
      <trkpt lat="45.18682" lon="6.48901">
        <ele>1710.41</ele>
        <time>2016-08-13T14:08:39Z</time>
      </trkpt>
      <trkpt lat="45.18669" lon="6.48879">
        <ele>1706.23</ele>
        <time>2016-08-13T14:08:46Z</time>
      </trkpt>
      <trkpt lat="45.18651" lon="6.48866">
        <ele>1702.64</ele>
        <time>2016-08-13T14:08:51Z</time>
      </trkpt>
      <trkpt lat="45.18636" lon="6.48844">
        <ele>1701.11</ele>
        <time>2016-08-13T14:08:56Z</time>
      </trkpt>
      <trkpt lat="45.18618" lon="6.48837">
        <ele>1699.72</ele>
        <time>2016-08-13T14:09:02Z</time>
      </trkpt>
      <trkpt lat="45.186" lon="6.48825">
        <ele>1701.02</ele>
        <time>2016-08-13T14:09:10Z</time>
      </trkpt>
      <trkpt lat="45.18581" lon="6.48817">
        <ele>1698.97</ele>
        <time>2016-08-13T14:09:16Z</time>
      </trkpt>
      <trkpt lat="45.18562" lon="6.48816">
        <ele>1697.89</ele>
        <time>2016-08-13T14:09:22Z</time>
      </trkpt>
      <trkpt lat="45.18542" lon="6.4881">
        <ele>1696.91</ele>
        <time>2016-08-13T14:09:29Z</time>
      </trkpt>
      <trkpt lat="45.18524" lon="6.48806">
        <ele>1696.59</ele>
        <time>2016-08-13T14:09:36Z</time>
      </trkpt>
      <trkpt lat="45.18506" lon="6.48812">
        <ele>1697.66</ele>
        <time>2016-08-13T14:09:45Z</time>
      </trkpt>
      <trkpt lat="45.18485" lon="6.48818">
        <ele>1696.64</ele>
        <time>2016-08-13T14:11:26Z</time>
      </trkpt>
      <trkpt lat="45.18466" lon="6.48824">
        <ele>1692.89</ele>
        <time>2016-08-13T14:11:31Z</time>
      </trkpt>
      <trkpt lat="45.18448" lon="6.48834">
        <ele>1689.94</ele>
        <time>2016-08-13T14:11:38Z</time>
      </trkpt>
      <trkpt lat="45.1843" lon="6.48829">
        <ele>1683.34</ele>
        <time>2016-08-13T14:11:43Z</time>
      </trkpt>
      <trkpt lat="45.18414" lon="6.48815">
        <ele>1679.66</ele>
        <time>2016-08-13T14:11:48Z</time>
      </trkpt>
      <trkpt lat="45.18417" lon="6.48783">
        <ele>1677.18</ele>
        <time>2016-08-13T14:12:04Z</time>
      </trkpt>
      <trkpt lat="45.18425" lon="6.4876">
        <ele>1672.6</ele>
        <time>2016-08-13T14:12:07Z</time>
      </trkpt>
      <trkpt lat="45.18432" lon="6.48735">
        <ele>1666.54</ele>
        <time>2016-08-13T14:12:10Z</time>
      </trkpt>
      <trkpt lat="45.18441" lon="6.48713">
        <ele>1661.33</ele>
        <time>2016-08-13T14:12:13Z</time>
      </trkpt>
      <trkpt lat="45.18453" lon="6.48688">
        <ele>1655.46</ele>
        <time>2016-08-13T14:12:16Z</time>
      </trkpt>
      <trkpt lat="45.18465" lon="6.48664">
        <ele>1649.35</ele>
        <time>2016-08-13T14:12:19Z</time>
      </trkpt>
      <trkpt lat="45.18478" lon="6.48637">
        <ele>1644.02</ele>
        <time>2016-08-13T14:12:22Z</time>
      </trkpt>
      <trkpt lat="45.1849" lon="6.4861">
        <ele>1637.74</ele>
        <time>2016-08-13T14:12:25Z</time>
      </trkpt>
      <trkpt lat="45.18507" lon="6.486">
        <ele>1633.07</ele>
        <time>2016-08-13T14:12:28Z</time>
      </trkpt>
      <trkpt lat="45.18528" lon="6.48596">
        <ele>1627.1</ele>
        <time>2016-08-13T14:12:32Z</time>
      </trkpt>
      <trkpt lat="45.18548" lon="6.48593">
        <ele>1619.93</ele>
        <time>2016-08-13T14:12:36Z</time>
      </trkpt>
      <trkpt lat="45.18566" lon="6.48591">
        <ele>1613.6</ele>
        <time>2016-08-13T14:12:39Z</time>
      </trkpt>
      <trkpt lat="45.18587" lon="6.48584">
        <ele>1607.13</ele>
        <time>2016-08-13T14:12:43Z</time>
      </trkpt>
      <trkpt lat="45.18606" lon="6.4858">
        <ele>1602.82</ele>
        <time>2016-08-13T14:12:46Z</time>
      </trkpt>
      <trkpt lat="45.18627" lon="6.48578">
        <ele>1599.94</ele>
        <time>2016-08-13T14:14:07Z</time>
      </trkpt>
      <trkpt lat="45.18646" lon="6.48567">
        <ele>1597.38</ele>
        <time>2016-08-13T14:14:12Z</time>
      </trkpt>
      <trkpt lat="45.18667" lon="6.48548">
        <ele>1593.72</ele>
        <time>2016-08-13T14:14:16Z</time>
      </trkpt>
      <trkpt lat="45.18689" lon="6.48533">
        <ele>1589.11</ele>
        <time>2016-08-13T14:14:20Z</time>
      </trkpt>
      <trkpt lat="45.18707" lon="6.48519">
        <ele>1585.15</ele>
        <time>2016-08-13T14:14:23Z</time>
      </trkpt>
      <trkpt lat="45.187" lon="6.48494">
        <ele>1581.05</ele>
        <time>2016-08-13T14:14:27Z</time>
      </trkpt>
      <trkpt lat="45.18681" lon="6.48484">
        <ele>1576.73</ele>
        <time>2016-08-13T14:14:30Z</time>
      </trkpt>
      <trkpt lat="45.18662" lon="6.48478">
        <ele>1572.34</ele>
        <time>2016-08-13T14:14:33Z</time>
      </trkpt>
      <trkpt lat="45.1864" lon="6.48483">
        <ele>1568.36</ele>
        <time>2016-08-13T14:14:36Z</time>
      </trkpt>
      <trkpt lat="45.18619" lon="6.4848">
        <ele>1564.26</ele>
        <time>2016-08-13T14:14:39Z</time>
      </trkpt>
      <trkpt lat="45.18609" lon="6.48457">
        <ele>1559.85</ele>
        <time>2016-08-13T14:14:42Z</time>
      </trkpt>
      <trkpt lat="45.18621" lon="6.48431">
        <ele>1554.75</ele>
        <time>2016-08-13T14:14:46Z</time>
      </trkpt>
      <trkpt lat="45.18636" lon="6.48415">
        <ele>1550.93</ele>
        <time>2016-08-13T14:14:49Z</time>
      </trkpt>
      <trkpt lat="45.18649" lon="6.48395">
        <ele>1545.11</ele>
        <time>2016-08-13T14:14:56Z</time>
      </trkpt>
      <trkpt lat="45.18666" lon="6.4837">
        <ele>1541.55</ele>
        <time>2016-08-13T14:15:01Z</time>
      </trkpt>
      <trkpt lat="45.18677" lon="6.48348">
        <ele>1536.5</ele>
        <time>2016-08-13T14:15:04Z</time>
      </trkpt>
      <trkpt lat="45.18667" lon="6.48319">
        <ele>1531.48</ele>
        <time>2016-08-13T14:15:08Z</time>
      </trkpt>
      <trkpt lat="45.18654" lon="6.48296">
        <ele>1527.23</ele>
        <time>2016-08-13T14:15:11Z</time>
      </trkpt>
      <trkpt lat="45.1866" lon="6.4827">
        <ele>1523.25</ele>
        <time>2016-08-13T14:15:17Z</time>
      </trkpt>
      <trkpt lat="45.18675" lon="6.48247">
        <ele>1520.2</ele>
        <time>2016-08-13T14:15:20Z</time>
      </trkpt>
      <trkpt lat="45.18691" lon="6.48223">
        <ele>1514.48</ele>
        <time>2016-08-13T14:15:23Z</time>
      </trkpt>
      <trkpt lat="45.18703" lon="6.48203">
        <ele>1509.57</ele>
        <time>2016-08-13T14:15:26Z</time>
      </trkpt>
      <trkpt lat="45.18717" lon="6.48181">
        <ele>1504.25</ele>
        <time>2016-08-13T14:15:30Z</time>
      </trkpt>
      <trkpt lat="45.1871" lon="6.48151">
        <ele>1495.73</ele>
        <time>2016-08-13T14:15:37Z</time>
      </trkpt>
      <trkpt lat="45.18699" lon="6.48128">
        <ele>1491.53</ele>
        <time>2016-08-13T14:15:40Z</time>
      </trkpt>
      <trkpt lat="45.1868" lon="6.48107">
        <ele>1487.55</ele>
        <time>2016-08-13T14:15:44Z</time>
      </trkpt>
      <trkpt lat="45.18661" lon="6.48097">
        <ele>1485.07</ele>
        <time>2016-08-13T14:15:47Z</time>
      </trkpt>
      <trkpt lat="45.18642" lon="6.48093">
        <ele>1483.49</ele>
        <time>2016-08-13T14:15:50Z</time>
      </trkpt>
      <trkpt lat="45.18619" lon="6.48101">
        <ele>1482.27</ele>
        <time>2016-08-13T14:15:54Z</time>
      </trkpt>
      <trkpt lat="45.18601" lon="6.48116">
        <ele>1480.58</ele>
        <time>2016-08-13T14:15:57Z</time>
      </trkpt>
      <trkpt lat="45.18583" lon="6.48128">
        <ele>1480.31</ele>
        <time>2016-08-13T14:16:00Z</time>
      </trkpt>
      <trkpt lat="45.18563" lon="6.48144">
        <ele>1480.81</ele>
        <time>2016-08-13T14:16:04Z</time>
      </trkpt>
      <trkpt lat="45.1855" lon="6.48161">
        <ele>1481.35</ele>
        <time>2016-08-13T14:16:08Z</time>
      </trkpt>
      <trkpt lat="45.18532" lon="6.48175">
        <ele>1480.59</ele>
        <time>2016-08-13T14:16:12Z</time>
      </trkpt>
      <trkpt lat="45.18513" lon="6.48193">
        <ele>1479.78</ele>
        <time>2016-08-13T14:16:16Z</time>
      </trkpt>
      <trkpt lat="45.18499" lon="6.4821">
        <ele>1478.8</ele>
        <time>2016-08-13T14:16:19Z</time>
      </trkpt>
      <trkpt lat="45.18482" lon="6.48225">
        <ele>1478.47</ele>
        <time>2016-08-13T14:16:22Z</time>
      </trkpt>
      <trkpt lat="45.18462" lon="6.48231">
        <ele>1478.65</ele>
        <time>2016-08-13T14:16:26Z</time>
      </trkpt>
      <trkpt lat="45.18443" lon="6.48237">
        <ele>1479.18</ele>
        <time>2016-08-13T14:16:30Z</time>
      </trkpt>
      <trkpt lat="45.18427" lon="6.48247">
        <ele>1480.34</ele>
        <time>2016-08-13T14:16:36Z</time>
      </trkpt>
      <trkpt lat="45.18408" lon="6.4825">
        <ele>1479.63</ele>
        <time>2016-08-13T14:16:42Z</time>
      </trkpt>
      <trkpt lat="45.18388" lon="6.48245">
        <ele>1477.55</ele>
        <time>2016-08-13T14:16:45Z</time>
      </trkpt>
      <trkpt lat="45.18361" lon="6.48241">
        <ele>1474.45</ele>
        <time>2016-08-13T14:16:48Z</time>
      </trkpt>
      <trkpt lat="45.1834" lon="6.48243">
        <ele>1472.35</ele>
        <time>2016-08-13T14:16:50Z</time>
      </trkpt>
      <trkpt lat="45.18322" lon="6.48245">
        <ele>1470.59</ele>
        <time>2016-08-13T14:16:52Z</time>
      </trkpt>
      <trkpt lat="45.18305" lon="6.48235">
        <ele>1468.02</ele>
        <time>2016-08-13T14:16:57Z</time>
      </trkpt>
      <trkpt lat="45.18326" lon="6.48231">
        <ele>1465.67</ele>
        <time>2016-08-13T14:17:02Z</time>
      </trkpt>
      <trkpt lat="45.18349" lon="6.4822">
        <ele>1463.1</ele>
        <time>2016-08-13T14:17:05Z</time>
      </trkpt>
      <trkpt lat="45.18364" lon="6.48205">
        <ele>1460.84</ele>
        <time>2016-08-13T14:17:07Z</time>
      </trkpt>
      <trkpt lat="45.1838" lon="6.48178">
        <ele>1457.38</ele>
        <time>2016-08-13T14:17:10Z</time>
      </trkpt>
      <trkpt lat="45.18401" lon="6.48162">
        <ele>1454.39</ele>
        <time>2016-08-13T14:17:13Z</time>
      </trkpt>
      <trkpt lat="45.18424" lon="6.48153">
        <ele>1451.22</ele>
        <time>2016-08-13T14:17:16Z</time>
      </trkpt>
      <trkpt lat="45.18447" lon="6.48145">
        <ele>1448.49</ele>
        <time>2016-08-13T14:17:19Z</time>
      </trkpt>
      <trkpt lat="45.18459" lon="6.48124">
        <ele>1446.46</ele>
        <time>2016-08-13T14:17:22Z</time>
      </trkpt>
      <trkpt lat="45.18466" lon="6.48098">
        <ele>1445.07</ele>
        <time>2016-08-13T14:17:25Z</time>
      </trkpt>
      <trkpt lat="45.1845" lon="6.48081">
        <ele>1442.04</ele>
        <time>2016-08-13T14:17:30Z</time>
      </trkpt>
      <trkpt lat="45.18435" lon="6.48096">
        <ele>1440.13</ele>
        <time>2016-08-13T14:17:35Z</time>
      </trkpt>
      <trkpt lat="45.18416" lon="6.48093">
        <ele>1437.89</ele>
        <time>2016-08-13T14:17:39Z</time>
      </trkpt>
      <trkpt lat="45.18397" lon="6.48096">
        <ele>1436.25</ele>
        <time>2016-08-13T14:17:42Z</time>
      </trkpt>
      <trkpt lat="45.18374" lon="6.48094">
        <ele>1434.16</ele>
        <time>2016-08-13T14:17:45Z</time>
      </trkpt>
      <trkpt lat="45.1835" lon="6.48093">
        <ele>1432.22</ele>
        <time>2016-08-13T14:17:48Z</time>
      </trkpt>
      <trkpt lat="45.18331" lon="6.48096">
        <ele>1430.92</ele>
        <time>2016-08-13T14:17:50Z</time>
      </trkpt>
      <trkpt lat="45.18307" lon="6.48092">
        <ele>1428.76</ele>
        <time>2016-08-13T14:17:53Z</time>
      </trkpt>
      <trkpt lat="45.18289" lon="6.48075">
        <ele>1426.68</ele>
        <time>2016-08-13T14:17:58Z</time>
      </trkpt>
      <trkpt lat="45.18272" lon="6.48057">
        <ele>1425.35</ele>
        <time>2016-08-13T14:18:02Z</time>
      </trkpt>
      <trkpt lat="45.18254" lon="6.48047">
        <ele>1424.1</ele>
        <time>2016-08-13T14:18:05Z</time>
      </trkpt>
      <trkpt lat="45.18232" lon="6.48051">
        <ele>1422.39</ele>
        <time>2016-08-13T14:18:08Z</time>
      </trkpt>
      <trkpt lat="45.18207" lon="6.48054">
        <ele>1420.44</ele>
        <time>2016-08-13T14:18:11Z</time>
      </trkpt>
      <trkpt lat="45.18183" lon="6.48051">
        <ele>1418.5</ele>
        <time>2016-08-13T14:18:14Z</time>
      </trkpt>
      <trkpt lat="45.18199" lon="6.48034">
        <ele>1415.38</ele>
        <time>2016-08-13T14:18:20Z</time>
      </trkpt>
    </trkseg>
  </trk>
</gpx>